<?xml version="1.0" encoding="UTF-8" standalone="no" ?>
<gpx xmlns="http://www.topografix.com/GPX/1/1" xmlns:xsi="http://www.w3.org/2001/XMLSchema-instance" xsi:schemaLocation="http://www.topografix.com/GPX/1/1 http://www.topografix.com/GPX/1/1/gpx.xsd" version="1.1" creator="VisuGPX - https://www.visugpx.com">
  <metadata>
    <name>Tour du Pic de l\'Ours</name>
    <desc><![CDATA[Randonnée ASCVTT du 3/9/2011]]></desc>
  </metadata>
  <trk>
    <name><![CDATA[E - Tour du Pic de l'Ours]]></name>
    <trkseg>
      <trkpt lat="43.47496" lon="6.92472">
        <ele>21.57497215271</ele>
        <time>2011-09-03T07:03:42Z</time>
      </trkpt>
      <trkpt lat="43.47495" lon="6.92468">
        <ele>21.781826019287</ele>
        <time>2011-09-03T07:03:44Z</time>
      </trkpt>
      <trkpt lat="43.47486" lon="6.92455">
        <ele>22.069665908814</ele>
        <time>2011-09-03T07:03:51Z</time>
      </trkpt>
      <trkpt lat="43.4748" lon="6.92443">
        <ele>22.726594924927</ele>
        <time>2011-09-03T07:03:57Z</time>
      </trkpt>
      <trkpt lat="43.47473" lon="6.92428">
        <ele>23.831155776977</ele>
        <time>2011-09-03T07:04:04Z</time>
      </trkpt>
      <trkpt lat="43.47465" lon="6.92411">
        <ele>25.52042388916</ele>
        <time>2011-09-03T07:04:12Z</time>
      </trkpt>
      <trkpt lat="43.47462" lon="6.92403">
        <ele>27.068855285644</ele>
        <time>2011-09-03T07:04:16Z</time>
      </trkpt>
      <trkpt lat="43.47457" lon="6.92392">
        <ele>29.304401397705</ele>
        <time>2011-09-03T07:04:21Z</time>
      </trkpt>
      <trkpt lat="43.47456" lon="6.92387">
        <ele>30.271795272827</ele>
        <time>2011-09-03T07:04:23Z</time>
      </trkpt>
      <trkpt lat="43.47453" lon="6.9238">
        <ele>31.534662246704</ele>
        <time>2011-09-03T07:04:26Z</time>
      </trkpt>
      <trkpt lat="43.47453" lon="6.92377">
        <ele>32.007934570312</ele>
        <time>2011-09-03T07:04:27Z</time>
      </trkpt>
      <trkpt lat="43.47445" lon="6.92357">
        <ele>35.920848846436</ele>
        <time>2011-09-03T07:04:34Z</time>
      </trkpt>
      <trkpt lat="43.47437" lon="6.92338">
        <ele>40.233467102051</ele>
        <time>2011-09-03T07:04:41Z</time>
      </trkpt>
      <trkpt lat="43.4743" lon="6.92317">
        <ele>43.548442840576</ele>
        <time>2011-09-03T07:04:48Z</time>
      </trkpt>
      <trkpt lat="43.47426" lon="6.92307">
        <ele>45.182643890381</ele>
        <time>2011-09-03T07:04:53Z</time>
      </trkpt>
      <trkpt lat="43.47428" lon="6.92298">
        <ele>46.108039855957</ele>
        <time>2011-09-03T07:04:58Z</time>
      </trkpt>
      <trkpt lat="43.47428" lon="6.92296">
        <ele>46.340213775635</ele>
        <time>2011-09-03T07:05:00Z</time>
      </trkpt>
      <trkpt lat="43.47423" lon="6.9229">
        <ele>46.7702293396</ele>
        <time>2011-09-03T07:05:05Z</time>
      </trkpt>
      <trkpt lat="43.47416" lon="6.92278">
        <ele>47.910850524902</ele>
        <time>2011-09-03T07:05:13Z</time>
      </trkpt>
      <trkpt lat="43.47409" lon="6.92266">
        <ele>49.343406677246</ele>
        <time>2011-09-03T07:05:21Z</time>
      </trkpt>
      <trkpt lat="43.47407" lon="6.92252">
        <ele>51.523506164551</ele>
        <time>2011-09-03T07:05:28Z</time>
      </trkpt>
      <trkpt lat="43.47406" lon="6.92241">
        <ele>53.096405029297</ele>
        <time>2011-09-03T07:05:34Z</time>
      </trkpt>
      <trkpt lat="43.47406" lon="6.9223">
        <ele>54.730621337891</ele>
        <time>2011-09-03T07:05:40Z</time>
      </trkpt>
      <trkpt lat="43.47408" lon="6.9222">
        <ele>56.210037231445</ele>
        <time>2011-09-03T07:05:46Z</time>
      </trkpt>
      <trkpt lat="43.47408" lon="6.92212">
        <ele>57.116409301758</ele>
        <time>2011-09-03T07:05:52Z</time>
      </trkpt>
      <trkpt lat="43.47402" lon="6.92199">
        <ele>57.899185180664</ele>
        <time>2011-09-03T07:06:01Z</time>
      </trkpt>
      <trkpt lat="43.47395" lon="6.92193">
        <ele>57.815536499023</ele>
        <time>2011-09-03T07:06:08Z</time>
      </trkpt>
      <trkpt lat="43.47386" lon="6.92191">
        <ele>57.419052124023</ele>
        <time>2011-09-03T07:06:16Z</time>
      </trkpt>
      <trkpt lat="43.4738" lon="6.92188">
        <ele>57.46883392334</ele>
        <time>2011-09-03T07:06:22Z</time>
      </trkpt>
      <trkpt lat="43.47377" lon="6.92189">
        <ele>57.118644714355</ele>
        <time>2011-09-03T07:06:25Z</time>
      </trkpt>
      <trkpt lat="43.47372" lon="6.92189">
        <ele>56.790771484375</ele>
        <time>2011-09-03T07:06:29Z</time>
      </trkpt>
      <trkpt lat="43.47363" lon="6.92192">
        <ele>55.484428405762</ele>
        <time>2011-09-03T07:06:37Z</time>
      </trkpt>
      <trkpt lat="43.47352" lon="6.92196">
        <ele>53.2841796875</ele>
        <time>2011-09-03T07:06:43Z</time>
      </trkpt>
      <trkpt lat="43.47339" lon="6.92191">
        <ele>51.610946655273</ele>
        <time>2011-09-03T07:06:51Z</time>
      </trkpt>
      <trkpt lat="43.47325" lon="6.92185">
        <ele>49.911270141602</ele>
        <time>2011-09-03T07:07:00Z</time>
      </trkpt>
      <trkpt lat="43.47314" lon="6.92184">
        <ele>47.977424621582</ele>
        <time>2011-09-03T07:07:07Z</time>
      </trkpt>
      <trkpt lat="43.47302" lon="6.92182">
        <ele>46.04997253418</ele>
        <time>2011-09-03T07:07:14Z</time>
      </trkpt>
      <trkpt lat="43.47289" lon="6.92178">
        <ele>45.225997924805</ele>
        <time>2011-09-03T07:07:22Z</time>
      </trkpt>
      <trkpt lat="43.47278" lon="6.92173">
        <ele>44.535919189453</ele>
        <time>2011-09-03T07:07:29Z</time>
      </trkpt>
      <trkpt lat="43.47263" lon="6.92167">
        <ele>42.651172637939</ele>
        <time>2011-09-03T07:07:35Z</time>
      </trkpt>
      <trkpt lat="43.47254" lon="6.92157">
        <ele>42.872108459473</ele>
        <time>2011-09-03T07:07:38Z</time>
      </trkpt>
      <trkpt lat="43.47242" lon="6.92133">
        <ele>44.678146362305</ele>
        <time>2011-09-03T07:07:43Z</time>
      </trkpt>
      <trkpt lat="43.47238" lon="6.92119">
        <ele>45.416694641113</ele>
        <time>2011-09-03T07:07:45Z</time>
      </trkpt>
      <trkpt lat="43.47232" lon="6.92084">
        <ele>50.85400390625</ele>
        <time>2011-09-03T07:07:50Z</time>
      </trkpt>
      <trkpt lat="43.47221" lon="6.92076">
        <ele>49.351104736328</ele>
        <time>2011-09-03T07:07:53Z</time>
      </trkpt>
      <trkpt lat="43.47217" lon="6.92079">
        <ele>48.140125274658</ele>
        <time>2011-09-03T07:07:54Z</time>
      </trkpt>
      <trkpt lat="43.47199" lon="6.92103">
        <ele>41.099639892578</ele>
        <time>2011-09-03T07:07:59Z</time>
      </trkpt>
      <trkpt lat="43.4719" lon="6.9213">
        <ele>36.802459716797</ele>
        <time>2011-09-03T07:08:03Z</time>
      </trkpt>
      <trkpt lat="43.47177" lon="6.92138">
        <ele>33.880783081055</ele>
        <time>2011-09-03T07:08:07Z</time>
      </trkpt>
      <trkpt lat="43.47171" lon="6.9212">
        <ele>34.230972290039</ele>
        <time>2011-09-03T07:08:11Z</time>
      </trkpt>
      <trkpt lat="43.47168" lon="6.9209">
        <ele>36.730224609375</ele>
        <time>2011-09-03T07:08:16Z</time>
      </trkpt>
      <trkpt lat="43.47168" lon="6.92077">
        <ele>38.063491821289</ele>
        <time>2011-09-03T07:08:18Z</time>
      </trkpt>
      <trkpt lat="43.47167" lon="6.92051">
        <ele>40.777378082275</ele>
        <time>2011-09-03T07:08:22Z</time>
      </trkpt>
      <trkpt lat="43.47167" lon="6.92024">
        <ele>44.81079864502</ele>
        <time>2011-09-03T07:08:26Z</time>
      </trkpt>
      <trkpt lat="43.47169" lon="6.91988">
        <ele>52.681945800781</ele>
        <time>2011-09-03T07:08:31Z</time>
      </trkpt>
      <trkpt lat="43.47161" lon="6.91941">
        <ele>57.533016204834</ele>
        <time>2011-09-03T07:08:37Z</time>
      </trkpt>
      <trkpt lat="43.47151" lon="6.91913">
        <ele>58.903888702393</ele>
        <time>2011-09-03T07:08:41Z</time>
      </trkpt>
      <trkpt lat="43.47139" lon="6.9189">
        <ele>57.802886962891</ele>
        <time>2011-09-03T07:08:46Z</time>
      </trkpt>
      <trkpt lat="43.47136" lon="6.91883">
        <ele>58.309875488281</ele>
        <time>2011-09-03T07:08:48Z</time>
      </trkpt>
      <trkpt lat="43.47126" lon="6.91868">
        <ele>57.630096435547</ele>
        <time>2011-09-03T07:08:54Z</time>
      </trkpt>
      <trkpt lat="43.4712" lon="6.9186">
        <ele>57.313877105713</ele>
        <time>2011-09-03T07:08:58Z</time>
      </trkpt>
      <trkpt lat="43.47109" lon="6.91861">
        <ele>53.582641601562</ele>
        <time>2011-09-03T07:09:03Z</time>
      </trkpt>
      <trkpt lat="43.47107" lon="6.91862">
        <ele>53.122123718262</ele>
        <time>2011-09-03T07:09:10Z</time>
      </trkpt>
      <trkpt lat="43.47107" lon="6.91862">
        <ele>52.956703186035</ele>
        <time>2011-09-03T07:09:19Z</time>
      </trkpt>
      <trkpt lat="43.47105" lon="6.91865">
        <ele>52.075313568115</ele>
        <time>2011-09-03T07:09:23Z</time>
      </trkpt>
      <trkpt lat="43.47104" lon="6.91867">
        <ele>51.568042755127</ele>
        <time>2011-09-03T07:09:24Z</time>
      </trkpt>
      <trkpt lat="43.47107" lon="6.91883">
        <ele>48.670696258545</ele>
        <time>2011-09-03T07:09:30Z</time>
      </trkpt>
      <trkpt lat="43.47118" lon="6.91913">
        <ele>47.11181640625</ele>
        <time>2011-09-03T07:09:39Z</time>
      </trkpt>
      <trkpt lat="43.4712" lon="6.91936">
        <ele>44.048191070557</ele>
        <time>2011-09-03T07:09:45Z</time>
      </trkpt>
      <trkpt lat="43.47121" lon="6.91957">
        <ele>41.662700653076</ele>
        <time>2011-09-03T07:09:51Z</time>
      </trkpt>
      <trkpt lat="43.47117" lon="6.91984">
        <ele>38.205535888672</ele>
        <time>2011-09-03T07:09:58Z</time>
      </trkpt>
      <trkpt lat="43.47112" lon="6.92012">
        <ele>35.262500762939</ele>
        <time>2011-09-03T07:10:06Z</time>
      </trkpt>
      <trkpt lat="43.47104" lon="6.92037">
        <ele>35.296104431152</ele>
        <time>2011-09-03T07:10:14Z</time>
      </trkpt>
      <trkpt lat="43.47092" lon="6.92055">
        <ele>37.036750793457</ele>
        <time>2011-09-03T07:10:21Z</time>
      </trkpt>
      <trkpt lat="43.47076" lon="6.92078">
        <ele>38.048862457275</ele>
        <time>2011-09-03T07:10:31Z</time>
      </trkpt>
      <trkpt lat="43.47062" lon="6.92096">
        <ele>39.570434570312</ele>
        <time>2011-09-03T07:10:40Z</time>
      </trkpt>
      <trkpt lat="43.4705" lon="6.92102">
        <ele>41.245582580566</ele>
        <time>2011-09-03T07:10:46Z</time>
      </trkpt>
      <trkpt lat="43.47039" lon="6.92096">
        <ele>43.125789642334</ele>
        <time>2011-09-03T07:10:52Z</time>
      </trkpt>
      <trkpt lat="43.47029" lon="6.92083">
        <ele>45.895469665527</ele>
        <time>2011-09-03T07:10:59Z</time>
      </trkpt>
      <trkpt lat="43.47018" lon="6.92071">
        <ele>50.532215118408</ele>
        <time>2011-09-03T07:11:06Z</time>
      </trkpt>
      <trkpt lat="43.47009" lon="6.92068">
        <ele>54.351413726807</ele>
        <time>2011-09-03T07:11:11Z</time>
      </trkpt>
      <trkpt lat="43.46994" lon="6.9207">
        <ele>58.538722991943</ele>
        <time>2011-09-03T07:11:18Z</time>
      </trkpt>
      <trkpt lat="43.46978" lon="6.92072">
        <ele>62.136951446533</ele>
        <time>2011-09-03T07:11:25Z</time>
      </trkpt>
      <trkpt lat="43.46963" lon="6.92072">
        <ele>64.272216796875</ele>
        <time>2011-09-03T07:11:32Z</time>
      </trkpt>
      <trkpt lat="43.46952" lon="6.92083">
        <ele>63.537506103516</ele>
        <time>2011-09-03T07:11:38Z</time>
      </trkpt>
      <trkpt lat="43.46943" lon="6.92097">
        <ele>60.694355010986</ele>
        <time>2011-09-03T07:11:45Z</time>
      </trkpt>
      <trkpt lat="43.46929" lon="6.92108">
        <ele>59.426990509033</ele>
        <time>2011-09-03T07:11:53Z</time>
      </trkpt>
      <trkpt lat="43.46914" lon="6.92118">
        <ele>58.970306396484</ele>
        <time>2011-09-03T07:12:01Z</time>
      </trkpt>
      <trkpt lat="43.46897" lon="6.92127">
        <ele>58.884643554688</ele>
        <time>2011-09-03T07:12:10Z</time>
      </trkpt>
      <trkpt lat="43.46881" lon="6.92138">
        <ele>58.632995605469</ele>
        <time>2011-09-03T07:12:18Z</time>
      </trkpt>
      <trkpt lat="43.4687" lon="6.92149">
        <ele>56.468837738037</ele>
        <time>2011-09-03T07:12:24Z</time>
      </trkpt>
      <trkpt lat="43.46856" lon="6.92158">
        <ele>54.610534667969</ele>
        <time>2011-09-03T07:12:31Z</time>
      </trkpt>
      <trkpt lat="43.46839" lon="6.92166">
        <ele>52.248474121094</ele>
        <time>2011-09-03T07:12:39Z</time>
      </trkpt>
      <trkpt lat="43.46821" lon="6.92176">
        <ele>49.127830505371</ele>
        <time>2011-09-03T07:12:47Z</time>
      </trkpt>
      <trkpt lat="43.46809" lon="6.92175">
        <ele>49.405921936035</ele>
        <time>2011-09-03T07:12:52Z</time>
      </trkpt>
      <trkpt lat="43.46792" lon="6.92172">
        <ele>50.19384765625</ele>
        <time>2011-09-03T07:13:00Z</time>
      </trkpt>
      <trkpt lat="43.46775" lon="6.92172">
        <ele>50.209297180176</ele>
        <time>2011-09-03T07:13:08Z</time>
      </trkpt>
      <trkpt lat="43.46758" lon="6.92172">
        <ele>50.178398132324</ele>
        <time>2011-09-03T07:13:16Z</time>
      </trkpt>
      <trkpt lat="43.46745" lon="6.92164">
        <ele>52.646728515625</ele>
        <time>2011-09-03T07:13:22Z</time>
      </trkpt>
      <trkpt lat="43.4673" lon="6.92152">
        <ele>56.231018066406</ele>
        <time>2011-09-03T07:13:30Z</time>
      </trkpt>
      <trkpt lat="43.46721" lon="6.9214">
        <ele>59.625312805176</ele>
        <time>2011-09-03T07:13:36Z</time>
      </trkpt>
      <trkpt lat="43.46712" lon="6.92125">
        <ele>61.953857421875</ele>
        <time>2011-09-03T07:13:43Z</time>
      </trkpt>
      <trkpt lat="43.46698" lon="6.92123">
        <ele>62.228515625</ele>
        <time>2011-09-03T07:13:50Z</time>
      </trkpt>
      <trkpt lat="43.46685" lon="6.92123">
        <ele>61.694732666016</ele>
        <time>2011-09-03T07:13:56Z</time>
      </trkpt>
      <trkpt lat="43.46673" lon="6.92111">
        <ele>62.443176269531</ele>
        <time>2011-09-03T07:14:03Z</time>
      </trkpt>
      <trkpt lat="43.46656" lon="6.92096">
        <ele>65.037551879883</ele>
        <time>2011-09-03T07:14:13Z</time>
      </trkpt>
      <trkpt lat="43.46644" lon="6.92098">
        <ele>64.399940490723</ele>
        <time>2011-09-03T07:14:19Z</time>
      </trkpt>
      <trkpt lat="43.46627" lon="6.92098">
        <ele>64.496505737305</ele>
        <time>2011-09-03T07:14:27Z</time>
      </trkpt>
      <trkpt lat="43.4661" lon="6.92093">
        <ele>65.812004089355</ele>
        <time>2011-09-03T07:14:35Z</time>
      </trkpt>
      <trkpt lat="43.46591" lon="6.92087">
        <ele>66.588684082031</ele>
        <time>2011-09-03T07:14:44Z</time>
      </trkpt>
      <trkpt lat="43.46579" lon="6.92076">
        <ele>68.220558166504</ele>
        <time>2011-09-03T07:14:51Z</time>
      </trkpt>
      <trkpt lat="43.46571" lon="6.92057">
        <ele>71.231498718262</ele>
        <time>2011-09-03T07:14:58Z</time>
      </trkpt>
      <trkpt lat="43.46562" lon="6.92037">
        <ele>73.724151611328</ele>
        <time>2011-09-03T07:15:06Z</time>
      </trkpt>
      <trkpt lat="43.46551" lon="6.92038">
        <ele>73.292892456055</ele>
        <time>2011-09-03T07:15:11Z</time>
      </trkpt>
      <trkpt lat="43.46531" lon="6.92041">
        <ele>71.694236755371</ele>
        <time>2011-09-03T07:15:21Z</time>
      </trkpt>
      <trkpt lat="43.46517" lon="6.92032">
        <ele>71.753227233887</ele>
        <time>2011-09-03T07:15:29Z</time>
      </trkpt>
      <trkpt lat="43.46503" lon="6.92018">
        <ele>73.284698486328</ele>
        <time>2011-09-03T07:15:38Z</time>
      </trkpt>
      <trkpt lat="43.46494" lon="6.92005">
        <ele>75.407264709473</ele>
        <time>2011-09-03T07:15:45Z</time>
      </trkpt>
      <trkpt lat="43.46489" lon="6.91991">
        <ele>77.526786804199</ele>
        <time>2011-09-03T07:15:51Z</time>
      </trkpt>
      <trkpt lat="43.46488" lon="6.91976">
        <ele>80.512168884277</ele>
        <time>2011-09-03T07:15:57Z</time>
      </trkpt>
      <trkpt lat="43.46487" lon="6.91963">
        <ele>82.468658447266</ele>
        <time>2011-09-03T07:16:02Z</time>
      </trkpt>
      <trkpt lat="43.4648" lon="6.91956">
        <ele>82.365661621094</ele>
        <time>2011-09-03T07:16:07Z</time>
      </trkpt>
      <trkpt lat="43.46462" lon="6.91961">
        <ele>79.207092285156</ele>
        <time>2011-09-03T07:16:16Z</time>
      </trkpt>
      <trkpt lat="43.46449" lon="6.91955">
        <ele>77.998596191406</ele>
        <time>2011-09-03T07:16:23Z</time>
      </trkpt>
      <trkpt lat="43.46432" lon="6.91938">
        <ele>78.521743774414</ele>
        <time>2011-09-03T07:16:33Z</time>
      </trkpt>
      <trkpt lat="43.4642" lon="6.91924">
        <ele>79.27018737793</ele>
        <time>2011-09-03T07:16:41Z</time>
      </trkpt>
      <trkpt lat="43.46412" lon="6.91907">
        <ele>80.641090393066</ele>
        <time>2011-09-03T07:16:49Z</time>
      </trkpt>
      <trkpt lat="43.46405" lon="6.91887">
        <ele>82.263526916504</ele>
        <time>2011-09-03T07:16:57Z</time>
      </trkpt>
      <trkpt lat="43.46397" lon="6.91865">
        <ele>85.056175231934</ele>
        <time>2011-09-03T07:17:06Z</time>
      </trkpt>
      <trkpt lat="43.46393" lon="6.91847">
        <ele>87.543815612793</ele>
        <time>2011-09-03T07:17:14Z</time>
      </trkpt>
      <trkpt lat="43.46391" lon="6.91825">
        <ele>90.341766357422</ele>
        <time>2011-09-03T07:17:23Z</time>
      </trkpt>
      <trkpt lat="43.46383" lon="6.91813">
        <ele>89.950477600098</ele>
        <time>2011-09-03T07:17:29Z</time>
      </trkpt>
      <trkpt lat="43.4637" lon="6.91797">
        <ele>89.07967376709</ele>
        <time>2011-09-03T07:17:38Z</time>
      </trkpt>
      <trkpt lat="43.46359" lon="6.91783">
        <ele>89.021759033203</ele>
        <time>2011-09-03T07:17:46Z</time>
      </trkpt>
      <trkpt lat="43.46348" lon="6.91765">
        <ele>90.190658569336</ele>
        <time>2011-09-03T07:17:55Z</time>
      </trkpt>
      <trkpt lat="43.46342" lon="6.91749">
        <ele>91.645797729492</ele>
        <time>2011-09-03T07:18:02Z</time>
      </trkpt>
      <trkpt lat="43.46339" lon="6.91728">
        <ele>93.432792663574</ele>
        <time>2011-09-03T07:18:09Z</time>
      </trkpt>
      <trkpt lat="43.46341" lon="6.91706">
        <ele>97.231376647949</ele>
        <time>2011-09-03T07:18:17Z</time>
      </trkpt>
      <trkpt lat="43.4634" lon="6.9168">
        <ele>101.53740692139</ele>
        <time>2011-09-03T07:18:27Z</time>
      </trkpt>
      <trkpt lat="43.46338" lon="6.91657">
        <ele>104.50096130371</ele>
        <time>2011-09-03T07:18:36Z</time>
      </trkpt>
      <trkpt lat="43.46334" lon="6.91639">
        <ele>106.24598693848</ele>
        <time>2011-09-03T07:18:43Z</time>
      </trkpt>
      <trkpt lat="43.46329" lon="6.91616">
        <ele>108.55722045898</ele>
        <time>2011-09-03T07:18:52Z</time>
      </trkpt>
      <trkpt lat="43.46321" lon="6.91593">
        <ele>109.35791015625</ele>
        <time>2011-09-03T07:19:01Z</time>
      </trkpt>
      <trkpt lat="43.46314" lon="6.91569">
        <ele>108.75178527832</ele>
        <time>2011-09-03T07:19:09Z</time>
      </trkpt>
      <trkpt lat="43.46315" lon="6.91541">
        <ele>111.84642028809</ele>
        <time>2011-09-03T07:19:18Z</time>
      </trkpt>
      <trkpt lat="43.46317" lon="6.91517">
        <ele>116.29389190674</ele>
        <time>2011-09-03T07:19:26Z</time>
      </trkpt>
      <trkpt lat="43.4632" lon="6.91486">
        <ele>121.587890625</ele>
        <time>2011-09-03T07:19:36Z</time>
      </trkpt>
      <trkpt lat="43.46316" lon="6.91465">
        <ele>120.73816680908</ele>
        <time>2011-09-03T07:19:43Z</time>
      </trkpt>
      <trkpt lat="43.46311" lon="6.91445">
        <ele>119.58116912842</ele>
        <time>2011-09-03T07:19:50Z</time>
      </trkpt>
      <trkpt lat="43.46309" lon="6.91424">
        <ele>119.50221252441</ele>
        <time>2011-09-03T07:19:57Z</time>
      </trkpt>
      <trkpt lat="43.46309" lon="6.91402">
        <ele>122.17232513428</ele>
        <time>2011-09-03T07:20:05Z</time>
      </trkpt>
      <trkpt lat="43.46313" lon="6.91387">
        <ele>126.61835479736</ele>
        <time>2011-09-03T07:20:11Z</time>
      </trkpt>
      <trkpt lat="43.4632" lon="6.91374">
        <ele>132.70547485352</ele>
        <time>2011-09-03T07:20:18Z</time>
      </trkpt>
      <trkpt lat="43.46328" lon="6.91365">
        <ele>139.13761901856</ele>
        <time>2011-09-03T07:20:24Z</time>
      </trkpt>
      <trkpt lat="43.46342" lon="6.91352">
        <ele>146.9606628418</ele>
        <time>2011-09-03T07:20:32Z</time>
      </trkpt>
      <trkpt lat="43.46353" lon="6.91335">
        <ele>152.33709716797</ele>
        <time>2011-09-03T07:20:40Z</time>
      </trkpt>
      <trkpt lat="43.46366" lon="6.91318">
        <ele>161.37886047363</ele>
        <time>2011-09-03T07:20:49Z</time>
      </trkpt>
      <trkpt lat="43.46375" lon="6.91299">
        <ele>169.24394226074</ele>
        <time>2011-09-03T07:20:57Z</time>
      </trkpt>
      <trkpt lat="43.46378" lon="6.91281">
        <ele>171.79933166504</ele>
        <time>2011-09-03T07:21:04Z</time>
      </trkpt>
      <trkpt lat="43.46372" lon="6.91262">
        <ele>168.00048828125</ele>
        <time>2011-09-03T07:21:11Z</time>
      </trkpt>
      <trkpt lat="43.4636" lon="6.91244">
        <ele>160.15914916992</ele>
        <time>2011-09-03T07:21:19Z</time>
      </trkpt>
      <trkpt lat="43.4635" lon="6.91231">
        <ele>157.56362915039</ele>
        <time>2011-09-03T07:21:26Z</time>
      </trkpt>
      <trkpt lat="43.46336" lon="6.91215">
        <ele>153.81550598144</ele>
        <time>2011-09-03T07:21:35Z</time>
      </trkpt>
      <trkpt lat="43.46331" lon="6.91197">
        <ele>153.24160766602</ele>
        <time>2011-09-03T07:21:43Z</time>
      </trkpt>
      <trkpt lat="43.46332" lon="6.91181">
        <ele>154.47030639648</ele>
        <time>2011-09-03T07:21:49Z</time>
      </trkpt>
      <trkpt lat="43.46336" lon="6.91163">
        <ele>157.00117492676</ele>
        <time>2011-09-03T07:21:56Z</time>
      </trkpt>
      <trkpt lat="43.46342" lon="6.91148">
        <ele>159.10542297363</ele>
        <time>2011-09-03T07:22:02Z</time>
      </trkpt>
      <trkpt lat="43.46347" lon="6.91127">
        <ele>160.96824645996</ele>
        <time>2011-09-03T07:22:09Z</time>
      </trkpt>
      <trkpt lat="43.46354" lon="6.91112">
        <ele>162.17149353027</ele>
        <time>2011-09-03T07:22:15Z</time>
      </trkpt>
      <trkpt lat="43.46354" lon="6.91096">
        <ele>161.82131958008</ele>
        <time>2011-09-03T07:22:21Z</time>
      </trkpt>
      <trkpt lat="43.46355" lon="6.91094">
        <ele>161.82025146484</ele>
        <time>2011-09-03T07:22:22Z</time>
      </trkpt>
      <trkpt lat="43.46357" lon="6.91086">
        <ele>161.82096862793</ele>
        <time>2011-09-03T07:22:25Z</time>
      </trkpt>
      <trkpt lat="43.46354" lon="6.91082">
        <ele>161.5221862793</ele>
        <time>2011-09-03T07:22:30Z</time>
      </trkpt>
      <trkpt lat="43.46353" lon="6.91082">
        <ele>161.41009521484</ele>
        <time>2011-09-03T07:22:34Z</time>
      </trkpt>
      <trkpt lat="43.46354" lon="6.91082">
        <ele>161.47012329102</ele>
        <time>2011-09-03T07:22:39Z</time>
      </trkpt>
      <trkpt lat="43.46355" lon="6.91081">
        <ele>161.55728149414</ele>
        <time>2011-09-03T07:22:44Z</time>
      </trkpt>
      <trkpt lat="43.46356" lon="6.91078">
        <ele>161.68287658691</ele>
        <time>2011-09-03T07:22:49Z</time>
      </trkpt>
      <trkpt lat="43.46357" lon="6.9106">
        <ele>161.81358337402</ele>
        <time>2011-09-03T07:22:57Z</time>
      </trkpt>
      <trkpt lat="43.46354" lon="6.9104">
        <ele>161.75457763672</ele>
        <time>2011-09-03T07:23:05Z</time>
      </trkpt>
      <trkpt lat="43.46351" lon="6.91017">
        <ele>161.38368225098</ele>
        <time>2011-09-03T07:23:14Z</time>
      </trkpt>
      <trkpt lat="43.46346" lon="6.90987">
        <ele>161</ele>
        <time>2011-09-03T07:23:26Z</time>
      </trkpt>
      <trkpt lat="43.46334" lon="6.90975">
        <ele>161</ele>
        <time>2011-09-03T07:23:33Z</time>
      </trkpt>
      <trkpt lat="43.46321" lon="6.90969">
        <ele>160.54608154297</ele>
        <time>2011-09-03T07:23:40Z</time>
      </trkpt>
      <trkpt lat="43.46307" lon="6.90963">
        <ele>160.03796386719</ele>
        <time>2011-09-03T07:23:47Z</time>
      </trkpt>
      <trkpt lat="43.46294" lon="6.90953">
        <ele>155.3152923584</ele>
        <time>2011-09-03T07:23:54Z</time>
      </trkpt>
      <trkpt lat="43.46289" lon="6.90945">
        <ele>154.02676391602</ele>
        <time>2011-09-03T07:23:58Z</time>
      </trkpt>
      <trkpt lat="43.46283" lon="6.90923">
        <ele>154.86778259277</ele>
        <time>2011-09-03T07:24:06Z</time>
      </trkpt>
      <trkpt lat="43.4628" lon="6.90902">
        <ele>157.88519287109</ele>
        <time>2011-09-03T07:24:13Z</time>
      </trkpt>
      <trkpt lat="43.46275" lon="6.90865">
        <ele>162.28527832031</ele>
        <time>2011-09-03T07:24:24Z</time>
      </trkpt>
      <trkpt lat="43.4627" lon="6.90849">
        <ele>163.93545532227</ele>
        <time>2011-09-03T07:24:29Z</time>
      </trkpt>
      <trkpt lat="43.46256" lon="6.90818">
        <ele>167.91105651856</ele>
        <time>2011-09-03T07:24:40Z</time>
      </trkpt>
      <trkpt lat="43.46242" lon="6.90793">
        <ele>170.08462524414</ele>
        <time>2011-09-03T07:24:49Z</time>
      </trkpt>
      <trkpt lat="43.46225" lon="6.90774">
        <ele>169.37516784668</ele>
        <time>2011-09-03T07:24:58Z</time>
      </trkpt>
      <trkpt lat="43.46206" lon="6.90754">
        <ele>169.51121520996</ele>
        <time>2011-09-03T07:25:07Z</time>
      </trkpt>
      <trkpt lat="43.46184" lon="6.90732">
        <ele>175.25352478027</ele>
        <time>2011-09-03T07:25:17Z</time>
      </trkpt>
      <trkpt lat="43.46163" lon="6.90709">
        <ele>180</ele>
        <time>2011-09-03T07:25:27Z</time>
      </trkpt>
      <trkpt lat="43.46144" lon="6.90686">
        <ele>179.38079833984</ele>
        <time>2011-09-03T07:25:37Z</time>
      </trkpt>
      <trkpt lat="43.46136" lon="6.90672">
        <ele>178.36799621582</ele>
        <time>2011-09-03T07:25:43Z</time>
      </trkpt>
      <trkpt lat="43.4614" lon="6.90665">
        <ele>177.81416320801</ele>
        <time>2011-09-03T07:25:48Z</time>
      </trkpt>
      <trkpt lat="43.46144" lon="6.90667">
        <ele>178.00750732422</ele>
        <time>2011-09-03T07:25:53Z</time>
      </trkpt>
      <trkpt lat="43.46147" lon="6.90663">
        <ele>177.5500793457</ele>
        <time>2011-09-03T07:25:57Z</time>
      </trkpt>
      <trkpt lat="43.46149" lon="6.90667">
        <ele>178.03497314453</ele>
        <time>2011-09-03T07:26:01Z</time>
      </trkpt>
      <trkpt lat="43.46151" lon="6.90669">
        <ele>178.19633483887</ele>
        <time>2011-09-03T07:26:04Z</time>
      </trkpt>
      <trkpt lat="43.46159" lon="6.9068">
        <ele>178.92417907715</ele>
        <time>2011-09-03T07:26:11Z</time>
      </trkpt>
      <trkpt lat="43.4617" lon="6.90694">
        <ele>179.94728088379</ele>
        <time>2011-09-03T07:26:19Z</time>
      </trkpt>
      <trkpt lat="43.46185" lon="6.9071">
        <ele>180</ele>
        <time>2011-09-03T07:26:27Z</time>
      </trkpt>
      <trkpt lat="43.46204" lon="6.90727">
        <ele>178.37426757812</ele>
        <time>2011-09-03T07:26:36Z</time>
      </trkpt>
      <trkpt lat="43.46227" lon="6.90745">
        <ele>175.79080200195</ele>
        <time>2011-09-03T07:26:45Z</time>
      </trkpt>
      <trkpt lat="43.46251" lon="6.90765">
        <ele>176.2121887207</ele>
        <time>2011-09-03T07:26:53Z</time>
      </trkpt>
      <trkpt lat="43.46273" lon="6.90797">
        <ele>171.02606201172</ele>
        <time>2011-09-03T07:27:01Z</time>
      </trkpt>
      <trkpt lat="43.463" lon="6.90839">
        <ele>163.97796630859</ele>
        <time>2011-09-03T07:27:10Z</time>
      </trkpt>
      <trkpt lat="43.46306" lon="6.90849">
        <ele>162.23538208008</ele>
        <time>2011-09-03T07:27:12Z</time>
      </trkpt>
      <trkpt lat="43.4632" lon="6.90891">
        <ele>160</ele>
        <time>2011-09-03T07:27:19Z</time>
      </trkpt>
      <trkpt lat="43.46336" lon="6.90911">
        <ele>160</ele>
        <time>2011-09-03T07:27:24Z</time>
      </trkpt>
      <trkpt lat="43.46345" lon="6.90912">
        <ele>160</ele>
        <time>2011-09-03T07:27:26Z</time>
      </trkpt>
      <trkpt lat="43.46359" lon="6.90914">
        <ele>160</ele>
        <time>2011-09-03T07:27:29Z</time>
      </trkpt>
      <trkpt lat="43.46379" lon="6.90923">
        <ele>162.95449829102</ele>
        <time>2011-09-03T07:27:34Z</time>
      </trkpt>
      <trkpt lat="43.46386" lon="6.90928">
        <ele>164.33959960938</ele>
        <time>2011-09-03T07:27:37Z</time>
      </trkpt>
      <trkpt lat="43.4639" lon="6.90931">
        <ele>165.19055175781</ele>
        <time>2011-09-03T07:27:42Z</time>
      </trkpt>
      <trkpt lat="43.46395" lon="6.90933">
        <ele>166.44024658203</ele>
        <time>2011-09-03T07:27:47Z</time>
      </trkpt>
      <trkpt lat="43.46397" lon="6.90939">
        <ele>167.41528320312</ele>
        <time>2011-09-03T07:27:51Z</time>
      </trkpt>
      <trkpt lat="43.46405" lon="6.90937">
        <ele>168.86410522461</ele>
        <time>2011-09-03T07:27:56Z</time>
      </trkpt>
      <trkpt lat="43.46407" lon="6.90938">
        <ele>169.51298522949</ele>
        <time>2011-09-03T07:27:58Z</time>
      </trkpt>
      <trkpt lat="43.4641" lon="6.9094">
        <ele>170.35069274902</ele>
        <time>2011-09-03T07:28:00Z</time>
      </trkpt>
      <trkpt lat="43.46417" lon="6.90935">
        <ele>171.52096557617</ele>
        <time>2011-09-03T07:28:06Z</time>
      </trkpt>
      <trkpt lat="43.46418" lon="6.90933">
        <ele>171.73265075684</ele>
        <time>2011-09-03T07:28:07Z</time>
      </trkpt>
      <trkpt lat="43.46426" lon="6.90914">
        <ele>173.10772705078</ele>
        <time>2011-09-03T07:28:17Z</time>
      </trkpt>
      <trkpt lat="43.4643" lon="6.90901">
        <ele>173.03392028809</ele>
        <time>2011-09-03T07:28:24Z</time>
      </trkpt>
      <trkpt lat="43.46434" lon="6.90877">
        <ele>172.67224121094</ele>
        <time>2011-09-03T07:28:36Z</time>
      </trkpt>
      <trkpt lat="43.46438" lon="6.90857">
        <ele>173.23864746094</ele>
        <time>2011-09-03T07:28:46Z</time>
      </trkpt>
      <trkpt lat="43.46441" lon="6.90844">
        <ele>172.94659423828</ele>
        <time>2011-09-03T07:28:53Z</time>
      </trkpt>
      <trkpt lat="43.46442" lon="6.90836">
        <ele>172.52304077148</ele>
        <time>2011-09-03T07:28:57Z</time>
      </trkpt>
      <trkpt lat="43.46444" lon="6.90823">
        <ele>172.08076477051</ele>
        <time>2011-09-03T07:29:04Z</time>
      </trkpt>
      <trkpt lat="43.46445" lon="6.90821">
        <ele>172.2727355957</ele>
        <time>2011-09-03T07:29:05Z</time>
      </trkpt>
      <trkpt lat="43.46445" lon="6.90817">
        <ele>172.00494384766</ele>
        <time>2011-09-03T07:29:07Z</time>
      </trkpt>
      <trkpt lat="43.46446" lon="6.90806">
        <ele>171.80671691894</ele>
        <time>2011-09-03T07:29:13Z</time>
      </trkpt>
      <trkpt lat="43.46447" lon="6.90796">
        <ele>172.11570739746</ele>
        <time>2011-09-03T07:29:18Z</time>
      </trkpt>
      <trkpt lat="43.46448" lon="6.90788">
        <ele>172.26676940918</ele>
        <time>2011-09-03T07:29:22Z</time>
      </trkpt>
      <trkpt lat="43.4645" lon="6.90785">
        <ele>173.26068115234</ele>
        <time>2011-09-03T07:29:24Z</time>
      </trkpt>
      <trkpt lat="43.4645" lon="6.90774">
        <ele>172.66221618652</ele>
        <time>2011-09-03T07:29:30Z</time>
      </trkpt>
      <trkpt lat="43.46452" lon="6.90766">
        <ele>172.94975280762</ele>
        <time>2011-09-03T07:29:35Z</time>
      </trkpt>
      <trkpt lat="43.46452" lon="6.9076">
        <ele>172.53796386719</ele>
        <time>2011-09-03T07:29:38Z</time>
      </trkpt>
      <trkpt lat="43.46455" lon="6.90739">
        <ele>172.88626098633</ele>
        <time>2011-09-03T07:29:48Z</time>
      </trkpt>
      <trkpt lat="43.46462" lon="6.90716">
        <ele>175.45774841309</ele>
        <time>2011-09-03T07:30:00Z</time>
      </trkpt>
      <trkpt lat="43.4647" lon="6.90702">
        <ele>179.35446166992</ele>
        <time>2011-09-03T07:30:09Z</time>
      </trkpt>
      <trkpt lat="43.46476" lon="6.90694">
        <ele>182.38531494141</ele>
        <time>2011-09-03T07:30:15Z</time>
      </trkpt>
      <trkpt lat="43.46485" lon="6.90686">
        <ele>185.77700805664</ele>
        <time>2011-09-03T07:30:22Z</time>
      </trkpt>
      <trkpt lat="43.46491" lon="6.90683">
        <ele>188.5768737793</ele>
        <time>2011-09-03T07:30:27Z</time>
      </trkpt>
      <trkpt lat="43.465" lon="6.9068">
        <ele>192.34022521973</ele>
        <time>2011-09-03T07:30:34Z</time>
      </trkpt>
      <trkpt lat="43.46502" lon="6.9068">
        <ele>192.47132873535</ele>
        <time>2011-09-03T07:30:35Z</time>
      </trkpt>
      <trkpt lat="43.46511" lon="6.90679">
        <ele>193.75602722168</ele>
        <time>2011-09-03T07:30:42Z</time>
      </trkpt>
      <trkpt lat="43.46519" lon="6.90679">
        <ele>194.78088378906</ele>
        <time>2011-09-03T07:30:48Z</time>
      </trkpt>
      <trkpt lat="43.46528" lon="6.90679">
        <ele>196.04388427734</ele>
        <time>2011-09-03T07:30:54Z</time>
      </trkpt>
      <trkpt lat="43.46533" lon="6.9068">
        <ele>197.29139709473</ele>
        <time>2011-09-03T07:30:58Z</time>
      </trkpt>
      <trkpt lat="43.46545" lon="6.90679">
        <ele>199.02769470215</ele>
        <time>2011-09-03T07:31:06Z</time>
      </trkpt>
      <trkpt lat="43.4656" lon="6.9068">
        <ele>201.57592773438</ele>
        <time>2011-09-03T07:31:16Z</time>
      </trkpt>
      <trkpt lat="43.46565" lon="6.9068">
        <ele>202.39990234375</ele>
        <time>2011-09-03T07:31:20Z</time>
      </trkpt>
      <trkpt lat="43.46573" lon="6.9068">
        <ele>204.00665283203</ele>
        <time>2011-09-03T07:31:26Z</time>
      </trkpt>
      <trkpt lat="43.4658" lon="6.90681">
        <ele>205.44860839844</ele>
        <time>2011-09-03T07:31:31Z</time>
      </trkpt>
      <trkpt lat="43.46591" lon="6.90682">
        <ele>206.8582611084</ele>
        <time>2011-09-03T07:31:39Z</time>
      </trkpt>
      <trkpt lat="43.46602" lon="6.90684">
        <ele>208.35864257812</ele>
        <time>2011-09-03T07:31:46Z</time>
      </trkpt>
      <trkpt lat="43.46615" lon="6.90689">
        <ele>211.35350036621</ele>
        <time>2011-09-03T07:31:55Z</time>
      </trkpt>
      <trkpt lat="43.46621" lon="6.90694">
        <ele>213.31671142578</ele>
        <time>2011-09-03T07:31:59Z</time>
      </trkpt>
      <trkpt lat="43.46631" lon="6.90698">
        <ele>215.66253662109</ele>
        <time>2011-09-03T07:32:06Z</time>
      </trkpt>
      <trkpt lat="43.46642" lon="6.90701">
        <ele>217.48052978516</ele>
        <time>2011-09-03T07:32:13Z</time>
      </trkpt>
      <trkpt lat="43.46646" lon="6.90704">
        <ele>218.51222229004</ele>
        <time>2011-09-03T07:32:16Z</time>
      </trkpt>
      <trkpt lat="43.46658" lon="6.90705">
        <ele>219.86148071289</ele>
        <time>2011-09-03T07:32:24Z</time>
      </trkpt>
      <trkpt lat="43.46669" lon="6.90705">
        <ele>221.16572570801</ele>
        <time>2011-09-03T07:32:31Z</time>
      </trkpt>
      <trkpt lat="43.46675" lon="6.90703">
        <ele>222.78866577148</ele>
        <time>2011-09-03T07:32:35Z</time>
      </trkpt>
      <trkpt lat="43.46685" lon="6.90702">
        <ele>226.48078918457</ele>
        <time>2011-09-03T07:32:42Z</time>
      </trkpt>
      <trkpt lat="43.46694" lon="6.90703">
        <ele>230.29780578613</ele>
        <time>2011-09-03T07:32:48Z</time>
      </trkpt>
      <trkpt lat="43.46695" lon="6.90702">
        <ele>230.48843383789</ele>
        <time>2011-09-03T07:32:49Z</time>
      </trkpt>
      <trkpt lat="43.46704" lon="6.90698">
        <ele>233.03262329102</ele>
        <time>2011-09-03T07:32:55Z</time>
      </trkpt>
      <trkpt lat="43.46709" lon="6.90689">
        <ele>232.72793579102</ele>
        <time>2011-09-03T07:33:00Z</time>
      </trkpt>
      <trkpt lat="43.4671" lon="6.90686">
        <ele>232.26174926758</ele>
        <time>2011-09-03T07:33:01Z</time>
      </trkpt>
      <trkpt lat="43.46715" lon="6.90667">
        <ele>228.64994812012</ele>
        <time>2011-09-03T07:33:09Z</time>
      </trkpt>
      <trkpt lat="43.46714" lon="6.90648">
        <ele>224.69102478027</ele>
        <time>2011-09-03T07:33:17Z</time>
      </trkpt>
      <trkpt lat="43.4671" lon="6.90633">
        <ele>221.71726989746</ele>
        <time>2011-09-03T07:33:24Z</time>
      </trkpt>
      <trkpt lat="43.46708" lon="6.90623">
        <ele>220.88037109375</ele>
        <time>2011-09-03T07:33:29Z</time>
      </trkpt>
      <trkpt lat="43.46701" lon="6.90607">
        <ele>217.2444152832</ele>
        <time>2011-09-03T07:33:37Z</time>
      </trkpt>
      <trkpt lat="43.46698" lon="6.90597">
        <ele>214.65657043457</ele>
        <time>2011-09-03T07:33:42Z</time>
      </trkpt>
      <trkpt lat="43.46692" lon="6.90582">
        <ele>209.55679321289</ele>
        <time>2011-09-03T07:33:50Z</time>
      </trkpt>
      <trkpt lat="43.46688" lon="6.9057">
        <ele>211.2159576416</ele>
        <time>2011-09-03T07:33:56Z</time>
      </trkpt>
      <trkpt lat="43.46682" lon="6.90552">
        <ele>211.58197021484</ele>
        <time>2011-09-03T07:34:05Z</time>
      </trkpt>
      <trkpt lat="43.46678" lon="6.90539">
        <ele>214.98895263672</ele>
        <time>2011-09-03T07:34:11Z</time>
      </trkpt>
      <trkpt lat="43.46669" lon="6.9052">
        <ele>217.01029968262</ele>
        <time>2011-09-03T07:34:20Z</time>
      </trkpt>
      <trkpt lat="43.46662" lon="6.90506">
        <ele>224.30184936523</ele>
        <time>2011-09-03T07:34:27Z</time>
      </trkpt>
      <trkpt lat="43.46653" lon="6.9049">
        <ele>225.70478820801</ele>
        <time>2011-09-03T07:34:35Z</time>
      </trkpt>
      <trkpt lat="43.46642" lon="6.90471">
        <ele>225.60208129883</ele>
        <time>2011-09-03T07:34:44Z</time>
      </trkpt>
      <trkpt lat="43.46639" lon="6.90453">
        <ele>234.65666198731</ele>
        <time>2011-09-03T07:34:51Z</time>
      </trkpt>
      <trkpt lat="43.46635" lon="6.90421">
        <ele>237.31683349609</ele>
        <time>2011-09-03T07:35:02Z</time>
      </trkpt>
      <trkpt lat="43.46634" lon="6.9041">
        <ele>237.37448120117</ele>
        <time>2011-09-03T07:35:06Z</time>
      </trkpt>
      <trkpt lat="43.46644" lon="6.90405">
        <ele>239.92240905762</ele>
        <time>2011-09-03T07:35:12Z</time>
      </trkpt>
      <trkpt lat="43.4665" lon="6.90417">
        <ele>240</ele>
        <time>2011-09-03T07:35:17Z</time>
      </trkpt>
      <trkpt lat="43.46653" lon="6.9044">
        <ele>240</ele>
        <time>2011-09-03T07:35:25Z</time>
      </trkpt>
      <trkpt lat="43.4666" lon="6.90466">
        <ele>236.70252990723</ele>
        <time>2011-09-03T07:35:34Z</time>
      </trkpt>
      <trkpt lat="43.46671" lon="6.90481">
        <ele>237.77993774414</ele>
        <time>2011-09-03T07:35:41Z</time>
      </trkpt>
      <trkpt lat="43.46688" lon="6.90501">
        <ele>238.16645812988</ele>
        <time>2011-09-03T07:35:51Z</time>
      </trkpt>
      <trkpt lat="43.46708" lon="6.90525">
        <ele>239.68400573731</ele>
        <time>2011-09-03T07:36:02Z</time>
      </trkpt>
      <trkpt lat="43.46725" lon="6.90545">
        <ele>239.73599243164</ele>
        <time>2011-09-03T07:36:12Z</time>
      </trkpt>
      <trkpt lat="43.46736" lon="6.90556">
        <ele>239.99597167969</ele>
        <time>2011-09-03T07:36:18Z</time>
      </trkpt>
      <trkpt lat="43.46738" lon="6.90555">
        <ele>239.88792419434</ele>
        <time>2011-09-03T07:36:23Z</time>
      </trkpt>
      <trkpt lat="43.46738" lon="6.90554">
        <ele>239.80839538574</ele>
        <time>2011-09-03T07:36:29Z</time>
      </trkpt>
      <trkpt lat="43.46737" lon="6.90553">
        <ele>239.71705627441</ele>
        <time>2011-09-03T07:36:39Z</time>
      </trkpt>
      <trkpt lat="43.46737" lon="6.90553">
        <ele>239.68913269043</ele>
        <time>2011-09-03T07:36:44Z</time>
      </trkpt>
      <trkpt lat="43.46737" lon="6.90553">
        <ele>239.70030212402</ele>
        <time>2011-09-03T07:36:47Z</time>
      </trkpt>
      <trkpt lat="43.46737" lon="6.90553">
        <ele>239.71147155762</ele>
        <time>2011-09-03T07:36:48Z</time>
      </trkpt>
      <trkpt lat="43.46738" lon="6.90553">
        <ele>239.6526184082</ele>
        <time>2011-09-03T07:37:01Z</time>
      </trkpt>
      <trkpt lat="43.46737" lon="6.90553">
        <ele>239.7282409668</ele>
        <time>2011-09-03T07:37:07Z</time>
      </trkpt>
      <trkpt lat="43.46737" lon="6.90554">
        <ele>239.82223510742</ele>
        <time>2011-09-03T07:37:12Z</time>
      </trkpt>
      <trkpt lat="43.46738" lon="6.90554">
        <ele>239.80377197266</ele>
        <time>2011-09-03T07:37:18Z</time>
      </trkpt>
      <trkpt lat="43.46739" lon="6.90554">
        <ele>239.75608825684</ele>
        <time>2011-09-03T07:37:20Z</time>
      </trkpt>
      <trkpt lat="43.46739" lon="6.90553">
        <ele>239.72532653809</ele>
        <time>2011-09-03T07:37:21Z</time>
      </trkpt>
      <trkpt lat="43.46738" lon="6.90554">
        <ele>239.74366760254</ele>
        <time>2011-09-03T07:37:29Z</time>
      </trkpt>
      <trkpt lat="43.46738" lon="6.90553">
        <ele>239.64404296875</ele>
        <time>2011-09-03T07:37:51Z</time>
      </trkpt>
      <trkpt lat="43.46737" lon="6.90553">
        <ele>239.67794799805</ele>
        <time>2011-09-03T07:37:53Z</time>
      </trkpt>
      <trkpt lat="43.46737" lon="6.90553">
        <ele>239.68354797363</ele>
        <time>2011-09-03T07:37:55Z</time>
      </trkpt>
      <trkpt lat="43.46737" lon="6.90553">
        <ele>239.68354797363</ele>
        <time>2011-09-03T07:37:56Z</time>
      </trkpt>
      <trkpt lat="43.46737" lon="6.90553">
        <ele>239.66432189941</ele>
        <time>2011-09-03T07:37:58Z</time>
      </trkpt>
      <trkpt lat="43.46737" lon="6.90552">
        <ele>239.64254760742</ele>
        <time>2011-09-03T07:38:02Z</time>
      </trkpt>
      <trkpt lat="43.46737" lon="6.90552">
        <ele>239.65713500977</ele>
        <time>2011-09-03T07:38:03Z</time>
      </trkpt>
      <trkpt lat="43.46737" lon="6.90553">
        <ele>239.65560913086</ele>
        <time>2011-09-03T07:38:10Z</time>
      </trkpt>
      <trkpt lat="43.46737" lon="6.90553">
        <ele>239.67794799805</ele>
        <time>2011-09-03T07:38:18Z</time>
      </trkpt>
      <trkpt lat="43.46737" lon="6.90553">
        <ele>239.64443969727</ele>
        <time>2011-09-03T07:38:27Z</time>
      </trkpt>
      <trkpt lat="43.46738" lon="6.90554">
        <ele>239.7673034668</ele>
        <time>2011-09-03T07:38:34Z</time>
      </trkpt>
      <trkpt lat="43.46738" lon="6.90553">
        <ele>239.73281860352</ele>
        <time>2011-09-03T07:38:39Z</time>
      </trkpt>
      <trkpt lat="43.46738" lon="6.90554">
        <ele>239.82600402832</ele>
        <time>2011-09-03T07:38:53Z</time>
      </trkpt>
      <trkpt lat="43.46738" lon="6.90554">
        <ele>239.86456298828</ele>
        <time>2011-09-03T07:39:04Z</time>
      </trkpt>
      <trkpt lat="43.46738" lon="6.90555">
        <ele>239.89320373535</ele>
        <time>2011-09-03T07:39:08Z</time>
      </trkpt>
      <trkpt lat="43.46737" lon="6.90554">
        <ele>239.81762695312</ele>
        <time>2011-09-03T07:39:14Z</time>
      </trkpt>
      <trkpt lat="43.46737" lon="6.90554">
        <ele>239.78968811035</ele>
        <time>2011-09-03T07:39:20Z</time>
      </trkpt>
      <trkpt lat="43.46738" lon="6.90554">
        <ele>239.79582214356</ele>
        <time>2011-09-03T07:39:26Z</time>
      </trkpt>
      <trkpt lat="43.46737" lon="6.90553">
        <ele>239.67794799805</ele>
        <time>2011-09-03T07:39:33Z</time>
      </trkpt>
      <trkpt lat="43.46737" lon="6.90553">
        <ele>239.67236328125</ele>
        <time>2011-09-03T07:39:39Z</time>
      </trkpt>
      <trkpt lat="43.46738" lon="6.90553">
        <ele>239.73796081543</ele>
        <time>2011-09-03T07:39:43Z</time>
      </trkpt>
      <trkpt lat="43.46739" lon="6.90551">
        <ele>239.46076965332</ele>
        <time>2011-09-03T07:39:47Z</time>
      </trkpt>
      <trkpt lat="43.46738" lon="6.90547">
        <ele>238.93968200684</ele>
        <time>2011-09-03T07:39:50Z</time>
      </trkpt>
      <trkpt lat="43.46736" lon="6.90536">
        <ele>237.89041137695</ele>
        <time>2011-09-03T07:39:54Z</time>
      </trkpt>
      <trkpt lat="43.46731" lon="6.90494">
        <ele>230.10469055176</ele>
        <time>2011-09-03T07:40:03Z</time>
      </trkpt>
      <trkpt lat="43.46731" lon="6.90451">
        <ele>224.08009338379</ele>
        <time>2011-09-03T07:40:11Z</time>
      </trkpt>
      <trkpt lat="43.46737" lon="6.90425">
        <ele>219.39302062988</ele>
        <time>2011-09-03T07:40:16Z</time>
      </trkpt>
      <trkpt lat="43.46743" lon="6.90392">
        <ele>217.15032958984</ele>
        <time>2011-09-03T07:40:22Z</time>
      </trkpt>
      <trkpt lat="43.46745" lon="6.90357">
        <ele>215.43270874023</ele>
        <time>2011-09-03T07:40:29Z</time>
      </trkpt>
      <trkpt lat="43.46743" lon="6.90326">
        <ele>213.91064453125</ele>
        <time>2011-09-03T07:40:35Z</time>
      </trkpt>
      <trkpt lat="43.46736" lon="6.90299">
        <ele>214.33808898926</ele>
        <time>2011-09-03T07:40:40Z</time>
      </trkpt>
      <trkpt lat="43.46723" lon="6.90272">
        <ele>215.68563842773</ele>
        <time>2011-09-03T07:40:46Z</time>
      </trkpt>
      <trkpt lat="43.46719" lon="6.90262">
        <ele>217.00421142578</ele>
        <time>2011-09-03T07:40:48Z</time>
      </trkpt>
      <trkpt lat="43.46711" lon="6.90238">
        <ele>219.11737060547</ele>
        <time>2011-09-03T07:40:53Z</time>
      </trkpt>
      <trkpt lat="43.46709" lon="6.90221">
        <ele>219.14331054688</ele>
        <time>2011-09-03T07:40:56Z</time>
      </trkpt>
      <trkpt lat="43.46708" lon="6.90198">
        <ele>218.47747802734</ele>
        <time>2011-09-03T07:41:00Z</time>
      </trkpt>
      <trkpt lat="43.46706" lon="6.90175">
        <ele>218.12991333008</ele>
        <time>2011-09-03T07:41:04Z</time>
      </trkpt>
      <trkpt lat="43.46703" lon="6.90142">
        <ele>217.83042907715</ele>
        <time>2011-09-03T07:41:10Z</time>
      </trkpt>
      <trkpt lat="43.46707" lon="6.90118">
        <ele>216.55638122559</ele>
        <time>2011-09-03T07:41:14Z</time>
      </trkpt>
      <trkpt lat="43.46709" lon="6.90092">
        <ele>215.36003112793</ele>
        <time>2011-09-03T07:41:19Z</time>
      </trkpt>
      <trkpt lat="43.46711" lon="6.90055">
        <ele>214.572265625</ele>
        <time>2011-09-03T07:41:26Z</time>
      </trkpt>
      <trkpt lat="43.46706" lon="6.9002">
        <ele>217.62368774414</ele>
        <time>2011-09-03T07:41:33Z</time>
      </trkpt>
      <trkpt lat="43.46698" lon="6.89992">
        <ele>219.5975189209</ele>
        <time>2011-09-03T07:41:39Z</time>
      </trkpt>
      <trkpt lat="43.46684" lon="6.89968">
        <ele>223.19662475586</ele>
        <time>2011-09-03T07:41:44Z</time>
      </trkpt>
      <trkpt lat="43.46672" lon="6.89951">
        <ele>227.35012817383</ele>
        <time>2011-09-03T07:41:49Z</time>
      </trkpt>
      <trkpt lat="43.46664" lon="6.89927">
        <ele>231.20016479492</ele>
        <time>2011-09-03T07:41:54Z</time>
      </trkpt>
      <trkpt lat="43.46663" lon="6.89897">
        <ele>235.69563293457</ele>
        <time>2011-09-03T07:41:59Z</time>
      </trkpt>
      <trkpt lat="43.46663" lon="6.89882">
        <ele>237.82153320312</ele>
        <time>2011-09-03T07:42:02Z</time>
      </trkpt>
      <trkpt lat="43.46664" lon="6.89872">
        <ele>238.87815856934</ele>
        <time>2011-09-03T07:42:04Z</time>
      </trkpt>
      <trkpt lat="43.46662" lon="6.89825">
        <ele>249.38052368164</ele>
        <time>2011-09-03T07:42:13Z</time>
      </trkpt>
      <trkpt lat="43.4666" lon="6.89794">
        <ele>255.95799255371</ele>
        <time>2011-09-03T07:42:19Z</time>
      </trkpt>
      <trkpt lat="43.46659" lon="6.89746">
        <ele>268.16506958008</ele>
        <time>2011-09-03T07:42:28Z</time>
      </trkpt>
      <trkpt lat="43.46665" lon="6.89711">
        <ele>278.77157592773</ele>
        <time>2011-09-03T07:42:35Z</time>
      </trkpt>
      <trkpt lat="43.46671" lon="6.89684">
        <ele>282.29696655273</ele>
        <time>2011-09-03T07:42:41Z</time>
      </trkpt>
      <trkpt lat="43.46685" lon="6.89644">
        <ele>285.37710571289</ele>
        <time>2011-09-03T07:42:50Z</time>
      </trkpt>
      <trkpt lat="43.46694" lon="6.89609">
        <ele>288.3635559082</ele>
        <time>2011-09-03T07:42:58Z</time>
      </trkpt>
      <trkpt lat="43.46701" lon="6.8958">
        <ele>289.21060180664</ele>
        <time>2011-09-03T07:43:04Z</time>
      </trkpt>
      <trkpt lat="43.46708" lon="6.89546">
        <ele>288.53955078125</ele>
        <time>2011-09-03T07:43:11Z</time>
      </trkpt>
      <trkpt lat="43.46714" lon="6.89518">
        <ele>288.50366210938</ele>
        <time>2011-09-03T07:43:17Z</time>
      </trkpt>
      <trkpt lat="43.46715" lon="6.89479">
        <ele>292.77703857422</ele>
        <time>2011-09-03T07:43:25Z</time>
      </trkpt>
      <trkpt lat="43.46715" lon="6.89447">
        <ele>296.02014160156</ele>
        <time>2011-09-03T07:43:32Z</time>
      </trkpt>
      <trkpt lat="43.46718" lon="6.8942">
        <ele>298.32278442383</ele>
        <time>2011-09-03T07:43:38Z</time>
      </trkpt>
      <trkpt lat="43.46721" lon="6.89396">
        <ele>298.88317871094</ele>
        <time>2011-09-03T07:43:43Z</time>
      </trkpt>
      <trkpt lat="43.46732" lon="6.89364">
        <ele>295.11022949219</ele>
        <time>2011-09-03T07:43:50Z</time>
      </trkpt>
      <trkpt lat="43.46748" lon="6.89336">
        <ele>290.61767578125</ele>
        <time>2011-09-03T07:43:57Z</time>
      </trkpt>
      <trkpt lat="43.46759" lon="6.89318">
        <ele>284.48532104492</ele>
        <time>2011-09-03T07:44:02Z</time>
      </trkpt>
      <trkpt lat="43.46777" lon="6.89296">
        <ele>275.30722045898</ele>
        <time>2011-09-03T07:44:09Z</time>
      </trkpt>
      <trkpt lat="43.46791" lon="6.89276">
        <ele>269.56356811523</ele>
        <time>2011-09-03T07:44:15Z</time>
      </trkpt>
      <trkpt lat="43.468" lon="6.89256">
        <ele>266.47998046875</ele>
        <time>2011-09-03T07:44:20Z</time>
      </trkpt>
      <trkpt lat="43.46806" lon="6.8923">
        <ele>266.54711914062</ele>
        <time>2011-09-03T07:44:26Z</time>
      </trkpt>
      <trkpt lat="43.46803" lon="6.89204">
        <ele>272.59262084961</ele>
        <time>2011-09-03T07:44:32Z</time>
      </trkpt>
      <trkpt lat="43.46798" lon="6.89179">
        <ele>280.29898071289</ele>
        <time>2011-09-03T07:44:38Z</time>
      </trkpt>
      <trkpt lat="43.46795" lon="6.8914">
        <ele>286.71060180664</ele>
        <time>2011-09-03T07:44:46Z</time>
      </trkpt>
      <trkpt lat="43.46793" lon="6.89108">
        <ele>290.13415527344</ele>
        <time>2011-09-03T07:44:53Z</time>
      </trkpt>
      <trkpt lat="43.46796" lon="6.89069">
        <ele>290.69393920898</ele>
        <time>2011-09-03T07:45:01Z</time>
      </trkpt>
      <trkpt lat="43.46799" lon="6.89047">
        <ele>289.80731201172</ele>
        <time>2011-09-03T07:45:06Z</time>
      </trkpt>
      <trkpt lat="43.46805" lon="6.89017">
        <ele>287.00930786133</ele>
        <time>2011-09-03T07:45:12Z</time>
      </trkpt>
      <trkpt lat="43.46811" lon="6.88982">
        <ele>286.87463378906</ele>
        <time>2011-09-03T07:45:19Z</time>
      </trkpt>
      <trkpt lat="43.46812" lon="6.88957">
        <ele>287.87283325195</ele>
        <time>2011-09-03T07:45:24Z</time>
      </trkpt>
      <trkpt lat="43.46809" lon="6.88922">
        <ele>290.18734741211</ele>
        <time>2011-09-03T07:45:31Z</time>
      </trkpt>
      <trkpt lat="43.46811" lon="6.88884">
        <ele>287.78665161133</ele>
        <time>2011-09-03T07:45:38Z</time>
      </trkpt>
      <trkpt lat="43.46807" lon="6.8886">
        <ele>288.2939453125</ele>
        <time>2011-09-03T07:45:43Z</time>
      </trkpt>
      <trkpt lat="43.46802" lon="6.88825">
        <ele>289.45141601562</ele>
        <time>2011-09-03T07:45:50Z</time>
      </trkpt>
      <trkpt lat="43.46796" lon="6.88791">
        <ele>290.35559082031</ele>
        <time>2011-09-03T07:45:57Z</time>
      </trkpt>
      <trkpt lat="43.46793" lon="6.88763">
        <ele>290.14739990234</ele>
        <time>2011-09-03T07:46:03Z</time>
      </trkpt>
      <trkpt lat="43.46792" lon="6.88739">
        <ele>289.55187988281</ele>
        <time>2011-09-03T07:46:08Z</time>
      </trkpt>
      <trkpt lat="43.46798" lon="6.88713">
        <ele>286.14636230469</ele>
        <time>2011-09-03T07:46:13Z</time>
      </trkpt>
      <trkpt lat="43.46805" lon="6.88682">
        <ele>283.08032226562</ele>
        <time>2011-09-03T07:46:19Z</time>
      </trkpt>
      <trkpt lat="43.46812" lon="6.88656">
        <ele>280.36926269531</ele>
        <time>2011-09-03T07:46:25Z</time>
      </trkpt>
      <trkpt lat="43.46822" lon="6.88629">
        <ele>278.30850219727</ele>
        <time>2011-09-03T07:46:31Z</time>
      </trkpt>
      <trkpt lat="43.46819" lon="6.88609">
        <ele>278.43344116211</ele>
        <time>2011-09-03T07:46:34Z</time>
      </trkpt>
      <trkpt lat="43.46801" lon="6.88585">
        <ele>280.23681640625</ele>
        <time>2011-09-03T07:46:38Z</time>
      </trkpt>
      <trkpt lat="43.46775" lon="6.88567">
        <ele>272.69900512695</ele>
        <time>2011-09-03T07:46:42Z</time>
      </trkpt>
      <trkpt lat="43.46751" lon="6.8856">
        <ele>270.96594238281</ele>
        <time>2011-09-03T07:46:46Z</time>
      </trkpt>
      <trkpt lat="43.46746" lon="6.88556">
        <ele>268.77899169922</ele>
        <time>2011-09-03T07:46:50Z</time>
      </trkpt>
      <trkpt lat="43.46746" lon="6.88556">
        <ele>268.66839599609</ele>
        <time>2011-09-03T07:46:57Z</time>
      </trkpt>
      <trkpt lat="43.46745" lon="6.88558">
        <ele>268.8544921875</ele>
        <time>2011-09-03T07:47:03Z</time>
      </trkpt>
      <trkpt lat="43.46746" lon="6.88558">
        <ele>269.19387817383</ele>
        <time>2011-09-03T07:47:11Z</time>
      </trkpt>
      <trkpt lat="43.46745" lon="6.88559">
        <ele>269.18954467773</ele>
        <time>2011-09-03T07:47:14Z</time>
      </trkpt>
      <trkpt lat="43.46745" lon="6.8856">
        <ele>269.52462768555</ele>
        <time>2011-09-03T07:47:21Z</time>
      </trkpt>
      <trkpt lat="43.46744" lon="6.8856">
        <ele>269.19818115234</ele>
        <time>2011-09-03T07:47:33Z</time>
      </trkpt>
      <trkpt lat="43.46744" lon="6.8856">
        <ele>269.09338378906</ele>
        <time>2011-09-03T07:47:43Z</time>
      </trkpt>
      <trkpt lat="43.46744" lon="6.8856">
        <ele>269.02835083008</ele>
        <time>2011-09-03T07:47:47Z</time>
      </trkpt>
      <trkpt lat="43.46743" lon="6.88562">
        <ele>269.37454223633</ele>
        <time>2011-09-03T07:48:47Z</time>
      </trkpt>
      <trkpt lat="43.46743" lon="6.88561">
        <ele>269.00695800781</ele>
        <time>2011-09-03T07:48:59Z</time>
      </trkpt>
      <trkpt lat="43.46743" lon="6.88561">
        <ele>268.92709350586</ele>
        <time>2011-09-03T07:49:10Z</time>
      </trkpt>
      <trkpt lat="43.46743" lon="6.88561">
        <ele>268.87384033203</ele>
        <time>2011-09-03T07:49:19Z</time>
      </trkpt>
      <trkpt lat="43.46743" lon="6.8856">
        <ele>268.66360473633</ele>
        <time>2011-09-03T07:49:25Z</time>
      </trkpt>
      <trkpt lat="43.46743" lon="6.8856">
        <ele>268.6100769043</ele>
        <time>2011-09-03T07:49:28Z</time>
      </trkpt>
      <trkpt lat="43.46743" lon="6.8856">
        <ele>268.5966796875</ele>
        <time>2011-09-03T07:49:30Z</time>
      </trkpt>
      <trkpt lat="43.46743" lon="6.88561">
        <ele>269.13619995117</ele>
        <time>2011-09-03T07:49:42Z</time>
      </trkpt>
      <trkpt lat="43.46744" lon="6.8856">
        <ele>269.10739135742</ele>
        <time>2011-09-03T07:49:57Z</time>
      </trkpt>
      <trkpt lat="43.46748" lon="6.88548">
        <ele>267.76458740234</ele>
        <time>2011-09-03T07:50:01Z</time>
      </trkpt>
      <trkpt lat="43.4675" lon="6.88531">
        <ele>265.63189697266</ele>
        <time>2011-09-03T07:50:04Z</time>
      </trkpt>
      <trkpt lat="43.46752" lon="6.88504">
        <ele>260.67752075195</ele>
        <time>2011-09-03T07:50:08Z</time>
      </trkpt>
      <trkpt lat="43.46753" lon="6.88497">
        <ele>259.58526611328</ele>
        <time>2011-09-03T07:50:09Z</time>
      </trkpt>
      <trkpt lat="43.46746" lon="6.88465">
        <ele>253.93595886231</ele>
        <time>2011-09-03T07:50:14Z</time>
      </trkpt>
      <trkpt lat="43.46741" lon="6.88456">
        <ele>251.44049072266</ele>
        <time>2011-09-03T07:50:16Z</time>
      </trkpt>
      <trkpt lat="43.46719" lon="6.88423">
        <ele>237.50224304199</ele>
        <time>2011-09-03T07:50:21Z</time>
      </trkpt>
      <trkpt lat="43.46715" lon="6.88419">
        <ele>234.73017883301</ele>
        <time>2011-09-03T07:50:22Z</time>
      </trkpt>
      <trkpt lat="43.46701" lon="6.88414">
        <ele>226.0167388916</ele>
        <time>2011-09-03T07:50:27Z</time>
      </trkpt>
      <trkpt lat="43.46687" lon="6.88408">
        <ele>219.33694458008</ele>
        <time>2011-09-03T07:50:31Z</time>
      </trkpt>
      <trkpt lat="43.46682" lon="6.88406">
        <ele>217.14237976074</ele>
        <time>2011-09-03T07:50:32Z</time>
      </trkpt>
      <trkpt lat="43.46666" lon="6.884">
        <ele>208.59077453613</ele>
        <time>2011-09-03T07:50:35Z</time>
      </trkpt>
      <trkpt lat="43.46642" lon="6.88389">
        <ele>200.04629516602</ele>
        <time>2011-09-03T07:50:39Z</time>
      </trkpt>
      <trkpt lat="43.46616" lon="6.88373">
        <ele>193.90521240234</ele>
        <time>2011-09-03T07:50:43Z</time>
      </trkpt>
      <trkpt lat="43.46591" lon="6.88346">
        <ele>194.52903747559</ele>
        <time>2011-09-03T07:50:48Z</time>
      </trkpt>
      <trkpt lat="43.46582" lon="6.88338">
        <ele>195.43159484863</ele>
        <time>2011-09-03T07:50:50Z</time>
      </trkpt>
      <trkpt lat="43.46559" lon="6.88321">
        <ele>197.80122375488</ele>
        <time>2011-09-03T07:50:55Z</time>
      </trkpt>
      <trkpt lat="43.46551" lon="6.88308">
        <ele>200.89221191406</ele>
        <time>2011-09-03T07:50:58Z</time>
      </trkpt>
      <trkpt lat="43.4655" lon="6.88282">
        <ele>204.9892578125</ele>
        <time>2011-09-03T07:51:02Z</time>
      </trkpt>
      <trkpt lat="43.46556" lon="6.8826">
        <ele>209.92797851562</ele>
        <time>2011-09-03T07:51:06Z</time>
      </trkpt>
      <trkpt lat="43.46561" lon="6.88236">
        <ele>210.56741333008</ele>
        <time>2011-09-03T07:51:10Z</time>
      </trkpt>
      <trkpt lat="43.46568" lon="6.88216">
        <ele>209.7403717041</ele>
        <time>2011-09-03T07:51:14Z</time>
      </trkpt>
      <trkpt lat="43.46576" lon="6.88191">
        <ele>208.50895690918</ele>
        <time>2011-09-03T07:51:20Z</time>
      </trkpt>
      <trkpt lat="43.46577" lon="6.88186">
        <ele>208.00622558594</ele>
        <time>2011-09-03T07:51:22Z</time>
      </trkpt>
      <trkpt lat="43.46582" lon="6.88178">
        <ele>207.44107055664</ele>
        <time>2011-09-03T07:51:26Z</time>
      </trkpt>
      <trkpt lat="43.46577" lon="6.88176">
        <ele>206.69804382324</ele>
        <time>2011-09-03T07:51:30Z</time>
      </trkpt>
      <trkpt lat="43.4656" lon="6.88182">
        <ele>205.11724853516</ele>
        <time>2011-09-03T07:51:35Z</time>
      </trkpt>
      <trkpt lat="43.46541" lon="6.8819">
        <ele>204.03868103027</ele>
        <time>2011-09-03T07:51:39Z</time>
      </trkpt>
      <trkpt lat="43.46536" lon="6.8819">
        <ele>203.52992248535</ele>
        <time>2011-09-03T07:51:40Z</time>
      </trkpt>
      <trkpt lat="43.46525" lon="6.88191">
        <ele>202.546875</ele>
        <time>2011-09-03T07:51:42Z</time>
      </trkpt>
      <trkpt lat="43.46511" lon="6.88185">
        <ele>201.34004211426</ele>
        <time>2011-09-03T07:51:45Z</time>
      </trkpt>
      <trkpt lat="43.46503" lon="6.8818">
        <ele>200.64900207519</ele>
        <time>2011-09-03T07:51:47Z</time>
      </trkpt>
      <trkpt lat="43.46495" lon="6.88172">
        <ele>200.79067993164</ele>
        <time>2011-09-03T07:51:49Z</time>
      </trkpt>
      <trkpt lat="43.46478" lon="6.88154">
        <ele>203.12890625</ele>
        <time>2011-09-03T07:51:54Z</time>
      </trkpt>
      <trkpt lat="43.46471" lon="6.88132">
        <ele>202.56422424316</ele>
        <time>2011-09-03T07:51:58Z</time>
      </trkpt>
      <trkpt lat="43.46468" lon="6.8812">
        <ele>199.94398498535</ele>
        <time>2011-09-03T07:52:00Z</time>
      </trkpt>
      <trkpt lat="43.46467" lon="6.88111">
        <ele>197.67468261719</ele>
        <time>2011-09-03T07:52:05Z</time>
      </trkpt>
      <trkpt lat="43.46464" lon="6.88103">
        <ele>195.14785766602</ele>
        <time>2011-09-03T07:52:08Z</time>
      </trkpt>
      <trkpt lat="43.46458" lon="6.88079">
        <ele>188.67135620117</ele>
        <time>2011-09-03T07:52:13Z</time>
      </trkpt>
      <trkpt lat="43.46449" lon="6.88044">
        <ele>180.61779785156</ele>
        <time>2011-09-03T07:52:18Z</time>
      </trkpt>
      <trkpt lat="43.46448" lon="6.88037">
        <ele>178.74841308594</ele>
        <time>2011-09-03T07:52:19Z</time>
      </trkpt>
      <trkpt lat="43.46445" lon="6.88025">
        <ele>174.83473205566</ele>
        <time>2011-09-03T07:52:21Z</time>
      </trkpt>
      <trkpt lat="43.46439" lon="6.87997">
        <ele>163.04118347168</ele>
        <time>2011-09-03T07:52:26Z</time>
      </trkpt>
      <trkpt lat="43.46439" lon="6.87997">
        <ele>162.81745910644</ele>
        <time>2011-09-03T07:52:31Z</time>
      </trkpt>
      <trkpt lat="43.46439" lon="6.87995">
        <ele>161.99914550781</ele>
        <time>2011-09-03T07:52:39Z</time>
      </trkpt>
      <trkpt lat="43.46439" lon="6.87993">
        <ele>161.21208190918</ele>
        <time>2011-09-03T07:52:46Z</time>
      </trkpt>
      <trkpt lat="43.4644" lon="6.87991">
        <ele>160.55996704102</ele>
        <time>2011-09-03T07:52:51Z</time>
      </trkpt>
      <trkpt lat="43.46441" lon="6.87992">
        <ele>160.9140625</ele>
        <time>2011-09-03T07:53:10Z</time>
      </trkpt>
      <trkpt lat="43.46442" lon="6.87993">
        <ele>161.25567626953</ele>
        <time>2011-09-03T07:53:20Z</time>
      </trkpt>
      <trkpt lat="43.46442" lon="6.87994">
        <ele>161.73147583008</ele>
        <time>2011-09-03T07:53:25Z</time>
      </trkpt>
      <trkpt lat="43.46441" lon="6.87996">
        <ele>162.36363220215</ele>
        <time>2011-09-03T07:53:38Z</time>
      </trkpt>
      <trkpt lat="43.46441" lon="6.87994">
        <ele>161.85943603516</ele>
        <time>2011-09-03T07:53:46Z</time>
      </trkpt>
      <trkpt lat="43.46441" lon="6.87995">
        <ele>161.9549407959</ele>
        <time>2011-09-03T07:53:52Z</time>
      </trkpt>
      <trkpt lat="43.46441" lon="6.87995">
        <ele>162.13468933106</ele>
        <time>2011-09-03T07:54:01Z</time>
      </trkpt>
      <trkpt lat="43.46441" lon="6.87996">
        <ele>162.43994140625</ele>
        <time>2011-09-03T07:54:17Z</time>
      </trkpt>
      <trkpt lat="43.4644" lon="6.88">
        <ele>164.09715270996</ele>
        <time>2011-09-03T07:54:26Z</time>
      </trkpt>
      <trkpt lat="43.46441" lon="6.88001">
        <ele>164.38153076172</ele>
        <time>2011-09-03T07:54:31Z</time>
      </trkpt>
      <trkpt lat="43.46443" lon="6.88003">
        <ele>165.34239196777</ele>
        <time>2011-09-03T07:54:42Z</time>
      </trkpt>
      <trkpt lat="43.46442" lon="6.88002">
        <ele>164.91719055176</ele>
        <time>2011-09-03T07:54:50Z</time>
      </trkpt>
      <trkpt lat="43.46442" lon="6.88001">
        <ele>164.72840881348</ele>
        <time>2011-09-03T07:54:52Z</time>
      </trkpt>
      <trkpt lat="43.46442" lon="6.88001">
        <ele>164.62353515625</ele>
        <time>2011-09-03T07:54:53Z</time>
      </trkpt>
      <trkpt lat="43.46442" lon="6.88001">
        <ele>164.53962707519</ele>
        <time>2011-09-03T07:54:54Z</time>
      </trkpt>
      <trkpt lat="43.46442" lon="6.88">
        <ele>164.16206359863</ele>
        <time>2011-09-03T07:54:59Z</time>
      </trkpt>
      <trkpt lat="43.46442" lon="6.88">
        <ele>164.07815551758</ele>
        <time>2011-09-03T07:55:00Z</time>
      </trkpt>
      <trkpt lat="43.46442" lon="6.87999">
        <ele>163.61563110352</ele>
        <time>2011-09-03T07:55:11Z</time>
      </trkpt>
      <trkpt lat="43.46442" lon="6.87998">
        <ele>163.31111145019</ele>
        <time>2011-09-03T07:55:21Z</time>
      </trkpt>
      <trkpt lat="43.46442" lon="6.87998">
        <ele>163.2159576416</ele>
        <time>2011-09-03T07:55:23Z</time>
      </trkpt>
      <trkpt lat="43.46442" lon="6.87998">
        <ele>163.19692993164</ele>
        <time>2011-09-03T07:55:24Z</time>
      </trkpt>
      <trkpt lat="43.46441" lon="6.87996">
        <ele>162.53533935547</ele>
        <time>2011-09-03T07:55:33Z</time>
      </trkpt>
      <trkpt lat="43.46441" lon="6.87996">
        <ele>162.5544128418</ele>
        <time>2011-09-03T07:55:39Z</time>
      </trkpt>
      <trkpt lat="43.46441" lon="6.87996">
        <ele>162.37519836426</ele>
        <time>2011-09-03T07:55:42Z</time>
      </trkpt>
      <trkpt lat="43.46441" lon="6.87995">
        <ele>162.32939147949</ele>
        <time>2011-09-03T07:55:44Z</time>
      </trkpt>
      <trkpt lat="43.4644" lon="6.87994">
        <ele>161.68980407715</ele>
        <time>2011-09-03T07:55:52Z</time>
      </trkpt>
      <trkpt lat="43.4644" lon="6.87992">
        <ele>161.11531066894</ele>
        <time>2011-09-03T07:55:58Z</time>
      </trkpt>
      <trkpt lat="43.46439" lon="6.87987">
        <ele>159.08122253418</ele>
        <time>2011-09-03T07:56:01Z</time>
      </trkpt>
      <trkpt lat="43.46431" lon="6.87955">
        <ele>140.59857177734</ele>
        <time>2011-09-03T07:56:09Z</time>
      </trkpt>
      <trkpt lat="43.46423" lon="6.87934">
        <ele>126.07873535156</ele>
        <time>2011-09-03T07:56:12Z</time>
      </trkpt>
      <trkpt lat="43.46407" lon="6.87904">
        <ele>109.07131195068</ele>
        <time>2011-09-03T07:56:17Z</time>
      </trkpt>
      <trkpt lat="43.46387" lon="6.87889">
        <ele>99.881385803223</ele>
        <time>2011-09-03T07:56:21Z</time>
      </trkpt>
      <trkpt lat="43.46373" lon="6.87889">
        <ele>98.233749389648</ele>
        <time>2011-09-03T07:56:24Z</time>
      </trkpt>
      <trkpt lat="43.46364" lon="6.87891">
        <ele>97.977409362793</ele>
        <time>2011-09-03T07:56:26Z</time>
      </trkpt>
      <trkpt lat="43.46347" lon="6.87896">
        <ele>100.71820831299</ele>
        <time>2011-09-03T07:56:29Z</time>
      </trkpt>
      <trkpt lat="43.46318" lon="6.87909">
        <ele>105.10636901856</ele>
        <time>2011-09-03T07:56:34Z</time>
      </trkpt>
      <trkpt lat="43.46303" lon="6.87918">
        <ele>106.15280151367</ele>
        <time>2011-09-03T07:56:37Z</time>
      </trkpt>
      <trkpt lat="43.46291" lon="6.87922">
        <ele>106.45492553711</ele>
        <time>2011-09-03T07:56:39Z</time>
      </trkpt>
      <trkpt lat="43.46274" lon="6.87932">
        <ele>108.13034057617</ele>
        <time>2011-09-03T07:56:43Z</time>
      </trkpt>
      <trkpt lat="43.46252" lon="6.8794">
        <ele>108.59725952148</ele>
        <time>2011-09-03T07:56:48Z</time>
      </trkpt>
      <trkpt lat="43.46249" lon="6.87942">
        <ele>109.04671478272</ele>
        <time>2011-09-03T07:56:49Z</time>
      </trkpt>
      <trkpt lat="43.46241" lon="6.87948">
        <ele>108.96598815918</ele>
        <time>2011-09-03T07:56:51Z</time>
      </trkpt>
      <trkpt lat="43.46222" lon="6.87949">
        <ele>104.4302444458</ele>
        <time>2011-09-03T07:56:56Z</time>
      </trkpt>
      <trkpt lat="43.46203" lon="6.87957">
        <ele>102.85317993164</ele>
        <time>2011-09-03T07:57:00Z</time>
      </trkpt>
      <trkpt lat="43.46187" lon="6.87969">
        <ele>102.68795013428</ele>
        <time>2011-09-03T07:57:03Z</time>
      </trkpt>
      <trkpt lat="43.46177" lon="6.87972">
        <ele>101.88723754883</ele>
        <time>2011-09-03T07:57:05Z</time>
      </trkpt>
      <trkpt lat="43.46158" lon="6.87984">
        <ele>96.667747497559</ele>
        <time>2011-09-03T07:57:09Z</time>
      </trkpt>
      <trkpt lat="43.46149" lon="6.87989">
        <ele>91.60758972168</ele>
        <time>2011-09-03T07:57:11Z</time>
      </trkpt>
      <trkpt lat="43.46135" lon="6.88004">
        <ele>86.675109863281</ele>
        <time>2011-09-03T07:57:15Z</time>
      </trkpt>
      <trkpt lat="43.46123" lon="6.88015">
        <ele>84.360000610352</ele>
        <time>2011-09-03T07:57:19Z</time>
      </trkpt>
      <trkpt lat="43.46115" lon="6.88015">
        <ele>81.872062683105</ele>
        <time>2011-09-03T07:57:22Z</time>
      </trkpt>
      <trkpt lat="43.46112" lon="6.88015">
        <ele>80.743385314941</ele>
        <time>2011-09-03T07:57:26Z</time>
      </trkpt>
      <trkpt lat="43.46112" lon="6.88016">
        <ele>81.0068359375</ele>
        <time>2011-09-03T07:57:35Z</time>
      </trkpt>
      <trkpt lat="43.46112" lon="6.88016">
        <ele>80.903167724609</ele>
        <time>2011-09-03T07:57:44Z</time>
      </trkpt>
      <trkpt lat="43.46111" lon="6.88016">
        <ele>80.223083496094</ele>
        <time>2011-09-03T07:57:53Z</time>
      </trkpt>
      <trkpt lat="43.4611" lon="6.88018">
        <ele>80.039390563965</ele>
        <time>2011-09-03T07:57:57Z</time>
      </trkpt>
      <trkpt lat="43.4611" lon="6.88017">
        <ele>80.00422668457</ele>
        <time>2011-09-03T07:58:05Z</time>
      </trkpt>
      <trkpt lat="43.4611" lon="6.88016">
        <ele>79.96516418457</ele>
        <time>2011-09-03T07:58:08Z</time>
      </trkpt>
      <trkpt lat="43.46111" lon="6.88014">
        <ele>80.144996643066</ele>
        <time>2011-09-03T07:58:12Z</time>
      </trkpt>
      <trkpt lat="43.46111" lon="6.88015">
        <ele>80.607963562012</ele>
        <time>2011-09-03T07:58:26Z</time>
      </trkpt>
      <trkpt lat="43.46112" lon="6.88013">
        <ele>80.894325256348</ele>
        <time>2011-09-03T07:58:30Z</time>
      </trkpt>
      <trkpt lat="43.46112" lon="6.88013">
        <ele>80.875915527344</ele>
        <time>2011-09-03T07:58:32Z</time>
      </trkpt>
      <trkpt lat="43.46112" lon="6.88012">
        <ele>80.869781494141</ele>
        <time>2011-09-03T07:58:33Z</time>
      </trkpt>
      <trkpt lat="43.46112" lon="6.88013">
        <ele>80.643112182617</ele>
        <time>2011-09-03T07:58:41Z</time>
      </trkpt>
      <trkpt lat="43.46111" lon="6.88014">
        <ele>80.548034667969</ele>
        <time>2011-09-03T07:58:48Z</time>
      </trkpt>
      <trkpt lat="43.46111" lon="6.88014">
        <ele>80.565658569336</ele>
        <time>2011-09-03T07:58:58Z</time>
      </trkpt>
      <trkpt lat="43.46112" lon="6.88014">
        <ele>80.685821533203</ele>
        <time>2011-09-03T07:59:06Z</time>
      </trkpt>
      <trkpt lat="43.46112" lon="6.88014">
        <ele>80.68953704834</ele>
        <time>2011-09-03T07:59:09Z</time>
      </trkpt>
      <trkpt lat="43.46109" lon="6.88019">
        <ele>79.62043762207</ele>
        <time>2011-09-03T07:59:30Z</time>
      </trkpt>
      <trkpt lat="43.46109" lon="6.88019">
        <ele>79.635437011719</ele>
        <time>2011-09-03T07:59:32Z</time>
      </trkpt>
      <trkpt lat="43.4611" lon="6.88021">
        <ele>80.174179077148</ele>
        <time>2011-09-03T07:59:54Z</time>
      </trkpt>
      <trkpt lat="43.46111" lon="6.88021">
        <ele>80.412712097168</ele>
        <time>2011-09-03T07:59:58Z</time>
      </trkpt>
      <trkpt lat="43.46111" lon="6.88021">
        <ele>80.403411865234</ele>
        <time>2011-09-03T08:00:10Z</time>
      </trkpt>
      <trkpt lat="43.46111" lon="6.88019">
        <ele>80.567733764648</ele>
        <time>2011-09-03T08:00:19Z</time>
      </trkpt>
      <trkpt lat="43.4611" lon="6.88016">
        <ele>79.98078918457</ele>
        <time>2011-09-03T08:00:41Z</time>
      </trkpt>
      <trkpt lat="43.4611" lon="6.88015">
        <ele>79.681159973145</ele>
        <time>2011-09-03T08:00:56Z</time>
      </trkpt>
      <trkpt lat="43.46099" lon="6.88016">
        <ele>72.673774719238</ele>
        <time>2011-09-03T08:01:00Z</time>
      </trkpt>
      <trkpt lat="43.46084" lon="6.88009">
        <ele>62.24174118042</ele>
        <time>2011-09-03T08:01:04Z</time>
      </trkpt>
      <trkpt lat="43.46075" lon="6.88011">
        <ele>56.649635314941</ele>
        <time>2011-09-03T08:01:07Z</time>
      </trkpt>
      <trkpt lat="43.46078" lon="6.88006">
        <ele>57.92142868042</ele>
        <time>2011-09-03T08:01:11Z</time>
      </trkpt>
      <trkpt lat="43.46092" lon="6.88002">
        <ele>66.465202331543</ele>
        <time>2011-09-03T08:01:15Z</time>
      </trkpt>
      <trkpt lat="43.46098" lon="6.87993">
        <ele>68.625129699707</ele>
        <time>2011-09-03T08:01:18Z</time>
      </trkpt>
      <trkpt lat="43.46102" lon="6.87988">
        <ele>69.801940917969</ele>
        <time>2011-09-03T08:01:20Z</time>
      </trkpt>
      <trkpt lat="43.46112" lon="6.87986">
        <ele>75.52815246582</ele>
        <time>2011-09-03T08:01:23Z</time>
      </trkpt>
      <trkpt lat="43.46117" lon="6.87962">
        <ele>68.591659545898</ele>
        <time>2011-09-03T08:01:27Z</time>
      </trkpt>
      <trkpt lat="43.4613" lon="6.87935">
        <ele>66.402854919434</ele>
        <time>2011-09-03T08:01:32Z</time>
      </trkpt>
      <trkpt lat="43.46134" lon="6.87923">
        <ele>64.188423156738</ele>
        <time>2011-09-03T08:01:34Z</time>
      </trkpt>
      <trkpt lat="43.46141" lon="6.87898">
        <ele>59.734607696533</ele>
        <time>2011-09-03T08:01:39Z</time>
      </trkpt>
      <trkpt lat="43.46143" lon="6.87892">
        <ele>58.667911529541</ele>
        <time>2011-09-03T08:01:40Z</time>
      </trkpt>
      <trkpt lat="43.46149" lon="6.87872">
        <ele>51.877193450928</ele>
        <time>2011-09-03T08:01:44Z</time>
      </trkpt>
      <trkpt lat="43.46152" lon="6.87858">
        <ele>46.137718200684</ele>
        <time>2011-09-03T08:01:49Z</time>
      </trkpt>
      <trkpt lat="43.46148" lon="6.87858">
        <ele>44.365097045898</ele>
        <time>2011-09-03T08:01:53Z</time>
      </trkpt>
      <trkpt lat="43.46141" lon="6.87861">
        <ele>40.948925018311</ele>
        <time>2011-09-03T08:01:57Z</time>
      </trkpt>
      <trkpt lat="43.4614" lon="6.87859">
        <ele>40.320571899414</ele>
        <time>2011-09-03T08:02:03Z</time>
      </trkpt>
      <trkpt lat="43.4614" lon="6.87858">
        <ele>40.49068069458</ele>
        <time>2011-09-03T08:02:13Z</time>
      </trkpt>
      <trkpt lat="43.46139" lon="6.87859">
        <ele>40.12589263916</ele>
        <time>2011-09-03T08:02:27Z</time>
      </trkpt>
      <trkpt lat="43.46139" lon="6.87859">
        <ele>39.995483398438</ele>
        <time>2011-09-03T08:02:32Z</time>
      </trkpt>
      <trkpt lat="43.46139" lon="6.87859">
        <ele>39.995483398438</ele>
        <time>2011-09-03T08:02:35Z</time>
      </trkpt>
      <trkpt lat="43.46138" lon="6.87859">
        <ele>39.981750488281</ele>
        <time>2011-09-03T08:02:36Z</time>
      </trkpt>
      <trkpt lat="43.46138" lon="6.87859">
        <ele>39.968017578125</ele>
        <time>2011-09-03T08:02:44Z</time>
      </trkpt>
      <trkpt lat="43.46137" lon="6.87859">
        <ele>39.926818847656</ele>
        <time>2011-09-03T08:03:01Z</time>
      </trkpt>
      <trkpt lat="43.46136" lon="6.87859">
        <ele>39.9130859375</ele>
        <time>2011-09-03T08:03:05Z</time>
      </trkpt>
      <trkpt lat="43.46136" lon="6.87859">
        <ele>39.899353027344</ele>
        <time>2011-09-03T08:03:07Z</time>
      </trkpt>
      <trkpt lat="43.46136" lon="6.87859">
        <ele>39.9130859375</ele>
        <time>2011-09-03T08:03:12Z</time>
      </trkpt>
      <trkpt lat="43.46137" lon="6.87859">
        <ele>39.940551757812</ele>
        <time>2011-09-03T08:03:24Z</time>
      </trkpt>
      <trkpt lat="43.46138" lon="6.87858">
        <ele>39.968017578125</ele>
        <time>2011-09-03T08:03:38Z</time>
      </trkpt>
      <trkpt lat="43.46138" lon="6.87858">
        <ele>39.954284667969</ele>
        <time>2011-09-03T08:03:42Z</time>
      </trkpt>
      <trkpt lat="43.46138" lon="6.87858">
        <ele>39.954284667969</ele>
        <time>2011-09-03T08:03:44Z</time>
      </trkpt>
      <trkpt lat="43.46137" lon="6.87858">
        <ele>39.940551757812</ele>
        <time>2011-09-03T08:03:47Z</time>
      </trkpt>
      <trkpt lat="43.46138" lon="6.87858">
        <ele>39.954284667969</ele>
        <time>2011-09-03T08:03:53Z</time>
      </trkpt>
      <trkpt lat="43.46141" lon="6.87856">
        <ele>41.126399993896</ele>
        <time>2011-09-03T08:04:09Z</time>
      </trkpt>
      <trkpt lat="43.46141" lon="6.87856">
        <ele>41.114604949951</ele>
        <time>2011-09-03T08:04:13Z</time>
      </trkpt>
      <trkpt lat="43.46141" lon="6.87856">
        <ele>41.119319915771</ele>
        <time>2011-09-03T08:04:16Z</time>
      </trkpt>
      <trkpt lat="43.46141" lon="6.87856">
        <ele>40.783748626709</ele>
        <time>2011-09-03T08:04:27Z</time>
      </trkpt>
      <trkpt lat="43.46143" lon="6.87853">
        <ele>41.579154968262</ele>
        <time>2011-09-03T08:04:35Z</time>
      </trkpt>
      <trkpt lat="43.46154" lon="6.87838">
        <ele>41.507934570312</ele>
        <time>2011-09-03T08:04:43Z</time>
      </trkpt>
      <trkpt lat="43.46164" lon="6.87825">
        <ele>40</ele>
        <time>2011-09-03T08:04:49Z</time>
      </trkpt>
      <trkpt lat="43.46171" lon="6.87823">
        <ele>41.833927154541</ele>
        <time>2011-09-03T08:04:53Z</time>
      </trkpt>
      <trkpt lat="43.46173" lon="6.87822">
        <ele>42.520114898682</ele>
        <time>2011-09-03T08:04:54Z</time>
      </trkpt>
      <trkpt lat="43.46195" lon="6.87813">
        <ele>48.02116394043</ele>
        <time>2011-09-03T08:05:03Z</time>
      </trkpt>
      <trkpt lat="43.46209" lon="6.87805">
        <ele>52.404624938965</ele>
        <time>2011-09-03T08:05:09Z</time>
      </trkpt>
      <trkpt lat="43.46218" lon="6.878">
        <ele>55.383571624756</ele>
        <time>2011-09-03T08:05:13Z</time>
      </trkpt>
      <trkpt lat="43.46246" lon="6.87786">
        <ele>60.534782409668</ele>
        <time>2011-09-03T08:05:24Z</time>
      </trkpt>
      <trkpt lat="43.46266" lon="6.87771">
        <ele>59.354343414307</ele>
        <time>2011-09-03T08:05:32Z</time>
      </trkpt>
      <trkpt lat="43.46284" lon="6.87755">
        <ele>57.214294433594</ele>
        <time>2011-09-03T08:05:40Z</time>
      </trkpt>
      <trkpt lat="43.46302" lon="6.87734">
        <ele>52.404949188232</ele>
        <time>2011-09-03T08:05:48Z</time>
      </trkpt>
      <trkpt lat="43.46318" lon="6.87712">
        <ele>48.609153747559</ele>
        <time>2011-09-03T08:05:56Z</time>
      </trkpt>
      <trkpt lat="43.46337" lon="6.877">
        <ele>48.173526763916</ele>
        <time>2011-09-03T08:06:02Z</time>
      </trkpt>
      <trkpt lat="43.46364" lon="6.8769">
        <ele>47.670486450195</ele>
        <time>2011-09-03T08:06:09Z</time>
      </trkpt>
      <trkpt lat="43.46389" lon="6.87684">
        <ele>48.244476318359</ele>
        <time>2011-09-03T08:06:15Z</time>
      </trkpt>
      <trkpt lat="43.46408" lon="6.87672">
        <ele>49.425506591797</ele>
        <time>2011-09-03T08:06:20Z</time>
      </trkpt>
      <trkpt lat="43.46419" lon="6.87655">
        <ele>50.955123901367</ele>
        <time>2011-09-03T08:06:25Z</time>
      </trkpt>
      <trkpt lat="43.46426" lon="6.87633">
        <ele>53.059070587158</ele>
        <time>2011-09-03T08:06:32Z</time>
      </trkpt>
      <trkpt lat="43.4643" lon="6.87611">
        <ele>54.453174591064</ele>
        <time>2011-09-03T08:06:39Z</time>
      </trkpt>
      <trkpt lat="43.46434" lon="6.87587">
        <ele>55.498802185059</ele>
        <time>2011-09-03T08:06:47Z</time>
      </trkpt>
      <trkpt lat="43.46445" lon="6.87559">
        <ele>57.785736083984</ele>
        <time>2011-09-03T08:06:57Z</time>
      </trkpt>
      <trkpt lat="43.4646" lon="6.87551">
        <ele>58.626094818115</ele>
        <time>2011-09-03T08:07:03Z</time>
      </trkpt>
      <trkpt lat="43.46486" lon="6.87554">
        <ele>59.492431640625</ele>
        <time>2011-09-03T08:07:10Z</time>
      </trkpt>
      <trkpt lat="43.46518" lon="6.87563">
        <ele>59.902206420898</ele>
        <time>2011-09-03T08:07:19Z</time>
      </trkpt>
      <trkpt lat="43.46544" lon="6.87575">
        <ele>60</ele>
        <time>2011-09-03T08:07:27Z</time>
      </trkpt>
      <trkpt lat="43.46566" lon="6.87589">
        <ele>60</ele>
        <time>2011-09-03T08:07:35Z</time>
      </trkpt>
      <trkpt lat="43.4658" lon="6.87606">
        <ele>60</ele>
        <time>2011-09-03T08:07:42Z</time>
      </trkpt>
      <trkpt lat="43.46593" lon="6.87614">
        <ele>60</ele>
        <time>2011-09-03T08:07:47Z</time>
      </trkpt>
      <trkpt lat="43.46614" lon="6.87621">
        <ele>60.191230773926</ele>
        <time>2011-09-03T08:07:54Z</time>
      </trkpt>
      <trkpt lat="43.46636" lon="6.87633">
        <ele>63.548679351807</ele>
        <time>2011-09-03T08:08:00Z</time>
      </trkpt>
      <trkpt lat="43.46654" lon="6.87641">
        <ele>66.217651367188</ele>
        <time>2011-09-03T08:08:05Z</time>
      </trkpt>
      <trkpt lat="43.46679" lon="6.87652">
        <ele>69.489212036133</ele>
        <time>2011-09-03T08:08:11Z</time>
      </trkpt>
      <trkpt lat="43.46716" lon="6.8767">
        <ele>64.297721862793</ele>
        <time>2011-09-03T08:08:20Z</time>
      </trkpt>
      <trkpt lat="43.46724" lon="6.87676">
        <ele>63.3928565979</ele>
        <time>2011-09-03T08:08:22Z</time>
      </trkpt>
      <trkpt lat="43.46739" lon="6.87686">
        <ele>62.979724884033</ele>
        <time>2011-09-03T08:08:27Z</time>
      </trkpt>
      <trkpt lat="43.4675" lon="6.87692">
        <ele>60</ele>
        <time>2011-09-03T08:08:31Z</time>
      </trkpt>
      <trkpt lat="43.46766" lon="6.87698">
        <ele>61.572250366211</ele>
        <time>2011-09-03T08:08:36Z</time>
      </trkpt>
      <trkpt lat="43.46769" lon="6.877">
        <ele>62.177394866943</ele>
        <time>2011-09-03T08:08:37Z</time>
      </trkpt>
      <trkpt lat="43.46793" lon="6.87723">
        <ele>63.263725280762</ele>
        <time>2011-09-03T08:08:45Z</time>
      </trkpt>
      <trkpt lat="43.46817" lon="6.87737">
        <ele>61.935848236084</ele>
        <time>2011-09-03T08:08:52Z</time>
      </trkpt>
      <trkpt lat="43.46834" lon="6.87749">
        <ele>60</ele>
        <time>2011-09-03T08:08:59Z</time>
      </trkpt>
      <trkpt lat="43.46851" lon="6.87762">
        <ele>60</ele>
        <time>2011-09-03T08:09:06Z</time>
      </trkpt>
      <trkpt lat="43.46866" lon="6.87771">
        <ele>60</ele>
        <time>2011-09-03T08:09:13Z</time>
      </trkpt>
      <trkpt lat="43.4688" lon="6.87779">
        <ele>60</ele>
        <time>2011-09-03T08:09:20Z</time>
      </trkpt>
      <trkpt lat="43.46888" lon="6.8779">
        <ele>60</ele>
        <time>2011-09-03T08:09:25Z</time>
      </trkpt>
      <trkpt lat="43.46895" lon="6.878">
        <ele>60</ele>
        <time>2011-09-03T08:09:30Z</time>
      </trkpt>
      <trkpt lat="43.46903" lon="6.87813">
        <ele>60</ele>
        <time>2011-09-03T08:09:36Z</time>
      </trkpt>
      <trkpt lat="43.4691" lon="6.87824">
        <ele>60</ele>
        <time>2011-09-03T08:09:42Z</time>
      </trkpt>
      <trkpt lat="43.4692" lon="6.87838">
        <ele>60</ele>
        <time>2011-09-03T08:09:49Z</time>
      </trkpt>
      <trkpt lat="43.46931" lon="6.87856">
        <ele>60</ele>
        <time>2011-09-03T08:09:57Z</time>
      </trkpt>
      <trkpt lat="43.46945" lon="6.87871">
        <ele>60</ele>
        <time>2011-09-03T08:10:05Z</time>
      </trkpt>
      <trkpt lat="43.46965" lon="6.87887">
        <ele>60</ele>
        <time>2011-09-03T08:10:14Z</time>
      </trkpt>
      <trkpt lat="43.46988" lon="6.87902">
        <ele>60</ele>
        <time>2011-09-03T08:10:24Z</time>
      </trkpt>
      <trkpt lat="43.47005" lon="6.87916">
        <ele>60</ele>
        <time>2011-09-03T08:10:32Z</time>
      </trkpt>
      <trkpt lat="43.47015" lon="6.87933">
        <ele>60</ele>
        <time>2011-09-03T08:10:39Z</time>
      </trkpt>
      <trkpt lat="43.47017" lon="6.8795">
        <ele>62.635231018066</ele>
        <time>2011-09-03T08:10:44Z</time>
      </trkpt>
      <trkpt lat="43.47024" lon="6.87971">
        <ele>69.650260925293</ele>
        <time>2011-09-03T08:10:51Z</time>
      </trkpt>
      <trkpt lat="43.47033" lon="6.87985">
        <ele>74.146118164062</ele>
        <time>2011-09-03T08:10:56Z</time>
      </trkpt>
      <trkpt lat="43.47049" lon="6.87996">
        <ele>75.519409179688</ele>
        <time>2011-09-03T08:11:01Z</time>
      </trkpt>
      <trkpt lat="43.47067" lon="6.87997">
        <ele>75.70092010498</ele>
        <time>2011-09-03T08:11:06Z</time>
      </trkpt>
      <trkpt lat="43.4709" lon="6.87986">
        <ele>69.13419342041</ele>
        <time>2011-09-03T08:11:13Z</time>
      </trkpt>
      <trkpt lat="43.47107" lon="6.87969">
        <ele>60</ele>
        <time>2011-09-03T08:11:18Z</time>
      </trkpt>
      <trkpt lat="43.47128" lon="6.87937">
        <ele>60</ele>
        <time>2011-09-03T08:11:25Z</time>
      </trkpt>
      <trkpt lat="43.47133" lon="6.87927">
        <ele>60</ele>
        <time>2011-09-03T08:11:27Z</time>
      </trkpt>
      <trkpt lat="43.47143" lon="6.87914">
        <ele>60</ele>
        <time>2011-09-03T08:11:30Z</time>
      </trkpt>
      <trkpt lat="43.47158" lon="6.87905">
        <ele>60</ele>
        <time>2011-09-03T08:11:34Z</time>
      </trkpt>
      <trkpt lat="43.47169" lon="6.87902">
        <ele>60</ele>
        <time>2011-09-03T08:11:37Z</time>
      </trkpt>
      <trkpt lat="43.47186" lon="6.87886">
        <ele>60</ele>
        <time>2011-09-03T08:11:43Z</time>
      </trkpt>
      <trkpt lat="43.47187" lon="6.87882">
        <ele>60</ele>
        <time>2011-09-03T08:11:44Z</time>
      </trkpt>
      <trkpt lat="43.47206" lon="6.87854">
        <ele>60</ele>
        <time>2011-09-03T08:11:52Z</time>
      </trkpt>
      <trkpt lat="43.47219" lon="6.87863">
        <ele>60</ele>
        <time>2011-09-03T08:11:56Z</time>
      </trkpt>
      <trkpt lat="43.47223" lon="6.87871">
        <ele>60</ele>
        <time>2011-09-03T08:11:58Z</time>
      </trkpt>
      <trkpt lat="43.47219" lon="6.87899">
        <ele>60</ele>
        <time>2011-09-03T08:12:04Z</time>
      </trkpt>
      <trkpt lat="43.47223" lon="6.87917">
        <ele>60</ele>
        <time>2011-09-03T08:12:09Z</time>
      </trkpt>
      <trkpt lat="43.47237" lon="6.87943">
        <ele>60</ele>
        <time>2011-09-03T08:12:17Z</time>
      </trkpt>
      <trkpt lat="43.4725" lon="6.87971">
        <ele>60.068687438965</ele>
        <time>2011-09-03T08:12:25Z</time>
      </trkpt>
      <trkpt lat="43.47254" lon="6.87999">
        <ele>60</ele>
        <time>2011-09-03T08:12:32Z</time>
      </trkpt>
      <trkpt lat="43.47254" lon="6.88026">
        <ele>72.411514282227</ele>
        <time>2011-09-03T08:12:39Z</time>
      </trkpt>
      <trkpt lat="43.47248" lon="6.88057">
        <ele>91.409278869629</ele>
        <time>2011-09-03T08:12:47Z</time>
      </trkpt>
      <trkpt lat="43.47252" lon="6.88081">
        <ele>98.131622314453</ele>
        <time>2011-09-03T08:12:52Z</time>
      </trkpt>
      <trkpt lat="43.4726" lon="6.88093">
        <ele>95.872161865234</ele>
        <time>2011-09-03T08:12:55Z</time>
      </trkpt>
      <trkpt lat="43.47282" lon="6.88101">
        <ele>86.740737915039</ele>
        <time>2011-09-03T08:13:00Z</time>
      </trkpt>
      <trkpt lat="43.47305" lon="6.88091">
        <ele>70.341926574707</ele>
        <time>2011-09-03T08:13:06Z</time>
      </trkpt>
      <trkpt lat="43.47315" lon="6.88072">
        <ele>62.722030639648</ele>
        <time>2011-09-03T08:13:10Z</time>
      </trkpt>
      <trkpt lat="43.47321" lon="6.88057">
        <ele>60.127983093262</ele>
        <time>2011-09-03T08:13:13Z</time>
      </trkpt>
      <trkpt lat="43.47339" lon="6.88035">
        <ele>60</ele>
        <time>2011-09-03T08:13:20Z</time>
      </trkpt>
      <trkpt lat="43.47353" lon="6.88025">
        <ele>60</ele>
        <time>2011-09-03T08:13:25Z</time>
      </trkpt>
      <trkpt lat="43.47369" lon="6.88024">
        <ele>60</ele>
        <time>2011-09-03T08:13:30Z</time>
      </trkpt>
      <trkpt lat="43.47385" lon="6.8803">
        <ele>60</ele>
        <time>2011-09-03T08:13:36Z</time>
      </trkpt>
      <trkpt lat="43.47392" lon="6.8805">
        <ele>60</ele>
        <time>2011-09-03T08:13:41Z</time>
      </trkpt>
      <trkpt lat="43.47392" lon="6.88068">
        <ele>60</ele>
        <time>2011-09-03T08:13:45Z</time>
      </trkpt>
      <trkpt lat="43.47388" lon="6.88098">
        <ele>60</ele>
        <time>2011-09-03T08:13:51Z</time>
      </trkpt>
      <trkpt lat="43.47377" lon="6.88126">
        <ele>60</ele>
        <time>2011-09-03T08:13:57Z</time>
      </trkpt>
      <trkpt lat="43.47371" lon="6.88158">
        <ele>60</ele>
        <time>2011-09-03T08:14:04Z</time>
      </trkpt>
      <trkpt lat="43.47368" lon="6.88169">
        <ele>60</ele>
        <time>2011-09-03T08:14:07Z</time>
      </trkpt>
      <trkpt lat="43.47368" lon="6.88178">
        <ele>60</ele>
        <time>2011-09-03T08:14:13Z</time>
      </trkpt>
      <trkpt lat="43.47367" lon="6.88179">
        <ele>60</ele>
        <time>2011-09-03T08:14:19Z</time>
      </trkpt>
      <trkpt lat="43.47367" lon="6.8818">
        <ele>60</ele>
        <time>2011-09-03T08:14:27Z</time>
      </trkpt>
      <trkpt lat="43.47367" lon="6.8818">
        <ele>60</ele>
        <time>2011-09-03T08:14:32Z</time>
      </trkpt>
      <trkpt lat="43.47368" lon="6.8818">
        <ele>60</ele>
        <time>2011-09-03T08:14:41Z</time>
      </trkpt>
      <trkpt lat="43.47368" lon="6.88182">
        <ele>60</ele>
        <time>2011-09-03T08:14:52Z</time>
      </trkpt>
      <trkpt lat="43.47368" lon="6.88182">
        <ele>60</ele>
        <time>2011-09-03T08:15:01Z</time>
      </trkpt>
      <trkpt lat="43.47368" lon="6.88178">
        <ele>60</ele>
        <time>2011-09-03T08:15:11Z</time>
      </trkpt>
      <trkpt lat="43.47369" lon="6.88175">
        <ele>60</ele>
        <time>2011-09-03T08:15:19Z</time>
      </trkpt>
      <trkpt lat="43.47368" lon="6.88175">
        <ele>60</ele>
        <time>2011-09-03T08:15:31Z</time>
      </trkpt>
      <trkpt lat="43.47367" lon="6.88175">
        <ele>60</ele>
        <time>2011-09-03T08:15:40Z</time>
      </trkpt>
      <trkpt lat="43.47367" lon="6.88175">
        <ele>60</ele>
        <time>2011-09-03T08:15:45Z</time>
      </trkpt>
      <trkpt lat="43.47367" lon="6.88176">
        <ele>60</ele>
        <time>2011-09-03T08:15:52Z</time>
      </trkpt>
      <trkpt lat="43.47367" lon="6.88176">
        <ele>60</ele>
        <time>2011-09-03T08:15:54Z</time>
      </trkpt>
      <trkpt lat="43.47367" lon="6.88176">
        <ele>60</ele>
        <time>2011-09-03T08:15:55Z</time>
      </trkpt>
      <trkpt lat="43.47368" lon="6.88176">
        <ele>60</ele>
        <time>2011-09-03T08:16:04Z</time>
      </trkpt>
      <trkpt lat="43.47368" lon="6.88176">
        <ele>60</ele>
        <time>2011-09-03T08:16:16Z</time>
      </trkpt>
      <trkpt lat="43.47368" lon="6.88177">
        <ele>60</ele>
        <time>2011-09-03T08:16:18Z</time>
      </trkpt>
      <trkpt lat="43.47368" lon="6.88178">
        <ele>60</ele>
        <time>2011-09-03T08:16:27Z</time>
      </trkpt>
      <trkpt lat="43.47367" lon="6.88178">
        <ele>60</ele>
        <time>2011-09-03T08:16:34Z</time>
      </trkpt>
      <trkpt lat="43.47368" lon="6.8818">
        <ele>60</ele>
        <time>2011-09-03T08:16:46Z</time>
      </trkpt>
      <trkpt lat="43.47368" lon="6.8818">
        <ele>60</ele>
        <time>2011-09-03T08:16:49Z</time>
      </trkpt>
      <trkpt lat="43.47368" lon="6.8818">
        <ele>60</ele>
        <time>2011-09-03T08:16:50Z</time>
      </trkpt>
      <trkpt lat="43.47368" lon="6.8818">
        <ele>60</ele>
        <time>2011-09-03T08:16:56Z</time>
      </trkpt>
      <trkpt lat="43.47369" lon="6.8818">
        <ele>60</ele>
        <time>2011-09-03T08:17:01Z</time>
      </trkpt>
      <trkpt lat="43.47367" lon="6.88178">
        <ele>60</ele>
        <time>2011-09-03T08:17:18Z</time>
      </trkpt>
      <trkpt lat="43.47368" lon="6.88178">
        <ele>60</ele>
        <time>2011-09-03T08:17:25Z</time>
      </trkpt>
      <trkpt lat="43.47368" lon="6.88178">
        <ele>60</ele>
        <time>2011-09-03T08:17:27Z</time>
      </trkpt>
      <trkpt lat="43.47366" lon="6.8818">
        <ele>60</ele>
        <time>2011-09-03T08:17:45Z</time>
      </trkpt>
      <trkpt lat="43.47366" lon="6.8818">
        <ele>60</ele>
        <time>2011-09-03T08:18:01Z</time>
      </trkpt>
      <trkpt lat="43.47366" lon="6.8818">
        <ele>60</ele>
        <time>2011-09-03T08:18:13Z</time>
      </trkpt>
      <trkpt lat="43.47366" lon="6.8818">
        <ele>60</ele>
        <time>2011-09-03T08:18:14Z</time>
      </trkpt>
      <trkpt lat="43.47366" lon="6.88181">
        <ele>60</ele>
        <time>2011-09-03T08:18:29Z</time>
      </trkpt>
      <trkpt lat="43.47367" lon="6.88181">
        <ele>60</ele>
        <time>2011-09-03T08:18:39Z</time>
      </trkpt>
      <trkpt lat="43.47367" lon="6.88181">
        <ele>60</ele>
        <time>2011-09-03T08:18:40Z</time>
      </trkpt>
      <trkpt lat="43.47368" lon="6.88182">
        <ele>60</ele>
        <time>2011-09-03T08:18:58Z</time>
      </trkpt>
      <trkpt lat="43.47367" lon="6.8818">
        <ele>60</ele>
        <time>2011-09-03T08:19:12Z</time>
      </trkpt>
      <trkpt lat="43.47367" lon="6.88179">
        <ele>60</ele>
        <time>2011-09-03T08:19:23Z</time>
      </trkpt>
      <trkpt lat="43.47367" lon="6.88178">
        <ele>60</ele>
        <time>2011-09-03T08:19:29Z</time>
      </trkpt>
      <trkpt lat="43.47368" lon="6.88176">
        <ele>60</ele>
        <time>2011-09-03T08:19:41Z</time>
      </trkpt>
      <trkpt lat="43.47366" lon="6.8818">
        <ele>60</ele>
        <time>2011-09-03T08:20:01Z</time>
      </trkpt>
      <trkpt lat="43.47366" lon="6.8818">
        <ele>60</ele>
        <time>2011-09-03T08:20:06Z</time>
      </trkpt>
      <trkpt lat="43.47367" lon="6.8818">
        <ele>60</ele>
        <time>2011-09-03T08:20:15Z</time>
      </trkpt>
      <trkpt lat="43.47367" lon="6.8818">
        <ele>60</ele>
        <time>2011-09-03T08:20:30Z</time>
      </trkpt>
      <trkpt lat="43.47368" lon="6.88178">
        <ele>60</ele>
        <time>2011-09-03T08:20:48Z</time>
      </trkpt>
      <trkpt lat="43.47368" lon="6.88179">
        <ele>60</ele>
        <time>2011-09-03T08:20:56Z</time>
      </trkpt>
      <trkpt lat="43.47366" lon="6.88179">
        <ele>60</ele>
        <time>2011-09-03T08:21:13Z</time>
      </trkpt>
      <trkpt lat="43.47369" lon="6.88179">
        <ele>60</ele>
        <time>2011-09-03T08:21:25Z</time>
      </trkpt>
      <trkpt lat="43.47369" lon="6.88179">
        <ele>60</ele>
        <time>2011-09-03T08:21:33Z</time>
      </trkpt>
      <trkpt lat="43.47369" lon="6.88179">
        <ele>60</ele>
        <time>2011-09-03T08:21:45Z</time>
      </trkpt>
      <trkpt lat="43.47368" lon="6.8818">
        <ele>60</ele>
        <time>2011-09-03T08:21:48Z</time>
      </trkpt>
      <trkpt lat="43.47368" lon="6.8818">
        <ele>60</ele>
        <time>2011-09-03T08:21:53Z</time>
      </trkpt>
      <trkpt lat="43.47368" lon="6.8818">
        <ele>60</ele>
        <time>2011-09-03T08:21:54Z</time>
      </trkpt>
      <trkpt lat="43.47368" lon="6.88185">
        <ele>60</ele>
        <time>2011-09-03T08:22:14Z</time>
      </trkpt>
      <trkpt lat="43.47369" lon="6.88204">
        <ele>60</ele>
        <time>2011-09-03T08:22:22Z</time>
      </trkpt>
      <trkpt lat="43.4737" lon="6.88225">
        <ele>60</ele>
        <time>2011-09-03T08:22:29Z</time>
      </trkpt>
      <trkpt lat="43.47367" lon="6.8825">
        <ele>60</ele>
        <time>2011-09-03T08:22:37Z</time>
      </trkpt>
      <trkpt lat="43.47363" lon="6.88273">
        <ele>60</ele>
        <time>2011-09-03T08:22:45Z</time>
      </trkpt>
      <trkpt lat="43.47359" lon="6.88294">
        <ele>60</ele>
        <time>2011-09-03T08:22:53Z</time>
      </trkpt>
      <trkpt lat="43.47357" lon="6.88315">
        <ele>60</ele>
        <time>2011-09-03T08:23:01Z</time>
      </trkpt>
      <trkpt lat="43.47356" lon="6.88335">
        <ele>60</ele>
        <time>2011-09-03T08:23:08Z</time>
      </trkpt>
      <trkpt lat="43.47355" lon="6.88359">
        <ele>60</ele>
        <time>2011-09-03T08:23:16Z</time>
      </trkpt>
      <trkpt lat="43.47348" lon="6.88382">
        <ele>60</ele>
        <time>2011-09-03T08:23:22Z</time>
      </trkpt>
      <trkpt lat="43.47338" lon="6.88403">
        <ele>60</ele>
        <time>2011-09-03T08:23:29Z</time>
      </trkpt>
      <trkpt lat="43.47326" lon="6.8842">
        <ele>60.949287414551</ele>
        <time>2011-09-03T08:23:36Z</time>
      </trkpt>
      <trkpt lat="43.47314" lon="6.88426">
        <ele>61.847255706787</ele>
        <time>2011-09-03T08:23:43Z</time>
      </trkpt>
      <trkpt lat="43.47304" lon="6.8843">
        <ele>62.5810546875</ele>
        <time>2011-09-03T08:23:49Z</time>
      </trkpt>
      <trkpt lat="43.47296" lon="6.88434">
        <ele>65.087287902832</ele>
        <time>2011-09-03T08:23:55Z</time>
      </trkpt>
      <trkpt lat="43.47288" lon="6.8844">
        <ele>66.779930114746</ele>
        <time>2011-09-03T08:24:02Z</time>
      </trkpt>
      <trkpt lat="43.47281" lon="6.88447">
        <ele>67.49439239502</ele>
        <time>2011-09-03T08:24:08Z</time>
      </trkpt>
      <trkpt lat="43.47273" lon="6.88458">
        <ele>69.677543640137</ele>
        <time>2011-09-03T08:24:16Z</time>
      </trkpt>
      <trkpt lat="43.47267" lon="6.88467">
        <ele>71.808174133301</ele>
        <time>2011-09-03T08:24:23Z</time>
      </trkpt>
      <trkpt lat="43.4726" lon="6.88474">
        <ele>74.165939331055</ele>
        <time>2011-09-03T08:24:29Z</time>
      </trkpt>
      <trkpt lat="43.47254" lon="6.8848">
        <ele>76.206855773926</ele>
        <time>2011-09-03T08:24:35Z</time>
      </trkpt>
      <trkpt lat="43.47247" lon="6.88491">
        <ele>77.719909667969</ele>
        <time>2011-09-03T08:24:43Z</time>
      </trkpt>
      <trkpt lat="43.47237" lon="6.885">
        <ele>80.413452148438</ele>
        <time>2011-09-03T08:24:51Z</time>
      </trkpt>
      <trkpt lat="43.47231" lon="6.8851">
        <ele>80.531585693359</ele>
        <time>2011-09-03T08:24:58Z</time>
      </trkpt>
      <trkpt lat="43.47229" lon="6.88523">
        <ele>78.042373657227</ele>
        <time>2011-09-03T08:25:05Z</time>
      </trkpt>
      <trkpt lat="43.47228" lon="6.88531">
        <ele>76.350135803223</ele>
        <time>2011-09-03T08:25:09Z</time>
      </trkpt>
      <trkpt lat="43.47224" lon="6.8854">
        <ele>77.121589660645</ele>
        <time>2011-09-03T08:25:15Z</time>
      </trkpt>
      <trkpt lat="43.47223" lon="6.88542">
        <ele>77.218139648438</ele>
        <time>2011-09-03T08:25:16Z</time>
      </trkpt>
      <trkpt lat="43.47215" lon="6.88551">
        <ele>78.930023193359</ele>
        <time>2011-09-03T08:25:24Z</time>
      </trkpt>
      <trkpt lat="43.47207" lon="6.88561">
        <ele>80.145446777344</ele>
        <time>2011-09-03T08:25:32Z</time>
      </trkpt>
      <trkpt lat="43.47203" lon="6.88575">
        <ele>78.42716217041</ele>
        <time>2011-09-03T08:25:40Z</time>
      </trkpt>
      <trkpt lat="43.47197" lon="6.88586">
        <ele>77.53645324707</ele>
        <time>2011-09-03T08:25:48Z</time>
      </trkpt>
      <trkpt lat="43.47189" lon="6.88596">
        <ele>79.42748260498</ele>
        <time>2011-09-03T08:25:55Z</time>
      </trkpt>
      <trkpt lat="43.47183" lon="6.88612">
        <ele>79.474479675293</ele>
        <time>2011-09-03T08:26:04Z</time>
      </trkpt>
      <trkpt lat="43.47179" lon="6.88625">
        <ele>79.437797546387</ele>
        <time>2011-09-03T08:26:11Z</time>
      </trkpt>
      <trkpt lat="43.47175" lon="6.88637">
        <ele>79.264053344727</ele>
        <time>2011-09-03T08:26:19Z</time>
      </trkpt>
      <trkpt lat="43.47169" lon="6.88646">
        <ele>79.449783325195</ele>
        <time>2011-09-03T08:26:26Z</time>
      </trkpt>
      <trkpt lat="43.47161" lon="6.88655">
        <ele>81.775009155273</ele>
        <time>2011-09-03T08:26:34Z</time>
      </trkpt>
      <trkpt lat="43.47153" lon="6.88665">
        <ele>83.424095153809</ele>
        <time>2011-09-03T08:26:42Z</time>
      </trkpt>
      <trkpt lat="43.47149" lon="6.8868">
        <ele>83.313537597656</ele>
        <time>2011-09-03T08:26:51Z</time>
      </trkpt>
      <trkpt lat="43.47145" lon="6.88693">
        <ele>82.966812133789</ele>
        <time>2011-09-03T08:26:59Z</time>
      </trkpt>
      <trkpt lat="43.47139" lon="6.88702">
        <ele>83.092987060547</ele>
        <time>2011-09-03T08:27:06Z</time>
      </trkpt>
      <trkpt lat="43.47133" lon="6.88712">
        <ele>84.161056518555</ele>
        <time>2011-09-03T08:27:14Z</time>
      </trkpt>
      <trkpt lat="43.47128" lon="6.88722">
        <ele>84.950096130371</ele>
        <time>2011-09-03T08:27:22Z</time>
      </trkpt>
      <trkpt lat="43.47124" lon="6.88731">
        <ele>85.386543273926</ele>
        <time>2011-09-03T08:27:28Z</time>
      </trkpt>
      <trkpt lat="43.47117" lon="6.88742">
        <ele>86.645545959473</ele>
        <time>2011-09-03T08:27:36Z</time>
      </trkpt>
      <trkpt lat="43.47111" lon="6.88756">
        <ele>86.558883666992</ele>
        <time>2011-09-03T08:27:45Z</time>
      </trkpt>
      <trkpt lat="43.47108" lon="6.88766">
        <ele>86.437309265137</ele>
        <time>2011-09-03T08:27:52Z</time>
      </trkpt>
      <trkpt lat="43.47104" lon="6.88777">
        <ele>87.280128479004</ele>
        <time>2011-09-03T08:27:59Z</time>
      </trkpt>
      <trkpt lat="43.471" lon="6.88789">
        <ele>87.960662841797</ele>
        <time>2011-09-03T08:28:07Z</time>
      </trkpt>
      <trkpt lat="43.47095" lon="6.88798">
        <ele>88.950019836426</ele>
        <time>2011-09-03T08:28:14Z</time>
      </trkpt>
      <trkpt lat="43.4709" lon="6.88809">
        <ele>90.486083984375</ele>
        <time>2011-09-03T08:28:22Z</time>
      </trkpt>
      <trkpt lat="43.47086" lon="6.88818">
        <ele>91.662223815918</ele>
        <time>2011-09-03T08:28:29Z</time>
      </trkpt>
      <trkpt lat="43.47082" lon="6.88827">
        <ele>92.049606323242</ele>
        <time>2011-09-03T08:28:36Z</time>
      </trkpt>
      <trkpt lat="43.47077" lon="6.88838">
        <ele>92.540969848633</ele>
        <time>2011-09-03T08:28:43Z</time>
      </trkpt>
      <trkpt lat="43.47076" lon="6.8884">
        <ele>92.731513977051</ele>
        <time>2011-09-03T08:28:45Z</time>
      </trkpt>
      <trkpt lat="43.4707" lon="6.88847">
        <ele>93.818130493164</ele>
        <time>2011-09-03T08:28:51Z</time>
      </trkpt>
      <trkpt lat="43.47066" lon="6.88857">
        <ele>94.034423828125</ele>
        <time>2011-09-03T08:28:58Z</time>
      </trkpt>
      <trkpt lat="43.47065" lon="6.88858">
        <ele>94.178619384766</ele>
        <time>2011-09-03T08:28:59Z</time>
      </trkpt>
      <trkpt lat="43.47064" lon="6.88867">
        <ele>94.1962890625</ele>
        <time>2011-09-03T08:29:05Z</time>
      </trkpt>
      <trkpt lat="43.47065" lon="6.88871">
        <ele>94.072692871094</ele>
        <time>2011-09-03T08:29:10Z</time>
      </trkpt>
      <trkpt lat="43.47062" lon="6.88883">
        <ele>95.061462402344</ele>
        <time>2011-09-03T08:29:17Z</time>
      </trkpt>
      <trkpt lat="43.47057" lon="6.88893">
        <ele>96.674217224121</ele>
        <time>2011-09-03T08:29:24Z</time>
      </trkpt>
      <trkpt lat="43.47051" lon="6.88904">
        <ele>97.730926513672</ele>
        <time>2011-09-03T08:29:32Z</time>
      </trkpt>
      <trkpt lat="43.47046" lon="6.88913">
        <ele>98.128425598145</ele>
        <time>2011-09-03T08:29:38Z</time>
      </trkpt>
      <trkpt lat="43.47042" lon="6.88923">
        <ele>98.90567779541</ele>
        <time>2011-09-03T08:29:44Z</time>
      </trkpt>
      <trkpt lat="43.47039" lon="6.88935">
        <ele>100.33807373047</ele>
        <time>2011-09-03T08:29:51Z</time>
      </trkpt>
      <trkpt lat="43.47038" lon="6.8894">
        <ele>101.0924987793</ele>
        <time>2011-09-03T08:29:54Z</time>
      </trkpt>
      <trkpt lat="43.47036" lon="6.8895">
        <ele>101.4479675293</ele>
        <time>2011-09-03T08:30:00Z</time>
      </trkpt>
      <trkpt lat="43.47033" lon="6.88959">
        <ele>100.92429351807</ele>
        <time>2011-09-03T08:30:05Z</time>
      </trkpt>
      <trkpt lat="43.47032" lon="6.88969">
        <ele>99.941856384277</ele>
        <time>2011-09-03T08:30:11Z</time>
      </trkpt>
      <trkpt lat="43.4703" lon="6.88981">
        <ele>99.439361572266</ele>
        <time>2011-09-03T08:30:17Z</time>
      </trkpt>
      <trkpt lat="43.47028" lon="6.88996">
        <ele>99.121360778809</ele>
        <time>2011-09-03T08:30:24Z</time>
      </trkpt>
      <trkpt lat="43.47029" lon="6.89012">
        <ele>98.923927307129</ele>
        <time>2011-09-03T08:30:32Z</time>
      </trkpt>
      <trkpt lat="43.47028" lon="6.89026">
        <ele>99.090232849121</ele>
        <time>2011-09-03T08:30:39Z</time>
      </trkpt>
      <trkpt lat="43.47026" lon="6.89034">
        <ele>99.590270996094</ele>
        <time>2011-09-03T08:30:44Z</time>
      </trkpt>
      <trkpt lat="43.47026" lon="6.8905">
        <ele>99.50764465332</ele>
        <time>2011-09-03T08:30:52Z</time>
      </trkpt>
      <trkpt lat="43.47026" lon="6.89066">
        <ele>99.697814941406</ele>
        <time>2011-09-03T08:31:00Z</time>
      </trkpt>
      <trkpt lat="43.47021" lon="6.89077">
        <ele>101.14290618897</ele>
        <time>2011-09-03T08:31:07Z</time>
      </trkpt>
      <trkpt lat="43.47011" lon="6.8909">
        <ele>103.04515075684</ele>
        <time>2011-09-03T08:31:16Z</time>
      </trkpt>
      <trkpt lat="43.47009" lon="6.89093">
        <ele>103.22431182861</ele>
        <time>2011-09-03T08:31:18Z</time>
      </trkpt>
      <trkpt lat="43.47005" lon="6.89097">
        <ele>103.43341064453</ele>
        <time>2011-09-03T08:31:22Z</time>
      </trkpt>
      <trkpt lat="43.46997" lon="6.89103">
        <ele>106.32489013672</ele>
        <time>2011-09-03T08:31:30Z</time>
      </trkpt>
      <trkpt lat="43.46993" lon="6.89109">
        <ele>109.90876770019</ele>
        <time>2011-09-03T08:31:36Z</time>
      </trkpt>
      <trkpt lat="43.46989" lon="6.89118">
        <ele>113.23011016846</ele>
        <time>2011-09-03T08:31:42Z</time>
      </trkpt>
      <trkpt lat="43.46987" lon="6.89132">
        <ele>114.50554656982</ele>
        <time>2011-09-03T08:31:50Z</time>
      </trkpt>
      <trkpt lat="43.46986" lon="6.89142">
        <ele>114.89112091065</ele>
        <time>2011-09-03T08:31:56Z</time>
      </trkpt>
      <trkpt lat="43.46986" lon="6.89148">
        <ele>114.8459777832</ele>
        <time>2011-09-03T08:32:01Z</time>
      </trkpt>
      <trkpt lat="43.46987" lon="6.89163">
        <ele>112.59507751465</ele>
        <time>2011-09-03T08:32:09Z</time>
      </trkpt>
      <trkpt lat="43.46988" lon="6.8918">
        <ele>110.19074249268</ele>
        <time>2011-09-03T08:32:19Z</time>
      </trkpt>
      <trkpt lat="43.46988" lon="6.89199">
        <ele>109.23538208008</ele>
        <time>2011-09-03T08:32:29Z</time>
      </trkpt>
      <trkpt lat="43.46988" lon="6.89214">
        <ele>108.35590362549</ele>
        <time>2011-09-03T08:32:36Z</time>
      </trkpt>
      <trkpt lat="43.46989" lon="6.89221">
        <ele>107.33222198486</ele>
        <time>2011-09-03T08:32:40Z</time>
      </trkpt>
      <trkpt lat="43.46988" lon="6.89235">
        <ele>108.13623046875</ele>
        <time>2011-09-03T08:32:48Z</time>
      </trkpt>
      <trkpt lat="43.46986" lon="6.89249">
        <ele>109.86657714844</ele>
        <time>2011-09-03T08:32:56Z</time>
      </trkpt>
      <trkpt lat="43.46986" lon="6.89256">
        <ele>108.79420471191</ele>
        <time>2011-09-03T08:33:02Z</time>
      </trkpt>
      <trkpt lat="43.46986" lon="6.89265">
        <ele>108.42384338379</ele>
        <time>2011-09-03T08:33:08Z</time>
      </trkpt>
      <trkpt lat="43.46981" lon="6.89276">
        <ele>109.92409515381</ele>
        <time>2011-09-03T08:33:16Z</time>
      </trkpt>
      <trkpt lat="43.46978" lon="6.89284">
        <ele>111.55248260498</ele>
        <time>2011-09-03T08:33:22Z</time>
      </trkpt>
      <trkpt lat="43.46975" lon="6.89294">
        <ele>113.74781799316</ele>
        <time>2011-09-03T08:33:28Z</time>
      </trkpt>
      <trkpt lat="43.46973" lon="6.89305">
        <ele>114.39654541016</ele>
        <time>2011-09-03T08:33:35Z</time>
      </trkpt>
      <trkpt lat="43.46973" lon="6.89318">
        <ele>114.61597442627</ele>
        <time>2011-09-03T08:33:41Z</time>
      </trkpt>
      <trkpt lat="43.46973" lon="6.8932">
        <ele>114.6201095581</ele>
        <time>2011-09-03T08:33:42Z</time>
      </trkpt>
      <trkpt lat="43.46972" lon="6.89328">
        <ele>114.97650909424</ele>
        <time>2011-09-03T08:33:46Z</time>
      </trkpt>
      <trkpt lat="43.46968" lon="6.89342">
        <ele>117.04148864746</ele>
        <time>2011-09-03T08:33:54Z</time>
      </trkpt>
      <trkpt lat="43.46963" lon="6.8935">
        <ele>118.4884185791</ele>
        <time>2011-09-03T08:34:00Z</time>
      </trkpt>
      <trkpt lat="43.46956" lon="6.89359">
        <ele>118.75951385498</ele>
        <time>2011-09-03T08:34:07Z</time>
      </trkpt>
      <trkpt lat="43.46951" lon="6.89367">
        <ele>119.06860351562</ele>
        <time>2011-09-03T08:34:13Z</time>
      </trkpt>
      <trkpt lat="43.46943" lon="6.89376">
        <ele>121.84149932861</ele>
        <time>2011-09-03T08:34:22Z</time>
      </trkpt>
      <trkpt lat="43.46938" lon="6.89383">
        <ele>126.13121032715</ele>
        <time>2011-09-03T08:34:28Z</time>
      </trkpt>
      <trkpt lat="43.46932" lon="6.89388">
        <ele>130.26571655273</ele>
        <time>2011-09-03T08:34:34Z</time>
      </trkpt>
      <trkpt lat="43.46925" lon="6.89399">
        <ele>134.97074890137</ele>
        <time>2011-09-03T08:34:42Z</time>
      </trkpt>
      <trkpt lat="43.46922" lon="6.8941">
        <ele>136.39598083496</ele>
        <time>2011-09-03T08:34:48Z</time>
      </trkpt>
      <trkpt lat="43.46918" lon="6.89421">
        <ele>138.74429321289</ele>
        <time>2011-09-03T08:34:54Z</time>
      </trkpt>
      <trkpt lat="43.46914" lon="6.89433">
        <ele>141.96644592285</ele>
        <time>2011-09-03T08:35:01Z</time>
      </trkpt>
      <trkpt lat="43.46912" lon="6.89436">
        <ele>142.98533630371</ele>
        <time>2011-09-03T08:35:03Z</time>
      </trkpt>
      <trkpt lat="43.46908" lon="6.89448">
        <ele>144.84526062012</ele>
        <time>2011-09-03T08:35:10Z</time>
      </trkpt>
      <trkpt lat="43.46907" lon="6.89449">
        <ele>145.20465087891</ele>
        <time>2011-09-03T08:35:11Z</time>
      </trkpt>
      <trkpt lat="43.46906" lon="6.89453">
        <ele>145.68969726562</ele>
        <time>2011-09-03T08:35:14Z</time>
      </trkpt>
      <trkpt lat="43.46901" lon="6.89461">
        <ele>147.53244018555</ele>
        <time>2011-09-03T08:35:21Z</time>
      </trkpt>
      <trkpt lat="43.46897" lon="6.89469">
        <ele>149.173828125</ele>
        <time>2011-09-03T08:35:27Z</time>
      </trkpt>
      <trkpt lat="43.46894" lon="6.89473">
        <ele>150.08721923828</ele>
        <time>2011-09-03T08:35:30Z</time>
      </trkpt>
      <trkpt lat="43.4689" lon="6.89481">
        <ele>150.1692199707</ele>
        <time>2011-09-03T08:35:37Z</time>
      </trkpt>
      <trkpt lat="43.46888" lon="6.89492">
        <ele>148.39443969727</ele>
        <time>2011-09-03T08:35:43Z</time>
      </trkpt>
      <trkpt lat="43.46886" lon="6.89504">
        <ele>146.38858032227</ele>
        <time>2011-09-03T08:35:50Z</time>
      </trkpt>
      <trkpt lat="43.46883" lon="6.89518">
        <ele>147.65379333496</ele>
        <time>2011-09-03T08:35:58Z</time>
      </trkpt>
      <trkpt lat="43.46878" lon="6.89529">
        <ele>150.49894714356</ele>
        <time>2011-09-03T08:36:06Z</time>
      </trkpt>
      <trkpt lat="43.46872" lon="6.8954">
        <ele>155.09909057617</ele>
        <time>2011-09-03T08:36:14Z</time>
      </trkpt>
      <trkpt lat="43.46865" lon="6.8955">
        <ele>159.64288330078</ele>
        <time>2011-09-03T08:36:21Z</time>
      </trkpt>
      <trkpt lat="43.46863" lon="6.89553">
        <ele>161.38584899902</ele>
        <time>2011-09-03T08:36:24Z</time>
      </trkpt>
      <trkpt lat="43.46857" lon="6.89563">
        <ele>164.97027587891</ele>
        <time>2011-09-03T08:36:32Z</time>
      </trkpt>
      <trkpt lat="43.46853" lon="6.89571">
        <ele>166.85739135742</ele>
        <time>2011-09-03T08:36:38Z</time>
      </trkpt>
      <trkpt lat="43.4685" lon="6.89582">
        <ele>167.98556518555</ele>
        <time>2011-09-03T08:36:45Z</time>
      </trkpt>
      <trkpt lat="43.46846" lon="6.89593">
        <ele>170.41073608398</ele>
        <time>2011-09-03T08:36:52Z</time>
      </trkpt>
      <trkpt lat="43.46841" lon="6.89604">
        <ele>173.89741516113</ele>
        <time>2011-09-03T08:37:00Z</time>
      </trkpt>
      <trkpt lat="43.46836" lon="6.89614">
        <ele>177.11437988281</ele>
        <time>2011-09-03T08:37:07Z</time>
      </trkpt>
      <trkpt lat="43.4683" lon="6.89625">
        <ele>181.02825927734</ele>
        <time>2011-09-03T08:37:15Z</time>
      </trkpt>
      <trkpt lat="43.46828" lon="6.89635">
        <ele>182.33288574219</ele>
        <time>2011-09-03T08:37:22Z</time>
      </trkpt>
      <trkpt lat="43.46828" lon="6.89649">
        <ele>182.22259521484</ele>
        <time>2011-09-03T08:37:30Z</time>
      </trkpt>
      <trkpt lat="43.46827" lon="6.89662">
        <ele>182.80624389648</ele>
        <time>2011-09-03T08:37:38Z</time>
      </trkpt>
      <trkpt lat="43.46824" lon="6.89671">
        <ele>184.62098693848</ele>
        <time>2011-09-03T08:37:44Z</time>
      </trkpt>
      <trkpt lat="43.46819" lon="6.89685">
        <ele>187.27075195312</ele>
        <time>2011-09-03T08:37:52Z</time>
      </trkpt>
      <trkpt lat="43.46817" lon="6.897">
        <ele>188.91108703613</ele>
        <time>2011-09-03T08:38:00Z</time>
      </trkpt>
      <trkpt lat="43.46815" lon="6.89712">
        <ele>189.97613525391</ele>
        <time>2011-09-03T08:38:08Z</time>
      </trkpt>
      <trkpt lat="43.46811" lon="6.89721">
        <ele>192.37615966797</ele>
        <time>2011-09-03T08:38:14Z</time>
      </trkpt>
      <trkpt lat="43.46808" lon="6.89724">
        <ele>194.41606140137</ele>
        <time>2011-09-03T08:38:18Z</time>
      </trkpt>
      <trkpt lat="43.46801" lon="6.89729">
        <ele>196.65673828125</ele>
        <time>2011-09-03T08:38:25Z</time>
      </trkpt>
      <trkpt lat="43.46795" lon="6.89737">
        <ele>197.53564453125</ele>
        <time>2011-09-03T08:38:33Z</time>
      </trkpt>
      <trkpt lat="43.4679" lon="6.89745">
        <ele>198.19482421875</ele>
        <time>2011-09-03T08:38:40Z</time>
      </trkpt>
      <trkpt lat="43.46785" lon="6.8976">
        <ele>199.07829284668</ele>
        <time>2011-09-03T08:38:50Z</time>
      </trkpt>
      <trkpt lat="43.46785" lon="6.89765">
        <ele>199.14694213867</ele>
        <time>2011-09-03T08:38:53Z</time>
      </trkpt>
      <trkpt lat="43.46785" lon="6.89767">
        <ele>199.2658996582</ele>
        <time>2011-09-03T08:38:55Z</time>
      </trkpt>
      <trkpt lat="43.46785" lon="6.89773">
        <ele>199.35441589356</ele>
        <time>2011-09-03T08:38:59Z</time>
      </trkpt>
      <trkpt lat="43.46786" lon="6.89784">
        <ele>199.4482421875</ele>
        <time>2011-09-03T08:39:07Z</time>
      </trkpt>
      <trkpt lat="43.46788" lon="6.89797">
        <ele>199.2248840332</ele>
        <time>2011-09-03T08:39:15Z</time>
      </trkpt>
      <trkpt lat="43.46788" lon="6.898">
        <ele>199.20182800293</ele>
        <time>2011-09-03T08:39:17Z</time>
      </trkpt>
      <trkpt lat="43.46791" lon="6.89814">
        <ele>198.81706237793</ele>
        <time>2011-09-03T08:39:26Z</time>
      </trkpt>
      <trkpt lat="43.46792" lon="6.89826">
        <ele>198.81748962402</ele>
        <time>2011-09-03T08:39:34Z</time>
      </trkpt>
      <trkpt lat="43.46792" lon="6.89837">
        <ele>198.99746704102</ele>
        <time>2011-09-03T08:39:41Z</time>
      </trkpt>
      <trkpt lat="43.4679" lon="6.89844">
        <ele>199.98866271973</ele>
        <time>2011-09-03T08:39:48Z</time>
      </trkpt>
      <trkpt lat="43.46786" lon="6.8985">
        <ele>201.2801361084</ele>
        <time>2011-09-03T08:39:53Z</time>
      </trkpt>
      <trkpt lat="43.46782" lon="6.89861">
        <ele>203.20642089844</ele>
        <time>2011-09-03T08:40:01Z</time>
      </trkpt>
      <trkpt lat="43.46777" lon="6.89872">
        <ele>205.25961303711</ele>
        <time>2011-09-03T08:40:09Z</time>
      </trkpt>
      <trkpt lat="43.46774" lon="6.8988">
        <ele>207.49417114258</ele>
        <time>2011-09-03T08:40:15Z</time>
      </trkpt>
      <trkpt lat="43.46774" lon="6.89896">
        <ele>207.40936279297</ele>
        <time>2011-09-03T08:40:25Z</time>
      </trkpt>
      <trkpt lat="43.46778" lon="6.89906">
        <ele>204.69311523438</ele>
        <time>2011-09-03T08:40:32Z</time>
      </trkpt>
      <trkpt lat="43.46783" lon="6.89915">
        <ele>202.88037109375</ele>
        <time>2011-09-03T08:40:39Z</time>
      </trkpt>
      <trkpt lat="43.46786" lon="6.89925">
        <ele>200.9443359375</ele>
        <time>2011-09-03T08:40:46Z</time>
      </trkpt>
      <trkpt lat="43.4679" lon="6.89936">
        <ele>198.8826751709</ele>
        <time>2011-09-03T08:40:54Z</time>
      </trkpt>
      <trkpt lat="43.46794" lon="6.89949">
        <ele>197.10131835938</ele>
        <time>2011-09-03T08:41:03Z</time>
      </trkpt>
      <trkpt lat="43.46795" lon="6.89959">
        <ele>196.44213867188</ele>
        <time>2011-09-03T08:41:10Z</time>
      </trkpt>
      <trkpt lat="43.46797" lon="6.89967">
        <ele>195.78295898438</ele>
        <time>2011-09-03T08:41:16Z</time>
      </trkpt>
      <trkpt lat="43.46798" lon="6.89976">
        <ele>195.31820678711</ele>
        <time>2011-09-03T08:41:23Z</time>
      </trkpt>
      <trkpt lat="43.46798" lon="6.89984">
        <ele>194.70364379883</ele>
        <time>2011-09-03T08:41:30Z</time>
      </trkpt>
      <trkpt lat="43.46798" lon="6.89992">
        <ele>194.41354370117</ele>
        <time>2011-09-03T08:41:36Z</time>
      </trkpt>
      <trkpt lat="43.46798" lon="6.89996">
        <ele>194.25732421875</ele>
        <time>2011-09-03T08:41:39Z</time>
      </trkpt>
      <trkpt lat="43.46798" lon="6.90012">
        <ele>194.45336914062</ele>
        <time>2011-09-03T08:41:50Z</time>
      </trkpt>
      <trkpt lat="43.46797" lon="6.90018">
        <ele>194.78295898438</ele>
        <time>2011-09-03T08:41:55Z</time>
      </trkpt>
      <trkpt lat="43.46795" lon="6.90029">
        <ele>195.57318115234</ele>
        <time>2011-09-03T08:42:01Z</time>
      </trkpt>
      <trkpt lat="43.46792" lon="6.90039">
        <ele>196.34567260742</ele>
        <time>2011-09-03T08:42:07Z</time>
      </trkpt>
      <trkpt lat="43.4679" lon="6.9005">
        <ele>196.95333862305</ele>
        <time>2011-09-03T08:42:13Z</time>
      </trkpt>
      <trkpt lat="43.46788" lon="6.90061">
        <ele>197.5732421875</ele>
        <time>2011-09-03T08:42:20Z</time>
      </trkpt>
      <trkpt lat="43.46788" lon="6.90068">
        <ele>197.73803710938</ele>
        <time>2011-09-03T08:42:25Z</time>
      </trkpt>
      <trkpt lat="43.46786" lon="6.90082">
        <ele>198.232421875</ele>
        <time>2011-09-03T08:42:33Z</time>
      </trkpt>
      <trkpt lat="43.46786" lon="6.90085">
        <ele>198.18165588379</ele>
        <time>2011-09-03T08:42:35Z</time>
      </trkpt>
      <trkpt lat="43.46787" lon="6.90099">
        <ele>197.32162475586</ele>
        <time>2011-09-03T08:42:44Z</time>
      </trkpt>
      <trkpt lat="43.46787" lon="6.90119">
        <ele>197.06762695312</ele>
        <time>2011-09-03T08:42:54Z</time>
      </trkpt>
      <trkpt lat="43.46784" lon="6.90129">
        <ele>198.22119140625</ele>
        <time>2011-09-03T08:43:00Z</time>
      </trkpt>
      <trkpt lat="43.46783" lon="6.90142">
        <ele>198.78167724609</ele>
        <time>2011-09-03T08:43:07Z</time>
      </trkpt>
      <trkpt lat="43.46785" lon="6.90157">
        <ele>197.24188232422</ele>
        <time>2011-09-03T08:43:15Z</time>
      </trkpt>
      <trkpt lat="43.46786" lon="6.9017">
        <ele>196.232421875</ele>
        <time>2011-09-03T08:43:22Z</time>
      </trkpt>
      <trkpt lat="43.46785" lon="6.90181">
        <ele>196.72680664062</ele>
        <time>2011-09-03T08:43:29Z</time>
      </trkpt>
      <trkpt lat="43.46782" lon="6.90193">
        <ele>198.04516601562</ele>
        <time>2011-09-03T08:43:38Z</time>
      </trkpt>
      <trkpt lat="43.46779" lon="6.902">
        <ele>199.72985839844</ele>
        <time>2011-09-03T08:43:45Z</time>
      </trkpt>
      <trkpt lat="43.46777" lon="6.90207">
        <ele>200.74006652832</ele>
        <time>2011-09-03T08:43:50Z</time>
      </trkpt>
      <trkpt lat="43.46776" lon="6.90208">
        <ele>200.8876953125</ele>
        <time>2011-09-03T08:43:51Z</time>
      </trkpt>
      <trkpt lat="43.46777" lon="6.90219">
        <ele>201.10571289062</ele>
        <time>2011-09-03T08:43:58Z</time>
      </trkpt>
      <trkpt lat="43.46781" lon="6.90229">
        <ele>200.2257232666</ele>
        <time>2011-09-03T08:44:04Z</time>
      </trkpt>
      <trkpt lat="43.46786" lon="6.9024">
        <ele>198.83183288574</ele>
        <time>2011-09-03T08:44:11Z</time>
      </trkpt>
      <trkpt lat="43.46791" lon="6.90253">
        <ele>197.47966003418</ele>
        <time>2011-09-03T08:44:19Z</time>
      </trkpt>
      <trkpt lat="43.46794" lon="6.90265">
        <ele>196.15283203125</ele>
        <time>2011-09-03T08:44:26Z</time>
      </trkpt>
      <trkpt lat="43.46796" lon="6.90275">
        <ele>195.42100524902</ele>
        <time>2011-09-03T08:44:33Z</time>
      </trkpt>
      <trkpt lat="43.46798" lon="6.90284">
        <ele>195.03907775879</ele>
        <time>2011-09-03T08:44:37Z</time>
      </trkpt>
      <trkpt lat="43.46798" lon="6.90294">
        <ele>195.89738464356</ele>
        <time>2011-09-03T08:44:42Z</time>
      </trkpt>
      <trkpt lat="43.46797" lon="6.90307">
        <ele>197.15869140625</ele>
        <time>2011-09-03T08:44:51Z</time>
      </trkpt>
      <trkpt lat="43.46796" lon="6.90319">
        <ele>198.10110473633</ele>
        <time>2011-09-03T08:44:59Z</time>
      </trkpt>
      <trkpt lat="43.46794" lon="6.90331">
        <ele>199.43664550781</ele>
        <time>2011-09-03T08:45:07Z</time>
      </trkpt>
      <trkpt lat="43.46793" lon="6.90335">
        <ele>199.98245239258</ele>
        <time>2011-09-03T08:45:10Z</time>
      </trkpt>
      <trkpt lat="43.46792" lon="6.9034">
        <ele>200.59799194336</ele>
        <time>2011-09-03T08:45:14Z</time>
      </trkpt>
      <trkpt lat="43.4679" lon="6.90352">
        <ele>202.19844055176</ele>
        <time>2011-09-03T08:45:22Z</time>
      </trkpt>
      <trkpt lat="43.4679" lon="6.90356">
        <ele>202.56611633301</ele>
        <time>2011-09-03T08:45:24Z</time>
      </trkpt>
      <trkpt lat="43.46789" lon="6.9037">
        <ele>203.75852966309</ele>
        <time>2011-09-03T08:45:33Z</time>
      </trkpt>
      <trkpt lat="43.46788" lon="6.90376">
        <ele>204.68145751953</ele>
        <time>2011-09-03T08:45:37Z</time>
      </trkpt>
      <trkpt lat="43.46788" lon="6.90386">
        <ele>205.51614379883</ele>
        <time>2011-09-03T08:45:44Z</time>
      </trkpt>
      <trkpt lat="43.46787" lon="6.90392">
        <ele>205.99975585938</ele>
        <time>2011-09-03T08:45:48Z</time>
      </trkpt>
      <trkpt lat="43.46788" lon="6.90398">
        <ele>205.99630737305</ele>
        <time>2011-09-03T08:45:54Z</time>
      </trkpt>
      <trkpt lat="43.46787" lon="6.90398">
        <ele>206.42718505859</ele>
        <time>2011-09-03T08:45:59Z</time>
      </trkpt>
      <trkpt lat="43.46787" lon="6.90399">
        <ele>206.44778442383</ele>
        <time>2011-09-03T08:46:10Z</time>
      </trkpt>
      <trkpt lat="43.46786" lon="6.90399">
        <ele>206.6692199707</ele>
        <time>2011-09-03T08:46:22Z</time>
      </trkpt>
      <trkpt lat="43.46787" lon="6.904">
        <ele>206.46838378906</ele>
        <time>2011-09-03T08:46:28Z</time>
      </trkpt>
      <trkpt lat="43.46788" lon="6.904">
        <ele>206.06669616699</ele>
        <time>2011-09-03T08:46:35Z</time>
      </trkpt>
      <trkpt lat="43.46786" lon="6.90399">
        <ele>206.66580200195</ele>
        <time>2011-09-03T08:46:42Z</time>
      </trkpt>
      <trkpt lat="43.46785" lon="6.90402">
        <ele>207.57217407227</ele>
        <time>2011-09-03T08:46:51Z</time>
      </trkpt>
      <trkpt lat="43.46783" lon="6.90407">
        <ele>208.57809448242</ele>
        <time>2011-09-03T08:46:55Z</time>
      </trkpt>
      <trkpt lat="43.46783" lon="6.9041">
        <ele>209.11026000977</ele>
        <time>2011-09-03T08:46:57Z</time>
      </trkpt>
      <trkpt lat="43.4678" lon="6.90416">
        <ele>210.57281494141</ele>
        <time>2011-09-03T08:47:01Z</time>
      </trkpt>
      <trkpt lat="43.46777" lon="6.90426">
        <ele>212.82679748535</ele>
        <time>2011-09-03T08:47:09Z</time>
      </trkpt>
      <trkpt lat="43.46775" lon="6.90433">
        <ele>213.63360595703</ele>
        <time>2011-09-03T08:47:14Z</time>
      </trkpt>
      <trkpt lat="43.46772" lon="6.9044">
        <ele>214.69790649414</ele>
        <time>2011-09-03T08:47:21Z</time>
      </trkpt>
      <trkpt lat="43.4677" lon="6.90449">
        <ele>215.71415710449</ele>
        <time>2011-09-03T08:47:28Z</time>
      </trkpt>
      <trkpt lat="43.46767" lon="6.90458">
        <ele>216.69801330566</ele>
        <time>2011-09-03T08:47:35Z</time>
      </trkpt>
      <trkpt lat="43.46767" lon="6.90468">
        <ele>217.31016540527</ele>
        <time>2011-09-03T08:47:42Z</time>
      </trkpt>
      <trkpt lat="43.46768" lon="6.90477">
        <ele>218.00611877441</ele>
        <time>2011-09-03T08:47:48Z</time>
      </trkpt>
      <trkpt lat="43.4677" lon="6.90488">
        <ele>218.82675170898</ele>
        <time>2011-09-03T08:47:55Z</time>
      </trkpt>
      <trkpt lat="43.46773" lon="6.90499">
        <ele>219.18634033203</ele>
        <time>2011-09-03T08:48:02Z</time>
      </trkpt>
      <trkpt lat="43.46776" lon="6.90511">
        <ele>219.44618225098</ele>
        <time>2011-09-03T08:48:09Z</time>
      </trkpt>
      <trkpt lat="43.4678" lon="6.90523">
        <ele>218.9940032959</ele>
        <time>2011-09-03T08:48:17Z</time>
      </trkpt>
      <trkpt lat="43.46785" lon="6.90534">
        <ele>220.17607116699</ele>
        <time>2011-09-03T08:48:25Z</time>
      </trkpt>
      <trkpt lat="43.46791" lon="6.90542">
        <ele>220.63511657715</ele>
        <time>2011-09-03T08:48:32Z</time>
      </trkpt>
      <trkpt lat="43.46798" lon="6.9055">
        <ele>219.61944580078</ele>
        <time>2011-09-03T08:48:40Z</time>
      </trkpt>
      <trkpt lat="43.46805" lon="6.90554">
        <ele>216.88749694824</ele>
        <time>2011-09-03T08:48:46Z</time>
      </trkpt>
      <trkpt lat="43.46813" lon="6.90563">
        <ele>218.4768371582</ele>
        <time>2011-09-03T08:48:53Z</time>
      </trkpt>
      <trkpt lat="43.46821" lon="6.90568">
        <ele>218.67311096191</ele>
        <time>2011-09-03T08:49:00Z</time>
      </trkpt>
      <trkpt lat="43.46827" lon="6.90571">
        <ele>218.45101928711</ele>
        <time>2011-09-03T08:49:07Z</time>
      </trkpt>
      <trkpt lat="43.46832" lon="6.90575">
        <ele>218.50852966309</ele>
        <time>2011-09-03T08:49:12Z</time>
      </trkpt>
      <trkpt lat="43.46838" lon="6.90581">
        <ele>218.45397949219</ele>
        <time>2011-09-03T08:49:19Z</time>
      </trkpt>
      <trkpt lat="43.46843" lon="6.90588">
        <ele>220.14915466309</ele>
        <time>2011-09-03T08:49:26Z</time>
      </trkpt>
      <trkpt lat="43.46848" lon="6.90596">
        <ele>222.43859863281</ele>
        <time>2011-09-03T08:49:33Z</time>
      </trkpt>
      <trkpt lat="43.46855" lon="6.90602">
        <ele>223.46031188965</ele>
        <time>2011-09-03T08:49:40Z</time>
      </trkpt>
      <trkpt lat="43.46861" lon="6.90609">
        <ele>225.01194763184</ele>
        <time>2011-09-03T08:49:48Z</time>
      </trkpt>
      <trkpt lat="43.46866" lon="6.90615">
        <ele>227.94819641113</ele>
        <time>2011-09-03T08:49:54Z</time>
      </trkpt>
      <trkpt lat="43.4687" lon="6.90621">
        <ele>231.1780090332</ele>
        <time>2011-09-03T08:50:00Z</time>
      </trkpt>
      <trkpt lat="43.46873" lon="6.90631">
        <ele>237.50308227539</ele>
        <time>2011-09-03T08:50:07Z</time>
      </trkpt>
      <trkpt lat="43.46874" lon="6.90637">
        <ele>241.09063720703</ele>
        <time>2011-09-03T08:50:11Z</time>
      </trkpt>
      <trkpt lat="43.46878" lon="6.90648">
        <ele>244.40812683106</ele>
        <time>2011-09-03T08:50:19Z</time>
      </trkpt>
      <trkpt lat="43.46881" lon="6.90657">
        <ele>245.95767211914</ele>
        <time>2011-09-03T08:50:26Z</time>
      </trkpt>
      <trkpt lat="43.46885" lon="6.90668">
        <ele>247.88174438477</ele>
        <time>2011-09-03T08:50:35Z</time>
      </trkpt>
      <trkpt lat="43.46887" lon="6.90677">
        <ele>250.22666931152</ele>
        <time>2011-09-03T08:50:41Z</time>
      </trkpt>
      <trkpt lat="43.46888" lon="6.9068">
        <ele>251.25357055664</ele>
        <time>2011-09-03T08:50:43Z</time>
      </trkpt>
      <trkpt lat="43.46891" lon="6.9069">
        <ele>253.74978637695</ele>
        <time>2011-09-03T08:50:50Z</time>
      </trkpt>
      <trkpt lat="43.46894" lon="6.90699">
        <ele>255.07495117188</ele>
        <time>2011-09-03T08:50:57Z</time>
      </trkpt>
      <trkpt lat="43.46898" lon="6.90706">
        <ele>255.45948791504</ele>
        <time>2011-09-03T08:51:04Z</time>
      </trkpt>
      <trkpt lat="43.46901" lon="6.90715">
        <ele>256.19104003906</ele>
        <time>2011-09-03T08:51:10Z</time>
      </trkpt>
      <trkpt lat="43.46904" lon="6.90721">
        <ele>256.73715209961</ele>
        <time>2011-09-03T08:51:15Z</time>
      </trkpt>
      <trkpt lat="43.46907" lon="6.90726">
        <ele>256.71475219727</ele>
        <time>2011-09-03T08:51:19Z</time>
      </trkpt>
      <trkpt lat="43.46914" lon="6.90737">
        <ele>255.56837463379</ele>
        <time>2011-09-03T08:51:28Z</time>
      </trkpt>
      <trkpt lat="43.46919" lon="6.90743">
        <ele>254.3494720459</ele>
        <time>2011-09-03T08:51:34Z</time>
      </trkpt>
      <trkpt lat="43.46925" lon="6.90753">
        <ele>252.27822875977</ele>
        <time>2011-09-03T08:51:41Z</time>
      </trkpt>
      <trkpt lat="43.46929" lon="6.90765">
        <ele>249.58235168457</ele>
        <time>2011-09-03T08:51:48Z</time>
      </trkpt>
      <trkpt lat="43.46933" lon="6.90771">
        <ele>247.6989440918</ele>
        <time>2011-09-03T08:51:52Z</time>
      </trkpt>
      <trkpt lat="43.46935" lon="6.90779">
        <ele>246.53857421875</ele>
        <time>2011-09-03T08:51:57Z</time>
      </trkpt>
      <trkpt lat="43.46936" lon="6.90783">
        <ele>245.90675354004</ele>
        <time>2011-09-03T08:52:03Z</time>
      </trkpt>
      <trkpt lat="43.46935" lon="6.90784">
        <ele>246.14553833008</ele>
        <time>2011-09-03T08:52:13Z</time>
      </trkpt>
      <trkpt lat="43.46935" lon="6.90784">
        <ele>246.40718078613</ele>
        <time>2011-09-03T08:52:23Z</time>
      </trkpt>
      <trkpt lat="43.46934" lon="6.90784">
        <ele>246.68469238281</ele>
        <time>2011-09-03T08:52:36Z</time>
      </trkpt>
      <trkpt lat="43.46934" lon="6.90784">
        <ele>246.55329895019</ele>
        <time>2011-09-03T08:52:44Z</time>
      </trkpt>
      <trkpt lat="43.46935" lon="6.90783">
        <ele>246.17614746094</ele>
        <time>2011-09-03T08:52:55Z</time>
      </trkpt>
      <trkpt lat="43.46937" lon="6.90782">
        <ele>245.53453063965</ele>
        <time>2011-09-03T08:53:16Z</time>
      </trkpt>
      <trkpt lat="43.46938" lon="6.90782">
        <ele>245.40058898926</ele>
        <time>2011-09-03T08:53:18Z</time>
      </trkpt>
      <trkpt lat="43.46938" lon="6.90782">
        <ele>245.39973449707</ele>
        <time>2011-09-03T08:53:19Z</time>
      </trkpt>
      <trkpt lat="43.46937" lon="6.90782">
        <ele>245.53092956543</ele>
        <time>2011-09-03T08:53:20Z</time>
      </trkpt>
      <trkpt lat="43.46937" lon="6.90782">
        <ele>245.52734375</ele>
        <time>2011-09-03T08:53:22Z</time>
      </trkpt>
      <trkpt lat="43.46936" lon="6.90783">
        <ele>245.78382873535</ele>
        <time>2011-09-03T08:53:26Z</time>
      </trkpt>
      <trkpt lat="43.46939" lon="6.90783">
        <ele>244.99510192871</ele>
        <time>2011-09-03T08:53:50Z</time>
      </trkpt>
      <trkpt lat="43.46938" lon="6.90786">
        <ele>245.20567321777</ele>
        <time>2011-09-03T08:54:06Z</time>
      </trkpt>
      <trkpt lat="43.46939" lon="6.90787">
        <ele>244.92628479004</ele>
        <time>2011-09-03T08:54:13Z</time>
      </trkpt>
      <trkpt lat="43.46942" lon="6.90792">
        <ele>243.86776733398</ele>
        <time>2011-09-03T08:54:17Z</time>
      </trkpt>
      <trkpt lat="43.46952" lon="6.90808">
        <ele>242.94195556641</ele>
        <time>2011-09-03T08:54:26Z</time>
      </trkpt>
      <trkpt lat="43.46962" lon="6.9082">
        <ele>242.81071472168</ele>
        <time>2011-09-03T08:54:33Z</time>
      </trkpt>
      <trkpt lat="43.4697" lon="6.90836">
        <ele>242.91204833984</ele>
        <time>2011-09-03T08:54:40Z</time>
      </trkpt>
      <trkpt lat="43.4698" lon="6.9085">
        <ele>243.29028320312</ele>
        <time>2011-09-03T08:54:47Z</time>
      </trkpt>
      <trkpt lat="43.46987" lon="6.90864">
        <ele>243.5852355957</ele>
        <time>2011-09-03T08:54:53Z</time>
      </trkpt>
      <trkpt lat="43.46999" lon="6.90881">
        <ele>244.64115905762</ele>
        <time>2011-09-03T08:55:02Z</time>
      </trkpt>
      <trkpt lat="43.47001" lon="6.90886">
        <ele>244.91830444336</ele>
        <time>2011-09-03T08:55:07Z</time>
      </trkpt>
      <trkpt lat="43.47002" lon="6.90886">
        <ele>244.95606994629</ele>
        <time>2011-09-03T08:55:14Z</time>
      </trkpt>
      <trkpt lat="43.47002" lon="6.90885">
        <ele>244.94233703613</ele>
        <time>2011-09-03T08:55:18Z</time>
      </trkpt>
      <trkpt lat="43.47002" lon="6.90884">
        <ele>244.91314697266</ele>
        <time>2011-09-03T08:55:28Z</time>
      </trkpt>
      <trkpt lat="43.47002" lon="6.90884">
        <ele>244.91143798828</ele>
        <time>2011-09-03T08:55:30Z</time>
      </trkpt>
      <trkpt lat="43.47002" lon="6.90884">
        <ele>244.91143798828</ele>
        <time>2011-09-03T08:55:31Z</time>
      </trkpt>
      <trkpt lat="43.47002" lon="6.90883">
        <ele>244.86337280273</ele>
        <time>2011-09-03T08:55:40Z</time>
      </trkpt>
      <trkpt lat="43.47003" lon="6.90882">
        <ele>244.86508178711</ele>
        <time>2011-09-03T08:55:48Z</time>
      </trkpt>
      <trkpt lat="43.47002" lon="6.90883">
        <ele>244.86508178711</ele>
        <time>2011-09-03T08:55:53Z</time>
      </trkpt>
      <trkpt lat="43.47002" lon="6.90883">
        <ele>244.86337280273</ele>
        <time>2011-09-03T08:55:55Z</time>
      </trkpt>
      <trkpt lat="43.47002" lon="6.90883">
        <ele>244.86166381836</ele>
        <time>2011-09-03T08:55:57Z</time>
      </trkpt>
      <trkpt lat="43.47002" lon="6.90883">
        <ele>244.85821533203</ele>
        <time>2011-09-03T08:55:58Z</time>
      </trkpt>
      <trkpt lat="43.47002" lon="6.90883">
        <ele>244.85821533203</ele>
        <time>2011-09-03T08:56:01Z</time>
      </trkpt>
      <trkpt lat="43.47003" lon="6.90882">
        <ele>244.85821533203</ele>
        <time>2011-09-03T08:56:05Z</time>
      </trkpt>
      <trkpt lat="43.47002" lon="6.90882">
        <ele>244.82733154297</ele>
        <time>2011-09-03T08:56:08Z</time>
      </trkpt>
      <trkpt lat="43.47001" lon="6.90882">
        <ele>244.81015014648</ele>
        <time>2011-09-03T08:56:32Z</time>
      </trkpt>
      <trkpt lat="43.47001" lon="6.90883">
        <ele>244.80844116211</ele>
        <time>2011-09-03T08:56:38Z</time>
      </trkpt>
      <trkpt lat="43.47001" lon="6.90883">
        <ele>244.80673217773</ele>
        <time>2011-09-03T08:56:40Z</time>
      </trkpt>
      <trkpt lat="43.47001" lon="6.90883">
        <ele>244.80500793457</ele>
        <time>2011-09-03T08:56:44Z</time>
      </trkpt>
      <trkpt lat="43.47001" lon="6.90882">
        <ele>244.79641723633</ele>
        <time>2011-09-03T08:56:52Z</time>
      </trkpt>
      <trkpt lat="43.47001" lon="6.90882">
        <ele>244.77410888672</ele>
        <time>2011-09-03T08:57:06Z</time>
      </trkpt>
      <trkpt lat="43.47001" lon="6.90881">
        <ele>244.77067565918</ele>
        <time>2011-09-03T08:57:29Z</time>
      </trkpt>
      <trkpt lat="43.47001" lon="6.90881">
        <ele>244.77926635742</ele>
        <time>2011-09-03T08:57:42Z</time>
      </trkpt>
      <trkpt lat="43.47001" lon="6.90882">
        <ele>244.78440856934</ele>
        <time>2011-09-03T08:57:47Z</time>
      </trkpt>
      <trkpt lat="43.47002" lon="6.90882">
        <ele>244.80844116211</ele>
        <time>2011-09-03T08:57:51Z</time>
      </trkpt>
      <trkpt lat="43.47002" lon="6.90882">
        <ele>244.81530761719</ele>
        <time>2011-09-03T08:57:56Z</time>
      </trkpt>
      <trkpt lat="43.47002" lon="6.90882">
        <ele>244.81530761719</ele>
        <time>2011-09-03T08:58:02Z</time>
      </trkpt>
      <trkpt lat="43.47002" lon="6.90882">
        <ele>244.81701660156</ele>
        <time>2011-09-03T08:58:04Z</time>
      </trkpt>
      <trkpt lat="43.47002" lon="6.90882">
        <ele>244.81874084473</ele>
        <time>2011-09-03T08:58:05Z</time>
      </trkpt>
      <trkpt lat="43.47002" lon="6.90882">
        <ele>244.81874084473</ele>
        <time>2011-09-03T08:58:06Z</time>
      </trkpt>
      <trkpt lat="43.47002" lon="6.90882">
        <ele>244.81874084473</ele>
        <time>2011-09-03T08:58:09Z</time>
      </trkpt>
      <trkpt lat="43.47002" lon="6.90881">
        <ele>244.81874084473</ele>
        <time>2011-09-03T08:58:28Z</time>
      </trkpt>
      <trkpt lat="43.47003" lon="6.90881">
        <ele>244.83419799805</ele>
        <time>2011-09-03T08:58:33Z</time>
      </trkpt>
      <trkpt lat="43.47002" lon="6.90881">
        <ele>244.81701660156</ele>
        <time>2011-09-03T08:58:46Z</time>
      </trkpt>
      <trkpt lat="43.47002" lon="6.90881">
        <ele>244.78955078125</ele>
        <time>2011-09-03T08:58:58Z</time>
      </trkpt>
      <trkpt lat="43.47003" lon="6.90882">
        <ele>244.88397216797</ele>
        <time>2011-09-03T08:59:13Z</time>
      </trkpt>
      <trkpt lat="43.47004" lon="6.90883">
        <ele>244.91487121582</ele>
        <time>2011-09-03T08:59:20Z</time>
      </trkpt>
      <trkpt lat="43.47004" lon="6.90883">
        <ele>244.91830444336</ele>
        <time>2011-09-03T08:59:26Z</time>
      </trkpt>
      <trkpt lat="43.47007" lon="6.90875">
        <ele>244.76724243164</ele>
        <time>2011-09-03T08:59:31Z</time>
      </trkpt>
      <trkpt lat="43.47009" lon="6.90867">
        <ele>244.5440826416</ele>
        <time>2011-09-03T08:59:34Z</time>
      </trkpt>
      <trkpt lat="43.47013" lon="6.90861">
        <ele>244.47198486328</ele>
        <time>2011-09-03T08:59:38Z</time>
      </trkpt>
      <trkpt lat="43.47013" lon="6.9086">
        <ele>244.462890625</ele>
        <time>2011-09-03T08:59:39Z</time>
      </trkpt>
      <trkpt lat="43.47014" lon="6.90859">
        <ele>244.45715332031</ele>
        <time>2011-09-03T08:59:45Z</time>
      </trkpt>
      <trkpt lat="43.47015" lon="6.90856">
        <ele>244.43188476562</ele>
        <time>2011-09-03T08:59:56Z</time>
      </trkpt>
      <trkpt lat="43.47021" lon="6.90845">
        <ele>244.3251953125</ele>
        <time>2011-09-03T09:00:00Z</time>
      </trkpt>
      <trkpt lat="43.47036" lon="6.90821">
        <ele>243.54841613769</ele>
        <time>2011-09-03T09:00:06Z</time>
      </trkpt>
      <trkpt lat="43.47055" lon="6.90783">
        <ele>242.18713378906</ele>
        <time>2011-09-03T09:00:13Z</time>
      </trkpt>
      <trkpt lat="43.47067" lon="6.90756">
        <ele>242.80488586426</ele>
        <time>2011-09-03T09:00:18Z</time>
      </trkpt>
      <trkpt lat="43.47077" lon="6.90733">
        <ele>240.91011047363</ele>
        <time>2011-09-03T09:00:22Z</time>
      </trkpt>
      <trkpt lat="43.47087" lon="6.90712">
        <ele>239.68713378906</ele>
        <time>2011-09-03T09:00:26Z</time>
      </trkpt>
      <trkpt lat="43.47102" lon="6.90689">
        <ele>241.71151733398</ele>
        <time>2011-09-03T09:00:31Z</time>
      </trkpt>
      <trkpt lat="43.47132" lon="6.90671">
        <ele>248.64053344727</ele>
        <time>2011-09-03T09:00:38Z</time>
      </trkpt>
      <trkpt lat="43.47165" lon="6.9066">
        <ele>258.23336791992</ele>
        <time>2011-09-03T09:00:45Z</time>
      </trkpt>
      <trkpt lat="43.47189" lon="6.90652">
        <ele>265.63043212891</ele>
        <time>2011-09-03T09:00:50Z</time>
      </trkpt>
      <trkpt lat="43.47198" lon="6.90648">
        <ele>268.11013793945</ele>
        <time>2011-09-03T09:00:52Z</time>
      </trkpt>
      <trkpt lat="43.47211" lon="6.90645">
        <ele>271.48248291016</ele>
        <time>2011-09-03T09:00:55Z</time>
      </trkpt>
      <trkpt lat="43.47232" lon="6.90638">
        <ele>277.8024597168</ele>
        <time>2011-09-03T09:01:00Z</time>
      </trkpt>
      <trkpt lat="43.4725" lon="6.90626">
        <ele>282.68280029297</ele>
        <time>2011-09-03T09:01:05Z</time>
      </trkpt>
      <trkpt lat="43.4726" lon="6.906">
        <ele>285.15051269531</ele>
        <time>2011-09-03T09:01:11Z</time>
      </trkpt>
      <trkpt lat="43.4726" lon="6.90595">
        <ele>284.91534423828</ele>
        <time>2011-09-03T09:01:12Z</time>
      </trkpt>
      <trkpt lat="43.47247" lon="6.90565">
        <ele>276.67224121094</ele>
        <time>2011-09-03T09:01:18Z</time>
      </trkpt>
      <trkpt lat="43.47234" lon="6.90537">
        <ele>266.80114746094</ele>
        <time>2011-09-03T09:01:24Z</time>
      </trkpt>
      <trkpt lat="43.47227" lon="6.90528">
        <ele>263.02569580078</ele>
        <time>2011-09-03T09:01:26Z</time>
      </trkpt>
      <trkpt lat="43.47216" lon="6.90508">
        <ele>258.71282958984</ele>
        <time>2011-09-03T09:01:30Z</time>
      </trkpt>
      <trkpt lat="43.47198" lon="6.90471">
        <ele>253.98332214356</ele>
        <time>2011-09-03T09:01:37Z</time>
      </trkpt>
      <trkpt lat="43.47193" lon="6.9046">
        <ele>251.7248840332</ele>
        <time>2011-09-03T09:01:39Z</time>
      </trkpt>
      <trkpt lat="43.47188" lon="6.90429">
        <ele>248.39016723633</ele>
        <time>2011-09-03T09:01:44Z</time>
      </trkpt>
      <trkpt lat="43.4719" lon="6.90417">
        <ele>249.12728881836</ele>
        <time>2011-09-03T09:01:46Z</time>
      </trkpt>
      <trkpt lat="43.47196" lon="6.90392">
        <ele>250.75270080566</ele>
        <time>2011-09-03T09:01:50Z</time>
      </trkpt>
      <trkpt lat="43.47205" lon="6.90365">
        <ele>253.404296875</ele>
        <time>2011-09-03T09:01:55Z</time>
      </trkpt>
      <trkpt lat="43.47203" lon="6.90345">
        <ele>251.61807250977</ele>
        <time>2011-09-03T09:01:59Z</time>
      </trkpt>
      <trkpt lat="43.47199" lon="6.9032">
        <ele>248.67424011231</ele>
        <time>2011-09-03T09:02:04Z</time>
      </trkpt>
      <trkpt lat="43.47195" lon="6.90302">
        <ele>245.99742126465</ele>
        <time>2011-09-03T09:02:07Z</time>
      </trkpt>
      <trkpt lat="43.47193" lon="6.90277">
        <ele>244.6552734375</ele>
        <time>2011-09-03T09:02:11Z</time>
      </trkpt>
      <trkpt lat="43.47193" lon="6.90263">
        <ele>244.27169799805</ele>
        <time>2011-09-03T09:02:13Z</time>
      </trkpt>
      <trkpt lat="43.47199" lon="6.90232">
        <ele>245.55131530762</ele>
        <time>2011-09-03T09:02:18Z</time>
      </trkpt>
      <trkpt lat="43.47213" lon="6.90214">
        <ele>250.2783203125</ele>
        <time>2011-09-03T09:02:22Z</time>
      </trkpt>
      <trkpt lat="43.47217" lon="6.9021">
        <ele>251.70239257812</ele>
        <time>2011-09-03T09:02:23Z</time>
      </trkpt>
      <trkpt lat="43.47253" lon="6.90191">
        <ele>261.26696777344</ele>
        <time>2011-09-03T09:02:31Z</time>
      </trkpt>
      <trkpt lat="43.47285" lon="6.90175">
        <ele>272.09692382812</ele>
        <time>2011-09-03T09:02:39Z</time>
      </trkpt>
      <trkpt lat="43.47287" lon="6.90173">
        <ele>272.67370605469</ele>
        <time>2011-09-03T09:02:40Z</time>
      </trkpt>
      <trkpt lat="43.47301" lon="6.90176">
        <ele>277.72052001953</ele>
        <time>2011-09-03T09:02:44Z</time>
      </trkpt>
      <trkpt lat="43.47311" lon="6.90173">
        <ele>280.19158935547</ele>
        <time>2011-09-03T09:02:47Z</time>
      </trkpt>
      <trkpt lat="43.47313" lon="6.90168">
        <ele>280.19927978516</ele>
        <time>2011-09-03T09:02:48Z</time>
      </trkpt>
      <trkpt lat="43.47327" lon="6.90153">
        <ele>281.31903076172</ele>
        <time>2011-09-03T09:02:53Z</time>
      </trkpt>
      <trkpt lat="43.47338" lon="6.9015">
        <ele>284.87228393555</ele>
        <time>2011-09-03T09:02:57Z</time>
      </trkpt>
      <trkpt lat="43.4735" lon="6.90139">
        <ele>289.22811889648</ele>
        <time>2011-09-03T09:03:03Z</time>
      </trkpt>
      <trkpt lat="43.4735" lon="6.90126">
        <ele>286.9123840332</ele>
        <time>2011-09-03T09:03:07Z</time>
      </trkpt>
      <trkpt lat="43.47341" lon="6.90108">
        <ele>280.15466308594</ele>
        <time>2011-09-03T09:03:13Z</time>
      </trkpt>
      <trkpt lat="43.47333" lon="6.9009">
        <ele>275.8154296875</ele>
        <time>2011-09-03T09:03:20Z</time>
      </trkpt>
      <trkpt lat="43.47335" lon="6.90075">
        <ele>276.72619628906</ele>
        <time>2011-09-03T09:03:25Z</time>
      </trkpt>
      <trkpt lat="43.47336" lon="6.9006">
        <ele>276.99865722656</ele>
        <time>2011-09-03T09:03:30Z</time>
      </trkpt>
      <trkpt lat="43.47335" lon="6.90057">
        <ele>276.69778442383</ele>
        <time>2011-09-03T09:03:31Z</time>
      </trkpt>
      <trkpt lat="43.47322" lon="6.9005">
        <ele>273.34271240234</ele>
        <time>2011-09-03T09:03:36Z</time>
      </trkpt>
      <trkpt lat="43.47309" lon="6.90036">
        <ele>271.07678222656</ele>
        <time>2011-09-03T09:03:41Z</time>
      </trkpt>
      <trkpt lat="43.47305" lon="6.9002">
        <ele>271.54354858398</ele>
        <time>2011-09-03T09:03:45Z</time>
      </trkpt>
      <trkpt lat="43.47298" lon="6.89987">
        <ele>272.22674560547</ele>
        <time>2011-09-03T09:03:52Z</time>
      </trkpt>
      <trkpt lat="43.47293" lon="6.89955">
        <ele>274.71697998047</ele>
        <time>2011-09-03T09:03:58Z</time>
      </trkpt>
      <trkpt lat="43.47286" lon="6.89942">
        <ele>274.12789916992</ele>
        <time>2011-09-03T09:04:01Z</time>
      </trkpt>
      <trkpt lat="43.4728" lon="6.89918">
        <ele>275.67965698242</ele>
        <time>2011-09-03T09:04:06Z</time>
      </trkpt>
      <trkpt lat="43.47267" lon="6.89897">
        <ele>274.45495605469</ele>
        <time>2011-09-03T09:04:11Z</time>
      </trkpt>
      <trkpt lat="43.47258" lon="6.89884">
        <ele>271.82461547852</ele>
        <time>2011-09-03T09:04:14Z</time>
      </trkpt>
      <trkpt lat="43.47243" lon="6.89877">
        <ele>264.49877929688</ele>
        <time>2011-09-03T09:04:19Z</time>
      </trkpt>
      <trkpt lat="43.47219" lon="6.89865">
        <ele>254.56292724609</ele>
        <time>2011-09-03T09:04:28Z</time>
      </trkpt>
      <trkpt lat="43.47198" lon="6.89855">
        <ele>246.03494262695</ele>
        <time>2011-09-03T09:04:37Z</time>
      </trkpt>
      <trkpt lat="43.47192" lon="6.89852">
        <ele>243.80253601074</ele>
        <time>2011-09-03T09:04:40Z</time>
      </trkpt>
      <trkpt lat="43.47183" lon="6.89844">
        <ele>241.14306640625</ele>
        <time>2011-09-03T09:04:46Z</time>
      </trkpt>
      <trkpt lat="43.47177" lon="6.89827">
        <ele>240.82388305664</ele>
        <time>2011-09-03T09:04:52Z</time>
      </trkpt>
      <trkpt lat="43.47179" lon="6.8981">
        <ele>243.83499145508</ele>
        <time>2011-09-03T09:04:58Z</time>
      </trkpt>
      <trkpt lat="43.47182" lon="6.89796">
        <ele>246.06996154785</ele>
        <time>2011-09-03T09:05:03Z</time>
      </trkpt>
      <trkpt lat="43.47188" lon="6.89774">
        <ele>249.58573913574</ele>
        <time>2011-09-03T09:05:11Z</time>
      </trkpt>
      <trkpt lat="43.47192" lon="6.89757">
        <ele>252.81282043457</ele>
        <time>2011-09-03T09:05:18Z</time>
      </trkpt>
      <trkpt lat="43.47196" lon="6.89735">
        <ele>256.58551025391</ele>
        <time>2011-09-03T09:05:26Z</time>
      </trkpt>
      <trkpt lat="43.47201" lon="6.89711">
        <ele>260.10229492188</ele>
        <time>2011-09-03T09:05:35Z</time>
      </trkpt>
      <trkpt lat="43.47204" lon="6.89696">
        <ele>262.07983398438</ele>
        <time>2011-09-03T09:05:41Z</time>
      </trkpt>
      <trkpt lat="43.47205" lon="6.89689">
        <ele>262.73135375977</ele>
        <time>2011-09-03T09:05:44Z</time>
      </trkpt>
      <trkpt lat="43.47213" lon="6.89675">
        <ele>267.03955078125</ele>
        <time>2011-09-03T09:05:52Z</time>
      </trkpt>
      <trkpt lat="43.47217" lon="6.89668">
        <ele>270.20526123047</ele>
        <time>2011-09-03T09:05:57Z</time>
      </trkpt>
      <trkpt lat="43.47225" lon="6.8966">
        <ele>276.7004699707</ele>
        <time>2011-09-03T09:06:04Z</time>
      </trkpt>
      <trkpt lat="43.47231" lon="6.89653">
        <ele>281.67819213867</ele>
        <time>2011-09-03T09:06:09Z</time>
      </trkpt>
      <trkpt lat="43.47239" lon="6.89645">
        <ele>288.52416992188</ele>
        <time>2011-09-03T09:06:16Z</time>
      </trkpt>
      <trkpt lat="43.47244" lon="6.89639">
        <ele>291.92294311523</ele>
        <time>2011-09-03T09:06:21Z</time>
      </trkpt>
      <trkpt lat="43.4725" lon="6.8963">
        <ele>295.83358764648</ele>
        <time>2011-09-03T09:06:28Z</time>
      </trkpt>
      <trkpt lat="43.47255" lon="6.89622">
        <ele>297.11761474609</ele>
        <time>2011-09-03T09:06:33Z</time>
      </trkpt>
      <trkpt lat="43.47261" lon="6.89617">
        <ele>299.39727783203</ele>
        <time>2011-09-03T09:06:38Z</time>
      </trkpt>
      <trkpt lat="43.4727" lon="6.89607">
        <ele>302.15344238281</ele>
        <time>2011-09-03T09:06:46Z</time>
      </trkpt>
      <trkpt lat="43.47276" lon="6.89602">
        <ele>304.28890991211</ele>
        <time>2011-09-03T09:06:51Z</time>
      </trkpt>
      <trkpt lat="43.47286" lon="6.8959">
        <ele>306.55099487305</ele>
        <time>2011-09-03T09:07:00Z</time>
      </trkpt>
      <trkpt lat="43.47296" lon="6.89576">
        <ele>308.94567871094</ele>
        <time>2011-09-03T09:07:09Z</time>
      </trkpt>
      <trkpt lat="43.47304" lon="6.89566">
        <ele>310.16995239258</ele>
        <time>2011-09-03T09:07:16Z</time>
      </trkpt>
      <trkpt lat="43.47306" lon="6.89564">
        <ele>310.18725585938</ele>
        <time>2011-09-03T09:07:18Z</time>
      </trkpt>
      <trkpt lat="43.47312" lon="6.89552">
        <ele>309.08978271484</ele>
        <time>2011-09-03T09:07:24Z</time>
      </trkpt>
      <trkpt lat="43.47316" lon="6.89538">
        <ele>307.75946044922</ele>
        <time>2011-09-03T09:07:32Z</time>
      </trkpt>
      <trkpt lat="43.4732" lon="6.89535">
        <ele>308.19415283203</ele>
        <time>2011-09-03T09:07:37Z</time>
      </trkpt>
      <trkpt lat="43.4732" lon="6.89533">
        <ele>307.98498535156</ele>
        <time>2011-09-03T09:07:47Z</time>
      </trkpt>
      <trkpt lat="43.4732" lon="6.89533">
        <ele>307.98468017578</ele>
        <time>2011-09-03T09:07:54Z</time>
      </trkpt>
      <trkpt lat="43.4732" lon="6.89533">
        <ele>307.90753173828</ele>
        <time>2011-09-03T09:07:58Z</time>
      </trkpt>
      <trkpt lat="43.47319" lon="6.89533">
        <ele>307.82260131836</ele>
        <time>2011-09-03T09:08:02Z</time>
      </trkpt>
      <trkpt lat="43.47319" lon="6.89533">
        <ele>307.75308227539</ele>
        <time>2011-09-03T09:08:07Z</time>
      </trkpt>
      <trkpt lat="43.47319" lon="6.89533">
        <ele>307.69146728516</ele>
        <time>2011-09-03T09:08:11Z</time>
      </trkpt>
      <trkpt lat="43.47319" lon="6.89532">
        <ele>307.60678100586</ele>
        <time>2011-09-03T09:08:23Z</time>
      </trkpt>
      <trkpt lat="43.47319" lon="6.89533">
        <ele>307.7685546875</ele>
        <time>2011-09-03T09:08:30Z</time>
      </trkpt>
      <trkpt lat="43.47316" lon="6.89531">
        <ele>306.7578125</ele>
        <time>2011-09-03T09:08:35Z</time>
      </trkpt>
      <trkpt lat="43.47316" lon="6.89527">
        <ele>305.88641357422</ele>
        <time>2011-09-03T09:08:41Z</time>
      </trkpt>
      <trkpt lat="43.47316" lon="6.89525">
        <ele>305.46069335938</ele>
        <time>2011-09-03T09:08:46Z</time>
      </trkpt>
      <trkpt lat="43.47316" lon="6.89526">
        <ele>305.68041992188</ele>
        <time>2011-09-03T09:08:53Z</time>
      </trkpt>
      <trkpt lat="43.47317" lon="6.89525">
        <ele>305.7353515625</ele>
        <time>2011-09-03T09:08:57Z</time>
      </trkpt>
      <trkpt lat="43.47318" lon="6.89526">
        <ele>305.955078125</ele>
        <time>2011-09-03T09:09:03Z</time>
      </trkpt>
      <trkpt lat="43.47316" lon="6.89525">
        <ele>305.65295410156</ele>
        <time>2011-09-03T09:09:10Z</time>
      </trkpt>
      <trkpt lat="43.47318" lon="6.89525">
        <ele>305.83148193359</ele>
        <time>2011-09-03T09:09:16Z</time>
      </trkpt>
      <trkpt lat="43.47317" lon="6.89526">
        <ele>305.91387939453</ele>
        <time>2011-09-03T09:09:25Z</time>
      </trkpt>
      <trkpt lat="43.47317" lon="6.89526">
        <ele>305.90014648438</ele>
        <time>2011-09-03T09:09:28Z</time>
      </trkpt>
      <trkpt lat="43.47317" lon="6.89526">
        <ele>305.85894775391</ele>
        <time>2011-09-03T09:09:42Z</time>
      </trkpt>
      <trkpt lat="43.47318" lon="6.89526">
        <ele>305.94134521484</ele>
        <time>2011-09-03T09:09:52Z</time>
      </trkpt>
      <trkpt lat="43.47318" lon="6.89526">
        <ele>306.01000976562</ele>
        <time>2011-09-03T09:09:55Z</time>
      </trkpt>
      <trkpt lat="43.47317" lon="6.89528">
        <ele>306.53973388672</ele>
        <time>2011-09-03T09:10:14Z</time>
      </trkpt>
      <trkpt lat="43.47317" lon="6.89532">
        <ele>307.04672241211</ele>
        <time>2011-09-03T09:10:18Z</time>
      </trkpt>
      <trkpt lat="43.47317" lon="6.89532">
        <ele>307.17657470703</ele>
        <time>2011-09-03T09:10:19Z</time>
      </trkpt>
      <trkpt lat="43.47318" lon="6.89532">
        <ele>307.28387451172</ele>
        <time>2011-09-03T09:10:22Z</time>
      </trkpt>
      <trkpt lat="43.47321" lon="6.89533">
        <ele>308.14752197266</ele>
        <time>2011-09-03T09:10:27Z</time>
      </trkpt>
      <trkpt lat="43.47322" lon="6.89533">
        <ele>308.41082763672</ele>
        <time>2011-09-03T09:10:34Z</time>
      </trkpt>
      <trkpt lat="43.47321" lon="6.89534">
        <ele>308.26443481445</ele>
        <time>2011-09-03T09:10:56Z</time>
      </trkpt>
      <trkpt lat="43.47319" lon="6.89533">
        <ele>307.65274047852</ele>
        <time>2011-09-03T09:11:02Z</time>
      </trkpt>
      <trkpt lat="43.4732" lon="6.89532">
        <ele>307.82232666016</ele>
        <time>2011-09-03T09:11:06Z</time>
      </trkpt>
      <trkpt lat="43.47321" lon="6.89533">
        <ele>308.02282714844</ele>
        <time>2011-09-03T09:11:14Z</time>
      </trkpt>
      <trkpt lat="43.47321" lon="6.89532">
        <ele>307.93710327148</ele>
        <time>2011-09-03T09:11:22Z</time>
      </trkpt>
      <trkpt lat="43.47321" lon="6.89533">
        <ele>308.09979248047</ele>
        <time>2011-09-03T09:11:27Z</time>
      </trkpt>
      <trkpt lat="43.47322" lon="6.89534">
        <ele>308.48947143555</ele>
        <time>2011-09-03T09:11:31Z</time>
      </trkpt>
      <trkpt lat="43.47329" lon="6.89546">
        <ele>312.19842529297</ele>
        <time>2011-09-03T09:11:38Z</time>
      </trkpt>
      <trkpt lat="43.47337" lon="6.89565">
        <ele>317.04339599609</ele>
        <time>2011-09-03T09:11:43Z</time>
      </trkpt>
      <trkpt lat="43.47347" lon="6.89591">
        <ele>323.2802734375</ele>
        <time>2011-09-03T09:11:48Z</time>
      </trkpt>
      <trkpt lat="43.47356" lon="6.89603">
        <ele>327.17587280273</ele>
        <time>2011-09-03T09:11:51Z</time>
      </trkpt>
      <trkpt lat="43.47372" lon="6.89625">
        <ele>331.90670776367</ele>
        <time>2011-09-03T09:11:56Z</time>
      </trkpt>
      <trkpt lat="43.47376" lon="6.89626">
        <ele>331.88726806641</ele>
        <time>2011-09-03T09:11:57Z</time>
      </trkpt>
      <trkpt lat="43.4739" lon="6.89625">
        <ele>330.68640136719</ele>
        <time>2011-09-03T09:12:00Z</time>
      </trkpt>
      <trkpt lat="43.47412" lon="6.89622">
        <ele>325.24816894531</ele>
        <time>2011-09-03T09:12:05Z</time>
      </trkpt>
      <trkpt lat="43.47417" lon="6.8962">
        <ele>323.78756713867</ele>
        <time>2011-09-03T09:12:06Z</time>
      </trkpt>
      <trkpt lat="43.47429" lon="6.89616">
        <ele>322.19610595703</ele>
        <time>2011-09-03T09:12:12Z</time>
      </trkpt>
      <trkpt lat="43.47432" lon="6.89616">
        <ele>321.86157226562</ele>
        <time>2011-09-03T09:12:15Z</time>
      </trkpt>
      <trkpt lat="43.47441" lon="6.89612">
        <ele>320.49377441406</ele>
        <time>2011-09-03T09:12:21Z</time>
      </trkpt>
      <trkpt lat="43.47446" lon="6.89612">
        <ele>320.01208496094</ele>
        <time>2011-09-03T09:12:24Z</time>
      </trkpt>
      <trkpt lat="43.47454" lon="6.89612">
        <ele>319.06854248047</ele>
        <time>2011-09-03T09:12:30Z</time>
      </trkpt>
      <trkpt lat="43.47465" lon="6.89606">
        <ele>316.39627075195</ele>
        <time>2011-09-03T09:12:37Z</time>
      </trkpt>
      <trkpt lat="43.47474" lon="6.896">
        <ele>314.56970214844</ele>
        <time>2011-09-03T09:12:44Z</time>
      </trkpt>
      <trkpt lat="43.47478" lon="6.89597">
        <ele>314.64007568359</ele>
        <time>2011-09-03T09:12:47Z</time>
      </trkpt>
      <trkpt lat="43.47488" lon="6.89594">
        <ele>315.41943359375</ele>
        <time>2011-09-03T09:12:54Z</time>
      </trkpt>
      <trkpt lat="43.47496" lon="6.89591">
        <ele>316.28115844727</ele>
        <time>2011-09-03T09:13:00Z</time>
      </trkpt>
      <trkpt lat="43.47506" lon="6.89587">
        <ele>316.57196044922</ele>
        <time>2011-09-03T09:13:07Z</time>
      </trkpt>
      <trkpt lat="43.47514" lon="6.89581">
        <ele>316.01486206055</ele>
        <time>2011-09-03T09:13:14Z</time>
      </trkpt>
      <trkpt lat="43.47519" lon="6.89577">
        <ele>315.64733886719</ele>
        <time>2011-09-03T09:13:19Z</time>
      </trkpt>
      <trkpt lat="43.47527" lon="6.8957">
        <ele>315.15686035156</ele>
        <time>2011-09-03T09:13:26Z</time>
      </trkpt>
      <trkpt lat="43.47537" lon="6.89563">
        <ele>316.62493896484</ele>
        <time>2011-09-03T09:13:34Z</time>
      </trkpt>
      <trkpt lat="43.4754" lon="6.8956">
        <ele>316.82015991211</ele>
        <time>2011-09-03T09:13:37Z</time>
      </trkpt>
      <trkpt lat="43.47545" lon="6.89556">
        <ele>317.06732177734</ele>
        <time>2011-09-03T09:13:41Z</time>
      </trkpt>
      <trkpt lat="43.47553" lon="6.89546">
        <ele>318.59661865234</ele>
        <time>2011-09-03T09:13:49Z</time>
      </trkpt>
      <trkpt lat="43.47559" lon="6.89539">
        <ele>320.35778808594</ele>
        <time>2011-09-03T09:13:55Z</time>
      </trkpt>
      <trkpt lat="43.47564" lon="6.89532">
        <ele>321.67919921875</ele>
        <time>2011-09-03T09:14:01Z</time>
      </trkpt>
      <trkpt lat="43.47565" lon="6.89529">
        <ele>321.99673461914</ele>
        <time>2011-09-03T09:14:08Z</time>
      </trkpt>
      <trkpt lat="43.47569" lon="6.89526">
        <ele>322.68185424805</ele>
        <time>2011-09-03T09:14:14Z</time>
      </trkpt>
      <trkpt lat="43.4757" lon="6.89529">
        <ele>323.67611694336</ele>
        <time>2011-09-03T09:14:19Z</time>
      </trkpt>
      <trkpt lat="43.47567" lon="6.89534">
        <ele>323.18304443359</ele>
        <time>2011-09-03T09:14:28Z</time>
      </trkpt>
      <trkpt lat="43.47566" lon="6.89535">
        <ele>322.80310058594</ele>
        <time>2011-09-03T09:14:32Z</time>
      </trkpt>
      <trkpt lat="43.47565" lon="6.89536">
        <ele>322.47265625</ele>
        <time>2011-09-03T09:14:37Z</time>
      </trkpt>
      <trkpt lat="43.47564" lon="6.89541">
        <ele>322.25646972656</ele>
        <time>2011-09-03T09:14:42Z</time>
      </trkpt>
      <trkpt lat="43.47563" lon="6.89543">
        <ele>322.29016113281</ele>
        <time>2011-09-03T09:14:43Z</time>
      </trkpt>
      <trkpt lat="43.47562" lon="6.8955">
        <ele>322.15798950195</ele>
        <time>2011-09-03T09:14:49Z</time>
      </trkpt>
      <trkpt lat="43.47561" lon="6.89552">
        <ele>322.03744506836</ele>
        <time>2011-09-03T09:14:51Z</time>
      </trkpt>
      <trkpt lat="43.47558" lon="6.8956">
        <ele>322.31295776367</ele>
        <time>2011-09-03T09:14:57Z</time>
      </trkpt>
      <trkpt lat="43.47555" lon="6.89572">
        <ele>324.37033081055</ele>
        <time>2011-09-03T09:15:03Z</time>
      </trkpt>
      <trkpt lat="43.47551" lon="6.89582">
        <ele>326.1057434082</ele>
        <time>2011-09-03T09:15:10Z</time>
      </trkpt>
      <trkpt lat="43.47547" lon="6.8959">
        <ele>327.02499389648</ele>
        <time>2011-09-03T09:15:16Z</time>
      </trkpt>
      <trkpt lat="43.47544" lon="6.896">
        <ele>328.83282470703</ele>
        <time>2011-09-03T09:15:22Z</time>
      </trkpt>
      <trkpt lat="43.47538" lon="6.89607">
        <ele>328.12130737305</ele>
        <time>2011-09-03T09:15:29Z</time>
      </trkpt>
      <trkpt lat="43.47536" lon="6.89609">
        <ele>328.0129699707</ele>
        <time>2011-09-03T09:15:31Z</time>
      </trkpt>
      <trkpt lat="43.47531" lon="6.89624">
        <ele>329.01638793945</ele>
        <time>2011-09-03T09:15:41Z</time>
      </trkpt>
      <trkpt lat="43.47527" lon="6.89633">
        <ele>329.685546875</ele>
        <time>2011-09-03T09:15:48Z</time>
      </trkpt>
      <trkpt lat="43.47523" lon="6.89643">
        <ele>331.64889526367</ele>
        <time>2011-09-03T09:15:54Z</time>
      </trkpt>
      <trkpt lat="43.47519" lon="6.89651">
        <ele>334.07446289062</ele>
        <time>2011-09-03T09:16:00Z</time>
      </trkpt>
      <trkpt lat="43.47513" lon="6.89659">
        <ele>335.97991943359</ele>
        <time>2011-09-03T09:16:07Z</time>
      </trkpt>
      <trkpt lat="43.47509" lon="6.89666">
        <ele>337.57122802734</ele>
        <time>2011-09-03T09:16:14Z</time>
      </trkpt>
      <trkpt lat="43.47504" lon="6.89672">
        <ele>340.52542114258</ele>
        <time>2011-09-03T09:16:19Z</time>
      </trkpt>
      <trkpt lat="43.47497" lon="6.8968">
        <ele>344.18338012695</ele>
        <time>2011-09-03T09:16:27Z</time>
      </trkpt>
      <trkpt lat="43.47491" lon="6.89687">
        <ele>346.76162719727</ele>
        <time>2011-09-03T09:16:34Z</time>
      </trkpt>
      <trkpt lat="43.47488" lon="6.8969">
        <ele>347.51162719727</ele>
        <time>2011-09-03T09:16:38Z</time>
      </trkpt>
      <trkpt lat="43.47489" lon="6.89691">
        <ele>348.17239379883</ele>
        <time>2011-09-03T09:16:40Z</time>
      </trkpt>
      <trkpt lat="43.47495" lon="6.8969">
        <ele>349.46215820312</ele>
        <time>2011-09-03T09:16:45Z</time>
      </trkpt>
      <trkpt lat="43.47497" lon="6.89691">
        <ele>350.20840454102</ele>
        <time>2011-09-03T09:16:47Z</time>
      </trkpt>
      <trkpt lat="43.47505" lon="6.89691">
        <ele>352.21017456055</ele>
        <time>2011-09-03T09:16:54Z</time>
      </trkpt>
      <trkpt lat="43.47506" lon="6.89691">
        <ele>352.65243530273</ele>
        <time>2011-09-03T09:16:55Z</time>
      </trkpt>
      <trkpt lat="43.47515" lon="6.8969">
        <ele>353.88513183594</ele>
        <time>2011-09-03T09:17:04Z</time>
      </trkpt>
      <trkpt lat="43.47514" lon="6.89688">
        <ele>352.34002685547</ele>
        <time>2011-09-03T09:17:12Z</time>
      </trkpt>
      <trkpt lat="43.47517" lon="6.89686">
        <ele>351.48101806641</ele>
        <time>2011-09-03T09:17:24Z</time>
      </trkpt>
      <trkpt lat="43.4752" lon="6.89686">
        <ele>352.07669067383</ele>
        <time>2011-09-03T09:17:31Z</time>
      </trkpt>
      <trkpt lat="43.47527" lon="6.89685">
        <ele>352.78842163086</ele>
        <time>2011-09-03T09:17:37Z</time>
      </trkpt>
      <trkpt lat="43.47536" lon="6.89685">
        <ele>357.17596435547</ele>
        <time>2011-09-03T09:17:43Z</time>
      </trkpt>
      <trkpt lat="43.47543" lon="6.89683">
        <ele>359.18948364258</ele>
        <time>2011-09-03T09:17:49Z</time>
      </trkpt>
      <trkpt lat="43.47546" lon="6.89682">
        <ele>360.14727783203</ele>
        <time>2011-09-03T09:17:51Z</time>
      </trkpt>
      <trkpt lat="43.4755" lon="6.89678">
        <ele>359.94641113281</ele>
        <time>2011-09-03T09:17:55Z</time>
      </trkpt>
      <trkpt lat="43.47557" lon="6.89674">
        <ele>360.57940673828</ele>
        <time>2011-09-03T09:18:01Z</time>
      </trkpt>
      <trkpt lat="43.47564" lon="6.89668">
        <ele>359.00863647461</ele>
        <time>2011-09-03T09:18:07Z</time>
      </trkpt>
      <trkpt lat="43.47569" lon="6.89664">
        <ele>359.06851196289</ele>
        <time>2011-09-03T09:18:12Z</time>
      </trkpt>
      <trkpt lat="43.47577" lon="6.89655">
        <ele>358.46209716797</ele>
        <time>2011-09-03T09:18:20Z</time>
      </trkpt>
      <trkpt lat="43.47583" lon="6.89653">
        <ele>359.91012573242</ele>
        <time>2011-09-03T09:18:25Z</time>
      </trkpt>
      <trkpt lat="43.4759" lon="6.8965">
        <ele>358.60498046875</ele>
        <time>2011-09-03T09:18:31Z</time>
      </trkpt>
      <trkpt lat="43.47593" lon="6.89649">
        <ele>358.06582641602</ele>
        <time>2011-09-03T09:18:34Z</time>
      </trkpt>
      <trkpt lat="43.476" lon="6.89645">
        <ele>356.32638549805</ele>
        <time>2011-09-03T09:18:41Z</time>
      </trkpt>
      <trkpt lat="43.47601" lon="6.89644">
        <ele>356.14706420898</ele>
        <time>2011-09-03T09:18:46Z</time>
      </trkpt>
      <trkpt lat="43.47604" lon="6.89643">
        <ele>355.59963989258</ele>
        <time>2011-09-03T09:18:51Z</time>
      </trkpt>
      <trkpt lat="43.47614" lon="6.89634">
        <ele>351.69973754883</ele>
        <time>2011-09-03T09:19:00Z</time>
      </trkpt>
      <trkpt lat="43.47622" lon="6.89632">
        <ele>347.46450805664</ele>
        <time>2011-09-03T09:19:07Z</time>
      </trkpt>
      <trkpt lat="43.47624" lon="6.89633">
        <ele>346.63491821289</ele>
        <time>2011-09-03T09:19:11Z</time>
      </trkpt>
      <trkpt lat="43.47623" lon="6.89633">
        <ele>347.06768798828</ele>
        <time>2011-09-03T09:19:15Z</time>
      </trkpt>
      <trkpt lat="43.47622" lon="6.89631">
        <ele>347.27380371094</ele>
        <time>2011-09-03T09:19:21Z</time>
      </trkpt>
      <trkpt lat="43.47622" lon="6.8963">
        <ele>347.14410400391</ele>
        <time>2011-09-03T09:19:30Z</time>
      </trkpt>
      <trkpt lat="43.47622" lon="6.89629">
        <ele>346.86380004883</ele>
        <time>2011-09-03T09:19:42Z</time>
      </trkpt>
      <trkpt lat="43.47622" lon="6.89629">
        <ele>346.96102905273</ele>
        <time>2011-09-03T09:19:49Z</time>
      </trkpt>
      <trkpt lat="43.47622" lon="6.89629">
        <ele>346.76586914062</ele>
        <time>2011-09-03T09:19:53Z</time>
      </trkpt>
      <trkpt lat="43.47623" lon="6.89631">
        <ele>346.68569946289</ele>
        <time>2011-09-03T09:19:57Z</time>
      </trkpt>
      <trkpt lat="43.47623" lon="6.89632">
        <ele>347.08459472656</ele>
        <time>2011-09-03T09:20:02Z</time>
      </trkpt>
      <trkpt lat="43.47622" lon="6.89631">
        <ele>347.45025634766</ele>
        <time>2011-09-03T09:20:08Z</time>
      </trkpt>
      <trkpt lat="43.47621" lon="6.89629">
        <ele>347.29837036133</ele>
        <time>2011-09-03T09:20:14Z</time>
      </trkpt>
      <trkpt lat="43.47621" lon="6.89629">
        <ele>347.23583984375</ele>
        <time>2011-09-03T09:20:21Z</time>
      </trkpt>
      <trkpt lat="43.47621" lon="6.89628">
        <ele>347.07168579102</ele>
        <time>2011-09-03T09:20:35Z</time>
      </trkpt>
      <trkpt lat="43.47621" lon="6.89627">
        <ele>347.18603515625</ele>
        <time>2011-09-03T09:20:46Z</time>
      </trkpt>
      <trkpt lat="43.47624" lon="6.89626">
        <ele>345.60433959961</ele>
        <time>2011-09-03T09:21:03Z</time>
      </trkpt>
      <trkpt lat="43.47622" lon="6.89626">
        <ele>346.67025756836</ele>
        <time>2011-09-03T09:21:17Z</time>
      </trkpt>
      <trkpt lat="43.47621" lon="6.89626">
        <ele>346.81372070312</ele>
        <time>2011-09-03T09:21:23Z</time>
      </trkpt>
      <trkpt lat="43.47621" lon="6.89626">
        <ele>347.03573608398</ele>
        <time>2011-09-03T09:21:37Z</time>
      </trkpt>
      <trkpt lat="43.47622" lon="6.89628">
        <ele>346.97143554688</ele>
        <time>2011-09-03T09:21:44Z</time>
      </trkpt>
      <trkpt lat="43.4762" lon="6.89628">
        <ele>347.91455078125</ele>
        <time>2011-09-03T09:21:55Z</time>
      </trkpt>
      <trkpt lat="43.4762" lon="6.89628">
        <ele>347.91455078125</ele>
        <time>2011-09-03T09:22:02Z</time>
      </trkpt>
      <trkpt lat="43.4762" lon="6.89628">
        <ele>347.5712890625</ele>
        <time>2011-09-03T09:22:12Z</time>
      </trkpt>
      <trkpt lat="43.47622" lon="6.89628">
        <ele>346.78558349609</ele>
        <time>2011-09-03T09:22:40Z</time>
      </trkpt>
      <trkpt lat="43.47622" lon="6.89627">
        <ele>346.55490112305</ele>
        <time>2011-09-03T09:22:59Z</time>
      </trkpt>
      <trkpt lat="43.47623" lon="6.89627">
        <ele>346.07601928711</ele>
        <time>2011-09-03T09:23:03Z</time>
      </trkpt>
      <trkpt lat="43.47626" lon="6.89627">
        <ele>344.76608276367</ele>
        <time>2011-09-03T09:23:12Z</time>
      </trkpt>
      <trkpt lat="43.47625" lon="6.89624">
        <ele>344.86553955078</ele>
        <time>2011-09-03T09:23:26Z</time>
      </trkpt>
      <trkpt lat="43.47623" lon="6.89624">
        <ele>345.79006958008</ele>
        <time>2011-09-03T09:23:33Z</time>
      </trkpt>
      <trkpt lat="43.47624" lon="6.89628">
        <ele>345.97650146484</ele>
        <time>2011-09-03T09:23:40Z</time>
      </trkpt>
      <trkpt lat="43.47624" lon="6.8963">
        <ele>346.25561523438</ele>
        <time>2011-09-03T09:23:43Z</time>
      </trkpt>
      <trkpt lat="43.47624" lon="6.89628">
        <ele>345.81964111328</ele>
        <time>2011-09-03T09:23:58Z</time>
      </trkpt>
      <trkpt lat="43.47625" lon="6.89628">
        <ele>345.55093383789</ele>
        <time>2011-09-03T09:24:20Z</time>
      </trkpt>
      <trkpt lat="43.47625" lon="6.89629">
        <ele>345.82965087891</ele>
        <time>2011-09-03T09:24:28Z</time>
      </trkpt>
      <trkpt lat="43.47623" lon="6.89631">
        <ele>346.53176879883</ele>
        <time>2011-09-03T09:24:39Z</time>
      </trkpt>
      <trkpt lat="43.47623" lon="6.89631">
        <ele>346.75183105469</ele>
        <time>2011-09-03T09:24:51Z</time>
      </trkpt>
      <trkpt lat="43.47624" lon="6.8963">
        <ele>346.10214233398</ele>
        <time>2011-09-03T09:25:25Z</time>
      </trkpt>
      <trkpt lat="43.47624" lon="6.8963">
        <ele>346.10919189453</ele>
        <time>2011-09-03T09:25:29Z</time>
      </trkpt>
      <trkpt lat="43.47625" lon="6.8963">
        <ele>345.88540649414</ele>
        <time>2011-09-03T09:25:41Z</time>
      </trkpt>
      <trkpt lat="43.47625" lon="6.8963">
        <ele>345.66290283203</ele>
        <time>2011-09-03T09:25:52Z</time>
      </trkpt>
      <trkpt lat="43.47625" lon="6.8963">
        <ele>345.69039916992</ele>
        <time>2011-09-03T09:25:57Z</time>
      </trkpt>
      <trkpt lat="43.47625" lon="6.8963">
        <ele>345.87841796875</ele>
        <time>2011-09-03T09:26:04Z</time>
      </trkpt>
      <trkpt lat="43.47625" lon="6.8963">
        <ele>345.61801147461</ele>
        <time>2011-09-03T09:26:13Z</time>
      </trkpt>
      <trkpt lat="43.47625" lon="6.89631">
        <ele>345.69259643555</ele>
        <time>2011-09-03T09:26:20Z</time>
      </trkpt>
      <trkpt lat="43.47625" lon="6.89631">
        <ele>345.94473266602</ele>
        <time>2011-09-03T09:26:42Z</time>
      </trkpt>
      <trkpt lat="43.47625" lon="6.89632">
        <ele>345.95162963867</ele>
        <time>2011-09-03T09:26:47Z</time>
      </trkpt>
      <trkpt lat="43.47625" lon="6.89632">
        <ele>346.13626098633</ele>
        <time>2011-09-03T09:26:57Z</time>
      </trkpt>
      <trkpt lat="43.47623" lon="6.89632">
        <ele>346.88403320312</ele>
        <time>2011-09-03T09:27:22Z</time>
      </trkpt>
      <trkpt lat="43.47623" lon="6.89632">
        <ele>346.93545532227</ele>
        <time>2011-09-03T09:27:53Z</time>
      </trkpt>
      <trkpt lat="43.47623" lon="6.89632">
        <ele>347.09204101562</ele>
        <time>2011-09-03T09:28:12Z</time>
      </trkpt>
      <trkpt lat="43.47623" lon="6.89632">
        <ele>347.0771484375</ele>
        <time>2011-09-03T09:28:16Z</time>
      </trkpt>
      <trkpt lat="43.47623" lon="6.89632">
        <ele>347.06970214844</ele>
        <time>2011-09-03T09:28:24Z</time>
      </trkpt>
      <trkpt lat="43.47623" lon="6.89632">
        <ele>347.06225585938</ele>
        <time>2011-09-03T09:28:31Z</time>
      </trkpt>
      <trkpt lat="43.47623" lon="6.89632">
        <ele>347.09204101562</ele>
        <time>2011-09-03T09:28:38Z</time>
      </trkpt>
      <trkpt lat="43.47623" lon="6.89633">
        <ele>346.95233154297</ele>
        <time>2011-09-03T09:28:40Z</time>
      </trkpt>
      <trkpt lat="43.4762" lon="6.89647">
        <ele>351.58831787109</ele>
        <time>2011-09-03T09:28:46Z</time>
      </trkpt>
      <trkpt lat="43.47623" lon="6.89667">
        <ele>354.03707885742</ele>
        <time>2011-09-03T09:28:51Z</time>
      </trkpt>
      <trkpt lat="43.47621" lon="6.89682">
        <ele>357.53726196289</ele>
        <time>2011-09-03T09:28:56Z</time>
      </trkpt>
      <trkpt lat="43.47622" lon="6.89699">
        <ele>359.65841674805</ele>
        <time>2011-09-03T09:29:03Z</time>
      </trkpt>
      <trkpt lat="43.47619" lon="6.89712">
        <ele>363.1706237793</ele>
        <time>2011-09-03T09:29:08Z</time>
      </trkpt>
      <trkpt lat="43.47612" lon="6.89729">
        <ele>369.36694335938</ele>
        <time>2011-09-03T09:29:14Z</time>
      </trkpt>
      <trkpt lat="43.47609" lon="6.89743">
        <ele>372.64370727539</ele>
        <time>2011-09-03T09:29:18Z</time>
      </trkpt>
      <trkpt lat="43.47608" lon="6.89769">
        <ele>377.40405273438</ele>
        <time>2011-09-03T09:29:23Z</time>
      </trkpt>
      <trkpt lat="43.47614" lon="6.89794">
        <ele>377.20895385742</ele>
        <time>2011-09-03T09:29:27Z</time>
      </trkpt>
      <trkpt lat="43.47622" lon="6.89811">
        <ele>372.79605102539</ele>
        <time>2011-09-03T09:29:30Z</time>
      </trkpt>
      <trkpt lat="43.47626" lon="6.89835">
        <ele>371.86233520508</ele>
        <time>2011-09-03T09:29:34Z</time>
      </trkpt>
      <trkpt lat="43.47625" lon="6.89847">
        <ele>373.12393188477</ele>
        <time>2011-09-03T09:29:36Z</time>
      </trkpt>
      <trkpt lat="43.4762" lon="6.89873">
        <ele>377.58746337891</ele>
        <time>2011-09-03T09:29:40Z</time>
      </trkpt>
      <trkpt lat="43.47616" lon="6.89897">
        <ele>382.31076049805</ele>
        <time>2011-09-03T09:29:44Z</time>
      </trkpt>
      <trkpt lat="43.47616" lon="6.89922">
        <ele>383.09982299805</ele>
        <time>2011-09-03T09:29:48Z</time>
      </trkpt>
      <trkpt lat="43.47618" lon="6.89949">
        <ele>382.2021484375</ele>
        <time>2011-09-03T09:29:52Z</time>
      </trkpt>
      <trkpt lat="43.47617" lon="6.8997">
        <ele>385.01831054688</ele>
        <time>2011-09-03T09:29:56Z</time>
      </trkpt>
      <trkpt lat="43.47618" lon="6.8999">
        <ele>385.77383422852</ele>
        <time>2011-09-03T09:30:00Z</time>
      </trkpt>
      <trkpt lat="43.47622" lon="6.90013">
        <ele>384.74703979492</ele>
        <time>2011-09-03T09:30:05Z</time>
      </trkpt>
      <trkpt lat="43.47626" lon="6.90037">
        <ele>383.3078918457</ele>
        <time>2011-09-03T09:30:10Z</time>
      </trkpt>
      <trkpt lat="43.47635" lon="6.90055">
        <ele>379.17880249023</ele>
        <time>2011-09-03T09:30:14Z</time>
      </trkpt>
      <trkpt lat="43.47641" lon="6.90069">
        <ele>377.96987915039</ele>
        <time>2011-09-03T09:30:19Z</time>
      </trkpt>
      <trkpt lat="43.47644" lon="6.90077">
        <ele>377.70629882812</ele>
        <time>2011-09-03T09:30:22Z</time>
      </trkpt>
      <trkpt lat="43.47646" lon="6.90083">
        <ele>377.9973449707</ele>
        <time>2011-09-03T09:30:25Z</time>
      </trkpt>
      <trkpt lat="43.47653" lon="6.90092">
        <ele>376.29858398438</ele>
        <time>2011-09-03T09:30:30Z</time>
      </trkpt>
      <trkpt lat="43.47654" lon="6.90096">
        <ele>376.47024536133</ele>
        <time>2011-09-03T09:30:32Z</time>
      </trkpt>
      <trkpt lat="43.47656" lon="6.90107">
        <ele>376.90969848633</ele>
        <time>2011-09-03T09:30:37Z</time>
      </trkpt>
      <trkpt lat="43.47657" lon="6.90109">
        <ele>377.0126953125</ele>
        <time>2011-09-03T09:30:38Z</time>
      </trkpt>
      <trkpt lat="43.47665" lon="6.9012">
        <ele>376.05160522461</ele>
        <time>2011-09-03T09:30:44Z</time>
      </trkpt>
      <trkpt lat="43.47667" lon="6.90126">
        <ele>376.60043334961</ele>
        <time>2011-09-03T09:30:48Z</time>
      </trkpt>
      <trkpt lat="43.47669" lon="6.90129">
        <ele>376.98812866211</ele>
        <time>2011-09-03T09:30:51Z</time>
      </trkpt>
      <trkpt lat="43.47674" lon="6.90138">
        <ele>378.18948364258</ele>
        <time>2011-09-03T09:30:58Z</time>
      </trkpt>
      <trkpt lat="43.47675" lon="6.90144">
        <ele>379.6474609375</ele>
        <time>2011-09-03T09:31:02Z</time>
      </trkpt>
      <trkpt lat="43.47681" lon="6.90153">
        <ele>380.99328613281</ele>
        <time>2011-09-03T09:31:08Z</time>
      </trkpt>
      <trkpt lat="43.47689" lon="6.90164">
        <ele>382.57257080078</ele>
        <time>2011-09-03T09:31:16Z</time>
      </trkpt>
      <trkpt lat="43.47696" lon="6.90172">
        <ele>382.81555175781</ele>
        <time>2011-09-03T09:31:22Z</time>
      </trkpt>
      <trkpt lat="43.47698" lon="6.90176">
        <ele>382.92749023438</ele>
        <time>2011-09-03T09:31:30Z</time>
      </trkpt>
      <trkpt lat="43.477" lon="6.90181">
        <ele>383.32403564453</ele>
        <time>2011-09-03T09:31:36Z</time>
      </trkpt>
      <trkpt lat="43.477" lon="6.90184">
        <ele>384.01629638672</ele>
        <time>2011-09-03T09:31:43Z</time>
      </trkpt>
      <trkpt lat="43.47702" lon="6.90194">
        <ele>385.75869750977</ele>
        <time>2011-09-03T09:31:51Z</time>
      </trkpt>
      <trkpt lat="43.47701" lon="6.90201">
        <ele>388.33517456055</ele>
        <time>2011-09-03T09:31:58Z</time>
      </trkpt>
      <trkpt lat="43.477" lon="6.90209">
        <ele>391.27807617188</ele>
        <time>2011-09-03T09:32:07Z</time>
      </trkpt>
      <trkpt lat="43.477" lon="6.90216">
        <ele>393.45523071289</ele>
        <time>2011-09-03T09:32:12Z</time>
      </trkpt>
      <trkpt lat="43.477" lon="6.90217">
        <ele>393.98782348633</ele>
        <time>2011-09-03T09:32:13Z</time>
      </trkpt>
      <trkpt lat="43.47703" lon="6.90226">
        <ele>396.47412109375</ele>
        <time>2011-09-03T09:32:17Z</time>
      </trkpt>
      <trkpt lat="43.47704" lon="6.90232">
        <ele>398.32965087891</ele>
        <time>2011-09-03T09:32:20Z</time>
      </trkpt>
      <trkpt lat="43.47706" lon="6.90243">
        <ele>401.90591430664</ele>
        <time>2011-09-03T09:32:27Z</time>
      </trkpt>
      <trkpt lat="43.47707" lon="6.90245">
        <ele>402.42144775391</ele>
        <time>2011-09-03T09:32:29Z</time>
      </trkpt>
      <trkpt lat="43.47716" lon="6.90259">
        <ele>404.99038696289</ele>
        <time>2011-09-03T09:32:36Z</time>
      </trkpt>
      <trkpt lat="43.47725" lon="6.90269">
        <ele>406.71984863281</ele>
        <time>2011-09-03T09:32:41Z</time>
      </trkpt>
      <trkpt lat="43.47727" lon="6.90271">
        <ele>407.24188232422</ele>
        <time>2011-09-03T09:32:42Z</time>
      </trkpt>
      <trkpt lat="43.47732" lon="6.90283">
        <ele>412.09994506836</ele>
        <time>2011-09-03T09:32:50Z</time>
      </trkpt>
      <trkpt lat="43.47736" lon="6.90286">
        <ele>413.18640136719</ele>
        <time>2011-09-03T09:32:53Z</time>
      </trkpt>
      <trkpt lat="43.47747" lon="6.9029">
        <ele>413.70327758789</ele>
        <time>2011-09-03T09:32:59Z</time>
      </trkpt>
      <trkpt lat="43.4775" lon="6.90292">
        <ele>414.02633666992</ele>
        <time>2011-09-03T09:33:01Z</time>
      </trkpt>
      <trkpt lat="43.47761" lon="6.90294">
        <ele>415.81604003906</ele>
        <time>2011-09-03T09:33:07Z</time>
      </trkpt>
      <trkpt lat="43.47769" lon="6.90294">
        <ele>416.35162353516</ele>
        <time>2011-09-03T09:33:12Z</time>
      </trkpt>
      <trkpt lat="43.47782" lon="6.90293">
        <ele>415.97821044922</ele>
        <time>2011-09-03T09:33:18Z</time>
      </trkpt>
      <trkpt lat="43.47791" lon="6.90296">
        <ele>415.42684936523</ele>
        <time>2011-09-03T09:33:24Z</time>
      </trkpt>
      <trkpt lat="43.47796" lon="6.90297">
        <ele>414.79141235352</ele>
        <time>2011-09-03T09:33:28Z</time>
      </trkpt>
      <trkpt lat="43.47808" lon="6.90296">
        <ele>411.87371826172</ele>
        <time>2011-09-03T09:33:34Z</time>
      </trkpt>
      <trkpt lat="43.4782" lon="6.90294">
        <ele>408.11004638672</ele>
        <time>2011-09-03T09:33:40Z</time>
      </trkpt>
      <trkpt lat="43.47832" lon="6.90292">
        <ele>404.27429199219</ele>
        <time>2011-09-03T09:33:46Z</time>
      </trkpt>
      <trkpt lat="43.47848" lon="6.90291">
        <ele>399.59466552734</ele>
        <time>2011-09-03T09:33:54Z</time>
      </trkpt>
      <trkpt lat="43.47861" lon="6.90295">
        <ele>397.04034423828</ele>
        <time>2011-09-03T09:34:01Z</time>
      </trkpt>
      <trkpt lat="43.47873" lon="6.90302">
        <ele>392.41506958008</ele>
        <time>2011-09-03T09:34:08Z</time>
      </trkpt>
      <trkpt lat="43.47886" lon="6.90308">
        <ele>385.82052612305</ele>
        <time>2011-09-03T09:34:16Z</time>
      </trkpt>
      <trkpt lat="43.47901" lon="6.90312">
        <ele>376.10488891602</ele>
        <time>2011-09-03T09:34:24Z</time>
      </trkpt>
      <trkpt lat="43.47908" lon="6.90314">
        <ele>371.22970581055</ele>
        <time>2011-09-03T09:34:28Z</time>
      </trkpt>
      <trkpt lat="43.47918" lon="6.90315">
        <ele>363.48965454102</ele>
        <time>2011-09-03T09:34:33Z</time>
      </trkpt>
      <trkpt lat="43.47924" lon="6.90322">
        <ele>357.87045288086</ele>
        <time>2011-09-03T09:34:38Z</time>
      </trkpt>
      <trkpt lat="43.47929" lon="6.90328">
        <ele>353.03570556641</ele>
        <time>2011-09-03T09:34:44Z</time>
      </trkpt>
      <trkpt lat="43.47929" lon="6.90328">
        <ele>352.98495483398</ele>
        <time>2011-09-03T09:34:50Z</time>
      </trkpt>
      <trkpt lat="43.47929" lon="6.90328">
        <ele>352.08853149414</ele>
        <time>2011-09-03T09:34:59Z</time>
      </trkpt>
      <trkpt lat="43.47927" lon="6.90327">
        <ele>354.75897216797</ele>
        <time>2011-09-03T09:35:02Z</time>
      </trkpt>
      <trkpt lat="43.47927" lon="6.90326">
        <ele>354.66058349609</ele>
        <time>2011-09-03T09:35:08Z</time>
      </trkpt>
      <trkpt lat="43.47928" lon="6.90325">
        <ele>353.74020385742</ele>
        <time>2011-09-03T09:35:16Z</time>
      </trkpt>
      <trkpt lat="43.47928" lon="6.90325">
        <ele>353.74359130859</ele>
        <time>2011-09-03T09:35:22Z</time>
      </trkpt>
      <trkpt lat="43.47928" lon="6.90325">
        <ele>353.27630615234</ele>
        <time>2011-09-03T09:35:28Z</time>
      </trkpt>
      <trkpt lat="43.47931" lon="6.90327">
        <ele>350.23471069336</ele>
        <time>2011-09-03T09:35:33Z</time>
      </trkpt>
      <trkpt lat="43.47931" lon="6.90326">
        <ele>350.64950561523</ele>
        <time>2011-09-03T09:35:38Z</time>
      </trkpt>
      <trkpt lat="43.47931" lon="6.90327">
        <ele>350.25689697266</ele>
        <time>2011-09-03T09:35:43Z</time>
      </trkpt>
      <trkpt lat="43.47931" lon="6.90328">
        <ele>350.73733520508</ele>
        <time>2011-09-03T09:35:47Z</time>
      </trkpt>
      <trkpt lat="43.47931" lon="6.90328">
        <ele>350.72183227539</ele>
        <time>2011-09-03T09:35:56Z</time>
      </trkpt>
      <trkpt lat="43.47931" lon="6.90327">
        <ele>349.81192016602</ele>
        <time>2011-09-03T09:35:59Z</time>
      </trkpt>
      <trkpt lat="43.47931" lon="6.90327">
        <ele>350.2223815918</ele>
        <time>2011-09-03T09:36:04Z</time>
      </trkpt>
      <trkpt lat="43.47933" lon="6.90331">
        <ele>348.12997436523</ele>
        <time>2011-09-03T09:36:10Z</time>
      </trkpt>
      <trkpt lat="43.47928" lon="6.90339">
        <ele>354.06369018555</ele>
        <time>2011-09-03T09:36:14Z</time>
      </trkpt>
      <trkpt lat="43.47919" lon="6.90348">
        <ele>365.39334106445</ele>
        <time>2011-09-03T09:36:17Z</time>
      </trkpt>
      <trkpt lat="43.47915" lon="6.90353">
        <ele>369.04232788086</ele>
        <time>2011-09-03T09:36:18Z</time>
      </trkpt>
      <trkpt lat="43.47912" lon="6.90358">
        <ele>371.34729003906</ele>
        <time>2011-09-03T09:36:19Z</time>
      </trkpt>
      <trkpt lat="43.47902" lon="6.90377">
        <ele>376.59167480469</ele>
        <time>2011-09-03T09:36:22Z</time>
      </trkpt>
      <trkpt lat="43.47894" lon="6.90399">
        <ele>382.09567260742</ele>
        <time>2011-09-03T09:36:25Z</time>
      </trkpt>
      <trkpt lat="43.47889" lon="6.90425">
        <ele>385.59240722656</ele>
        <time>2011-09-03T09:36:28Z</time>
      </trkpt>
      <trkpt lat="43.4789" lon="6.90476">
        <ele>379.52963256836</ele>
        <time>2011-09-03T09:36:33Z</time>
      </trkpt>
      <trkpt lat="43.47888" lon="6.90552">
        <ele>344.01766967773</ele>
        <time>2011-09-03T09:36:40Z</time>
      </trkpt>
      <trkpt lat="43.47879" lon="6.90591">
        <ele>340.29565429688</ele>
        <time>2011-09-03T09:36:44Z</time>
      </trkpt>
      <trkpt lat="43.47865" lon="6.90635">
        <ele>333.92922973633</ele>
        <time>2011-09-03T09:36:49Z</time>
      </trkpt>
      <trkpt lat="43.47845" lon="6.90658">
        <ele>337.92471313477</ele>
        <time>2011-09-03T09:36:53Z</time>
      </trkpt>
      <trkpt lat="43.47828" lon="6.90677">
        <ele>344.2333984375</ele>
        <time>2011-09-03T09:36:56Z</time>
      </trkpt>
      <trkpt lat="43.4781" lon="6.9069">
        <ele>357.19329833984</ele>
        <time>2011-09-03T09:37:00Z</time>
      </trkpt>
      <trkpt lat="43.47797" lon="6.90697">
        <ele>367.47988891602</ele>
        <time>2011-09-03T09:37:03Z</time>
      </trkpt>
      <trkpt lat="43.47779" lon="6.90713">
        <ele>384.74630737305</ele>
        <time>2011-09-03T09:37:07Z</time>
      </trkpt>
      <trkpt lat="43.47765" lon="6.90736">
        <ele>390.07183837891</ele>
        <time>2011-09-03T09:37:11Z</time>
      </trkpt>
      <trkpt lat="43.47749" lon="6.90752">
        <ele>398.01043701172</ele>
        <time>2011-09-03T09:37:15Z</time>
      </trkpt>
      <trkpt lat="43.47752" lon="6.90771">
        <ele>397.98147583008</ele>
        <time>2011-09-03T09:37:19Z</time>
      </trkpt>
      <trkpt lat="43.47768" lon="6.90779">
        <ele>390.55993652344</ele>
        <time>2011-09-03T09:37:22Z</time>
      </trkpt>
      <trkpt lat="43.47784" lon="6.90795">
        <ele>377.59106445312</ele>
        <time>2011-09-03T09:37:25Z</time>
      </trkpt>
      <trkpt lat="43.47792" lon="6.90816">
        <ele>369.88903808594</ele>
        <time>2011-09-03T09:37:28Z</time>
      </trkpt>
      <trkpt lat="43.47801" lon="6.90851">
        <ele>377.3489074707</ele>
        <time>2011-09-03T09:37:35Z</time>
      </trkpt>
      <trkpt lat="43.47806" lon="6.90873">
        <ele>379.68252563477</ele>
        <time>2011-09-03T09:37:39Z</time>
      </trkpt>
      <trkpt lat="43.47805" lon="6.90905">
        <ele>382.34817504883</ele>
        <time>2011-09-03T09:37:44Z</time>
      </trkpt>
      <trkpt lat="43.47803" lon="6.90911">
        <ele>383.81167602539</ele>
        <time>2011-09-03T09:37:45Z</time>
      </trkpt>
      <trkpt lat="43.47811" lon="6.90939">
        <ele>382.17156982422</ele>
        <time>2011-09-03T09:37:50Z</time>
      </trkpt>
      <trkpt lat="43.47823" lon="6.90956">
        <ele>379.32070922852</ele>
        <time>2011-09-03T09:37:53Z</time>
      </trkpt>
      <trkpt lat="43.47837" lon="6.90963">
        <ele>373.16979980469</ele>
        <time>2011-09-03T09:37:56Z</time>
      </trkpt>
      <trkpt lat="43.4785" lon="6.90967">
        <ele>359.68417358398</ele>
        <time>2011-09-03T09:37:59Z</time>
      </trkpt>
      <trkpt lat="43.47855" lon="6.90972">
        <ele>355.33203125</ele>
        <time>2011-09-03T09:38:00Z</time>
      </trkpt>
      <trkpt lat="43.47887" lon="6.91008">
        <ele>343.63876342773</ele>
        <time>2011-09-03T09:38:07Z</time>
      </trkpt>
      <trkpt lat="43.4792" lon="6.91035">
        <ele>335.15090942383</ele>
        <time>2011-09-03T09:38:14Z</time>
      </trkpt>
      <trkpt lat="43.47936" lon="6.91047">
        <ele>328.84185791016</ele>
        <time>2011-09-03T09:38:17Z</time>
      </trkpt>
      <trkpt lat="43.47954" lon="6.91067">
        <ele>324.48690795898</ele>
        <time>2011-09-03T09:38:21Z</time>
      </trkpt>
      <trkpt lat="43.47976" lon="6.91101">
        <ele>320.75354003906</ele>
        <time>2011-09-03T09:38:27Z</time>
      </trkpt>
      <trkpt lat="43.48005" lon="6.91131">
        <ele>320</ele>
        <time>2011-09-03T09:38:34Z</time>
      </trkpt>
      <trkpt lat="43.48033" lon="6.9115">
        <ele>317.05010986328</ele>
        <time>2011-09-03T09:38:40Z</time>
      </trkpt>
      <trkpt lat="43.4804" lon="6.91157">
        <ele>316.01638793945</ele>
        <time>2011-09-03T09:38:42Z</time>
      </trkpt>
      <trkpt lat="43.48045" lon="6.91157">
        <ele>316.42291259766</ele>
        <time>2011-09-03T09:38:46Z</time>
      </trkpt>
      <trkpt lat="43.48046" lon="6.91158">
        <ele>316.31011962891</ele>
        <time>2011-09-03T09:38:54Z</time>
      </trkpt>
      <trkpt lat="43.48046" lon="6.91158">
        <ele>316.3935546875</ele>
        <time>2011-09-03T09:39:02Z</time>
      </trkpt>
      <trkpt lat="43.48046" lon="6.91158">
        <ele>316.35675048828</ele>
        <time>2011-09-03T09:39:10Z</time>
      </trkpt>
      <trkpt lat="43.48046" lon="6.91157">
        <ele>316.37518310547</ele>
        <time>2011-09-03T09:39:21Z</time>
      </trkpt>
      <trkpt lat="43.48046" lon="6.91157">
        <ele>316.45797729492</ele>
        <time>2011-09-03T09:39:28Z</time>
      </trkpt>
      <trkpt lat="43.48046" lon="6.91157">
        <ele>316.46716308594</ele>
        <time>2011-09-03T09:39:30Z</time>
      </trkpt>
      <trkpt lat="43.48046" lon="6.91157">
        <ele>316.47637939453</ele>
        <time>2011-09-03T09:39:31Z</time>
      </trkpt>
      <trkpt lat="43.48046" lon="6.91157">
        <ele>316.4123840332</ele>
        <time>2011-09-03T09:39:38Z</time>
      </trkpt>
      <trkpt lat="43.48046" lon="6.91157">
        <ele>316.43096923828</ele>
        <time>2011-09-03T09:39:53Z</time>
      </trkpt>
      <trkpt lat="43.48046" lon="6.91157">
        <ele>316.43096923828</ele>
        <time>2011-09-03T09:39:56Z</time>
      </trkpt>
      <trkpt lat="43.48046" lon="6.91157">
        <ele>316.39379882812</ele>
        <time>2011-09-03T09:40:04Z</time>
      </trkpt>
      <trkpt lat="43.48045" lon="6.91155">
        <ele>316.75155639648</ele>
        <time>2011-09-03T09:40:11Z</time>
      </trkpt>
      <trkpt lat="43.48045" lon="6.91154">
        <ele>316.95602416992</ele>
        <time>2011-09-03T09:40:12Z</time>
      </trkpt>
      <trkpt lat="43.48036" lon="6.91141">
        <ele>319.40609741211</ele>
        <time>2011-09-03T09:40:17Z</time>
      </trkpt>
      <trkpt lat="43.4802" lon="6.91117">
        <ele>320</ele>
        <time>2011-09-03T09:40:21Z</time>
      </trkpt>
      <trkpt lat="43.48011" lon="6.91099">
        <ele>320.67294311523</ele>
        <time>2011-09-03T09:40:23Z</time>
      </trkpt>
      <trkpt lat="43.48002" lon="6.9108">
        <ele>322.04446411133</ele>
        <time>2011-09-03T09:40:25Z</time>
      </trkpt>
      <trkpt lat="43.47981" lon="6.9103">
        <ele>324.61251831055</ele>
        <time>2011-09-03T09:40:30Z</time>
      </trkpt>
      <trkpt lat="43.4794" lon="6.90972">
        <ele>320.76336669922</ele>
        <time>2011-09-03T09:40:36Z</time>
      </trkpt>
      <trkpt lat="43.4792" lon="6.90944">
        <ele>319.2326965332</ele>
        <time>2011-09-03T09:40:39Z</time>
      </trkpt>
      <trkpt lat="43.47906" lon="6.90914">
        <ele>315.66271972656</ele>
        <time>2011-09-03T09:40:42Z</time>
      </trkpt>
      <trkpt lat="43.47886" lon="6.90894">
        <ele>318.10247802734</ele>
        <time>2011-09-03T09:40:46Z</time>
      </trkpt>
      <trkpt lat="43.47873" lon="6.90883">
        <ele>323.14242553711</ele>
        <time>2011-09-03T09:40:50Z</time>
      </trkpt>
      <trkpt lat="43.47878" lon="6.90867">
        <ele>317.81744384766</ele>
        <time>2011-09-03T09:40:54Z</time>
      </trkpt>
      <trkpt lat="43.4789" lon="6.9086">
        <ele>309.62112426758</ele>
        <time>2011-09-03T09:40:58Z</time>
      </trkpt>
      <trkpt lat="43.47894" lon="6.90848">
        <ele>306.07116699219</ele>
        <time>2011-09-03T09:41:01Z</time>
      </trkpt>
      <trkpt lat="43.47893" lon="6.90834">
        <ele>303.92022705078</ele>
        <time>2011-09-03T09:41:04Z</time>
      </trkpt>
      <trkpt lat="43.4789" lon="6.90827">
        <ele>304.73587036133</ele>
        <time>2011-09-03T09:41:06Z</time>
      </trkpt>
      <trkpt lat="43.47884" lon="6.90817">
        <ele>307.64398193359</ele>
        <time>2011-09-03T09:41:09Z</time>
      </trkpt>
      <trkpt lat="43.47881" lon="6.90807">
        <ele>309.13714599609</ele>
        <time>2011-09-03T09:41:13Z</time>
      </trkpt>
      <trkpt lat="43.47875" lon="6.90795">
        <ele>312.77252197266</ele>
        <time>2011-09-03T09:41:18Z</time>
      </trkpt>
      <trkpt lat="43.47875" lon="6.90787">
        <ele>313.2546081543</ele>
        <time>2011-09-03T09:41:23Z</time>
      </trkpt>
      <trkpt lat="43.47877" lon="6.90784">
        <ele>312.41546630859</ele>
        <time>2011-09-03T09:41:27Z</time>
      </trkpt>
      <trkpt lat="43.47878" lon="6.90784">
        <ele>311.86215209961</ele>
        <time>2011-09-03T09:41:28Z</time>
      </trkpt>
      <trkpt lat="43.47881" lon="6.90787">
        <ele>310.05905151367</ele>
        <time>2011-09-03T09:41:33Z</time>
      </trkpt>
      <trkpt lat="43.47885" lon="6.90791">
        <ele>307.95962524414</ele>
        <time>2011-09-03T09:41:40Z</time>
      </trkpt>
      <trkpt lat="43.47887" lon="6.90793">
        <ele>306.68228149414</ele>
        <time>2011-09-03T09:41:42Z</time>
      </trkpt>
      <trkpt lat="43.47888" lon="6.90794">
        <ele>306.21578979492</ele>
        <time>2011-09-03T09:41:45Z</time>
      </trkpt>
      <trkpt lat="43.47902" lon="6.90801">
        <ele>299.37158203125</ele>
        <time>2011-09-03T09:41:51Z</time>
      </trkpt>
      <trkpt lat="43.47923" lon="6.90804">
        <ele>290.05438232422</ele>
        <time>2011-09-03T09:41:57Z</time>
      </trkpt>
      <trkpt lat="43.47933" lon="6.90802">
        <ele>285.30154418945</ele>
        <time>2011-09-03T09:42:01Z</time>
      </trkpt>
      <trkpt lat="43.47946" lon="6.90794">
        <ele>278.40438842773</ele>
        <time>2011-09-03T09:42:05Z</time>
      </trkpt>
      <trkpt lat="43.47965" lon="6.90773">
        <ele>267.49395751953</ele>
        <time>2011-09-03T09:42:10Z</time>
      </trkpt>
      <trkpt lat="43.47968" lon="6.90766">
        <ele>265.54614257812</ele>
        <time>2011-09-03T09:42:11Z</time>
      </trkpt>
      <trkpt lat="43.47981" lon="6.9074">
        <ele>257.28930664062</ele>
        <time>2011-09-03T09:42:16Z</time>
      </trkpt>
      <trkpt lat="43.4799" lon="6.90728">
        <ele>251.68734741211</ele>
        <time>2011-09-03T09:42:19Z</time>
      </trkpt>
      <trkpt lat="43.47997" lon="6.9072">
        <ele>247.46980285644</ele>
        <time>2011-09-03T09:42:21Z</time>
      </trkpt>
      <trkpt lat="43.48014" lon="6.90685">
        <ele>240.67092895508</ele>
        <time>2011-09-03T09:42:27Z</time>
      </trkpt>
      <trkpt lat="43.48023" lon="6.90668">
        <ele>241.66073608398</ele>
        <time>2011-09-03T09:42:30Z</time>
      </trkpt>
      <trkpt lat="43.48038" lon="6.90646">
        <ele>238.37399291992</ele>
        <time>2011-09-03T09:42:35Z</time>
      </trkpt>
      <trkpt lat="43.48057" lon="6.90618">
        <ele>234.00674438477</ele>
        <time>2011-09-03T09:42:40Z</time>
      </trkpt>
      <trkpt lat="43.48068" lon="6.90584">
        <ele>234.92483520508</ele>
        <time>2011-09-03T09:42:45Z</time>
      </trkpt>
      <trkpt lat="43.48067" lon="6.90562">
        <ele>238.05432128906</ele>
        <time>2011-09-03T09:42:49Z</time>
      </trkpt>
      <trkpt lat="43.48066" lon="6.90544">
        <ele>241.58157348633</ele>
        <time>2011-09-03T09:42:55Z</time>
      </trkpt>
      <trkpt lat="43.48077" lon="6.90545">
        <ele>237.30693054199</ele>
        <time>2011-09-03T09:42:58Z</time>
      </trkpt>
      <trkpt lat="43.48103" lon="6.90541">
        <ele>227.56161499023</ele>
        <time>2011-09-03T09:43:03Z</time>
      </trkpt>
      <trkpt lat="43.48107" lon="6.90539">
        <ele>225.99948120117</ele>
        <time>2011-09-03T09:43:04Z</time>
      </trkpt>
      <trkpt lat="43.48128" lon="6.9053">
        <ele>220.87365722656</ele>
        <time>2011-09-03T09:43:08Z</time>
      </trkpt>
      <trkpt lat="43.48154" lon="6.90516">
        <ele>217.27668762207</ele>
        <time>2011-09-03T09:43:13Z</time>
      </trkpt>
      <trkpt lat="43.48168" lon="6.90488">
        <ele>219.48501586914</ele>
        <time>2011-09-03T09:43:17Z</time>
      </trkpt>
      <trkpt lat="43.48172" lon="6.90479">
        <ele>220.20353698731</ele>
        <time>2011-09-03T09:43:18Z</time>
      </trkpt>
      <trkpt lat="43.48182" lon="6.90459">
        <ele>222.73979187012</ele>
        <time>2011-09-03T09:43:21Z</time>
      </trkpt>
      <trkpt lat="43.48205" lon="6.90435">
        <ele>222.76417541504</ele>
        <time>2011-09-03T09:43:26Z</time>
      </trkpt>
      <trkpt lat="43.48209" lon="6.9043">
        <ele>222.51657104492</ele>
        <time>2011-09-03T09:43:27Z</time>
      </trkpt>
      <trkpt lat="43.48224" lon="6.90415">
        <ele>221.68936157227</ele>
        <time>2011-09-03T09:43:30Z</time>
      </trkpt>
      <trkpt lat="43.48238" lon="6.90385">
        <ele>221.04721069336</ele>
        <time>2011-09-03T09:43:34Z</time>
      </trkpt>
      <trkpt lat="43.48244" lon="6.9036">
        <ele>224.02702331543</ele>
        <time>2011-09-03T09:43:37Z</time>
      </trkpt>
      <trkpt lat="43.48246" lon="6.90343">
        <ele>227.0908203125</ele>
        <time>2011-09-03T09:43:39Z</time>
      </trkpt>
      <trkpt lat="43.48251" lon="6.90307">
        <ele>230.24076843262</ele>
        <time>2011-09-03T09:43:45Z</time>
      </trkpt>
      <trkpt lat="43.48252" lon="6.90307">
        <ele>230.10145568848</ele>
        <time>2011-09-03T09:43:46Z</time>
      </trkpt>
      <trkpt lat="43.48253" lon="6.9031">
        <ele>229.28004455566</ele>
        <time>2011-09-03T09:44:00Z</time>
      </trkpt>
      <trkpt lat="43.48254" lon="6.9031">
        <ele>228.97845458984</ele>
        <time>2011-09-03T09:44:13Z</time>
      </trkpt>
      <trkpt lat="43.48254" lon="6.9031">
        <ele>228.96769714356</ele>
        <time>2011-09-03T09:44:21Z</time>
      </trkpt>
      <trkpt lat="43.48255" lon="6.90309">
        <ele>228.55978393555</ele>
        <time>2011-09-03T09:44:32Z</time>
      </trkpt>
      <trkpt lat="43.48255" lon="6.90307">
        <ele>228.58474731445</ele>
        <time>2011-09-03T09:44:36Z</time>
      </trkpt>
      <trkpt lat="43.48259" lon="6.90289">
        <ele>229.95515441894</ele>
        <time>2011-09-03T09:44:42Z</time>
      </trkpt>
      <trkpt lat="43.48265" lon="6.90275">
        <ele>229.23146057129</ele>
        <time>2011-09-03T09:44:45Z</time>
      </trkpt>
      <trkpt lat="43.48273" lon="6.90256">
        <ele>227.29879760742</ele>
        <time>2011-09-03T09:44:49Z</time>
      </trkpt>
      <trkpt lat="43.48287" lon="6.90242">
        <ele>225.63287353516</ele>
        <time>2011-09-03T09:44:53Z</time>
      </trkpt>
      <trkpt lat="43.48308" lon="6.90222">
        <ele>224.07901000977</ele>
        <time>2011-09-03T09:44:58Z</time>
      </trkpt>
      <trkpt lat="43.48323" lon="6.902">
        <ele>217.18330383301</ele>
        <time>2011-09-03T09:45:02Z</time>
      </trkpt>
      <trkpt lat="43.48324" lon="6.90176">
        <ele>216.15937805176</ele>
        <time>2011-09-03T09:45:06Z</time>
      </trkpt>
      <trkpt lat="43.48322" lon="6.90172">
        <ele>217.28329467773</ele>
        <time>2011-09-03T09:45:07Z</time>
      </trkpt>
      <trkpt lat="43.48317" lon="6.90157">
        <ele>219.91377258301</ele>
        <time>2011-09-03T09:45:10Z</time>
      </trkpt>
      <trkpt lat="43.48309" lon="6.90143">
        <ele>224.06428527832</ele>
        <time>2011-09-03T09:45:13Z</time>
      </trkpt>
      <trkpt lat="43.48296" lon="6.90129">
        <ele>228.37802124023</ele>
        <time>2011-09-03T09:45:17Z</time>
      </trkpt>
      <trkpt lat="43.48288" lon="6.90107">
        <ele>229.21063232422</ele>
        <time>2011-09-03T09:45:22Z</time>
      </trkpt>
      <trkpt lat="43.48275" lon="6.90072">
        <ele>229.98931884766</ele>
        <time>2011-09-03T09:45:29Z</time>
      </trkpt>
      <trkpt lat="43.48272" lon="6.90068">
        <ele>230.56216430664</ele>
        <time>2011-09-03T09:45:30Z</time>
      </trkpt>
      <trkpt lat="43.48261" lon="6.90045">
        <ele>234.33396911621</ele>
        <time>2011-09-03T09:45:35Z</time>
      </trkpt>
      <trkpt lat="43.48259" lon="6.90042">
        <ele>235.17521667481</ele>
        <time>2011-09-03T09:45:36Z</time>
      </trkpt>
      <trkpt lat="43.48256" lon="6.90035">
        <ele>236.83781433106</ele>
        <time>2011-09-03T09:45:38Z</time>
      </trkpt>
      <trkpt lat="43.48253" lon="6.90021">
        <ele>238.08958435059</ele>
        <time>2011-09-03T09:45:42Z</time>
      </trkpt>
      <trkpt lat="43.48251" lon="6.90001">
        <ele>239.58338928223</ele>
        <time>2011-09-03T09:45:48Z</time>
      </trkpt>
      <trkpt lat="43.48251" lon="6.8998">
        <ele>239.033203125</ele>
        <time>2011-09-03T09:45:52Z</time>
      </trkpt>
      <trkpt lat="43.48258" lon="6.8996">
        <ele>234.36401367188</ele>
        <time>2011-09-03T09:45:57Z</time>
      </trkpt>
      <trkpt lat="43.48268" lon="6.89937">
        <ele>226.9482421875</ele>
        <time>2011-09-03T09:46:02Z</time>
      </trkpt>
      <trkpt lat="43.48276" lon="6.89915">
        <ele>221.61535644531</ele>
        <time>2011-09-03T09:46:06Z</time>
      </trkpt>
      <trkpt lat="43.48282" lon="6.89898">
        <ele>221.79826354981</ele>
        <time>2011-09-03T09:46:09Z</time>
      </trkpt>
      <trkpt lat="43.4829" lon="6.89882">
        <ele>221.52030944824</ele>
        <time>2011-09-03T09:46:12Z</time>
      </trkpt>
      <trkpt lat="43.48301" lon="6.8986">
        <ele>220.26290893555</ele>
        <time>2011-09-03T09:46:17Z</time>
      </trkpt>
      <trkpt lat="43.48314" lon="6.89846">
        <ele>216.01446533203</ele>
        <time>2011-09-03T09:46:21Z</time>
      </trkpt>
      <trkpt lat="43.4833" lon="6.89829">
        <ele>211.95248413086</ele>
        <time>2011-09-03T09:46:26Z</time>
      </trkpt>
      <trkpt lat="43.48337" lon="6.8982">
        <ele>210.97500610352</ele>
        <time>2011-09-03T09:46:28Z</time>
      </trkpt>
      <trkpt lat="43.4835" lon="6.89803">
        <ele>207.46249389648</ele>
        <time>2011-09-03T09:46:32Z</time>
      </trkpt>
      <trkpt lat="43.4836" lon="6.89785">
        <ele>205.57421875</ele>
        <time>2011-09-03T09:46:36Z</time>
      </trkpt>
      <trkpt lat="43.48365" lon="6.89776">
        <ele>205.52226257324</ele>
        <time>2011-09-03T09:46:38Z</time>
      </trkpt>
      <trkpt lat="43.48373" lon="6.8976">
        <ele>206.97747802734</ele>
        <time>2011-09-03T09:46:41Z</time>
      </trkpt>
      <trkpt lat="43.48383" lon="6.89744">
        <ele>206.64755249023</ele>
        <time>2011-09-03T09:46:44Z</time>
      </trkpt>
      <trkpt lat="43.48389" lon="6.89712">
        <ele>205.39282226562</ele>
        <time>2011-09-03T09:46:49Z</time>
      </trkpt>
      <trkpt lat="43.48389" lon="6.89697">
        <ele>205.13627624512</ele>
        <time>2011-09-03T09:46:51Z</time>
      </trkpt>
      <trkpt lat="43.48382" lon="6.8967">
        <ele>205.36595153809</ele>
        <time>2011-09-03T09:46:55Z</time>
      </trkpt>
      <trkpt lat="43.48374" lon="6.89652">
        <ele>205.69630432129</ele>
        <time>2011-09-03T09:46:58Z</time>
      </trkpt>
      <trkpt lat="43.48357" lon="6.8963">
        <ele>208.67616271973</ele>
        <time>2011-09-03T09:47:03Z</time>
      </trkpt>
      <trkpt lat="43.48349" lon="6.89623">
        <ele>212.03271484375</ele>
        <time>2011-09-03T09:47:05Z</time>
      </trkpt>
      <trkpt lat="43.48329" lon="6.89609">
        <ele>220.45709228516</ele>
        <time>2011-09-03T09:47:10Z</time>
      </trkpt>
      <trkpt lat="43.48321" lon="6.89601">
        <ele>220.44891357422</ele>
        <time>2011-09-03T09:47:12Z</time>
      </trkpt>
      <trkpt lat="43.483" lon="6.89583">
        <ele>221.67526245117</ele>
        <time>2011-09-03T09:47:17Z</time>
      </trkpt>
      <trkpt lat="43.48288" lon="6.89563">
        <ele>219.89685058594</ele>
        <time>2011-09-03T09:47:21Z</time>
      </trkpt>
      <trkpt lat="43.48284" lon="6.89559">
        <ele>219.71659851074</ele>
        <time>2011-09-03T09:47:22Z</time>
      </trkpt>
      <trkpt lat="43.48276" lon="6.89552">
        <ele>219.89324951172</ele>
        <time>2011-09-03T09:47:24Z</time>
      </trkpt>
      <trkpt lat="43.48265" lon="6.89539">
        <ele>220.74743652344</ele>
        <time>2011-09-03T09:47:27Z</time>
      </trkpt>
      <trkpt lat="43.48259" lon="6.89516">
        <ele>218.66899108887</ele>
        <time>2011-09-03T09:47:31Z</time>
      </trkpt>
      <trkpt lat="43.48261" lon="6.8949">
        <ele>213.56050109863</ele>
        <time>2011-09-03T09:47:35Z</time>
      </trkpt>
      <trkpt lat="43.48263" lon="6.8947">
        <ele>209.42630004883</ele>
        <time>2011-09-03T09:47:39Z</time>
      </trkpt>
      <trkpt lat="43.48262" lon="6.89463">
        <ele>208.84951782227</ele>
        <time>2011-09-03T09:47:41Z</time>
      </trkpt>
      <trkpt lat="43.48262" lon="6.89462">
        <ele>208.83578491211</ele>
        <time>2011-09-03T09:47:46Z</time>
      </trkpt>
      <trkpt lat="43.4826" lon="6.89463">
        <ele>209.25119018555</ele>
        <time>2011-09-03T09:48:11Z</time>
      </trkpt>
      <trkpt lat="43.4826" lon="6.89463">
        <ele>209.22030639648</ele>
        <time>2011-09-03T09:48:21Z</time>
      </trkpt>
      <trkpt lat="43.48257" lon="6.89457">
        <ele>209.0451965332</ele>
        <time>2011-09-03T09:48:24Z</time>
      </trkpt>
      <trkpt lat="43.48251" lon="6.89435">
        <ele>206.93231201172</ele>
        <time>2011-09-03T09:48:29Z</time>
      </trkpt>
      <trkpt lat="43.48245" lon="6.89419">
        <ele>203.74885559082</ele>
        <time>2011-09-03T09:48:32Z</time>
      </trkpt>
      <trkpt lat="43.48237" lon="6.894">
        <ele>201.83247375488</ele>
        <time>2011-09-03T09:48:36Z</time>
      </trkpt>
      <trkpt lat="43.4822" lon="6.89372">
        <ele>195.697265625</ele>
        <time>2011-09-03T09:48:41Z</time>
      </trkpt>
      <trkpt lat="43.48204" lon="6.89338">
        <ele>181.53340148926</ele>
        <time>2011-09-03T09:48:46Z</time>
      </trkpt>
      <trkpt lat="43.48199" lon="6.89328">
        <ele>178.00651550293</ele>
        <time>2011-09-03T09:48:48Z</time>
      </trkpt>
      <trkpt lat="43.48197" lon="6.89318">
        <ele>176.24526977539</ele>
        <time>2011-09-03T09:48:50Z</time>
      </trkpt>
      <trkpt lat="43.48193" lon="6.89295">
        <ele>171.55053710938</ele>
        <time>2011-09-03T09:48:55Z</time>
      </trkpt>
      <trkpt lat="43.48186" lon="6.89271">
        <ele>165.8200378418</ele>
        <time>2011-09-03T09:49:00Z</time>
      </trkpt>
      <trkpt lat="43.48182" lon="6.89259">
        <ele>162.84265136719</ele>
        <time>2011-09-03T09:49:03Z</time>
      </trkpt>
      <trkpt lat="43.48185" lon="6.89235">
        <ele>159.8791809082</ele>
        <time>2011-09-03T09:49:08Z</time>
      </trkpt>
      <trkpt lat="43.48193" lon="6.89214">
        <ele>157.99301147461</ele>
        <time>2011-09-03T09:49:13Z</time>
      </trkpt>
      <trkpt lat="43.48194" lon="6.89209">
        <ele>157.57415771484</ele>
        <time>2011-09-03T09:49:14Z</time>
      </trkpt>
      <trkpt lat="43.48195" lon="6.89199">
        <ele>156.4044342041</ele>
        <time>2011-09-03T09:49:17Z</time>
      </trkpt>
      <trkpt lat="43.48202" lon="6.89181">
        <ele>153.54356384277</ele>
        <time>2011-09-03T09:49:22Z</time>
      </trkpt>
      <trkpt lat="43.48213" lon="6.89169">
        <ele>150.62164306641</ele>
        <time>2011-09-03T09:49:26Z</time>
      </trkpt>
      <trkpt lat="43.4822" lon="6.89151">
        <ele>147.68572998047</ele>
        <time>2011-09-03T09:49:30Z</time>
      </trkpt>
      <trkpt lat="43.48218" lon="6.89133">
        <ele>145.73829650879</ele>
        <time>2011-09-03T09:49:33Z</time>
      </trkpt>
      <trkpt lat="43.48218" lon="6.89124">
        <ele>144.25431823731</ele>
        <time>2011-09-03T09:49:37Z</time>
      </trkpt>
      <trkpt lat="43.48217" lon="6.89122">
        <ele>144.06640625</ele>
        <time>2011-09-03T09:49:39Z</time>
      </trkpt>
      <trkpt lat="43.48218" lon="6.89099">
        <ele>140.77981567383</ele>
        <time>2011-09-03T09:49:44Z</time>
      </trkpt>
      <trkpt lat="43.48217" lon="6.89077">
        <ele>138.54553222656</ele>
        <time>2011-09-03T09:49:47Z</time>
      </trkpt>
      <trkpt lat="43.48212" lon="6.89051">
        <ele>136.55184936523</ele>
        <time>2011-09-03T09:49:51Z</time>
      </trkpt>
      <trkpt lat="43.48213" lon="6.89025">
        <ele>131.49678039551</ele>
        <time>2011-09-03T09:49:55Z</time>
      </trkpt>
      <trkpt lat="43.48224" lon="6.89">
        <ele>123.15312194824</ele>
        <time>2011-09-03T09:49:59Z</time>
      </trkpt>
      <trkpt lat="43.48221" lon="6.88972">
        <ele>117.36003875732</ele>
        <time>2011-09-03T09:50:03Z</time>
      </trkpt>
      <trkpt lat="43.48211" lon="6.88958">
        <ele>117.12939453125</ele>
        <time>2011-09-03T09:50:06Z</time>
      </trkpt>
      <trkpt lat="43.48199" lon="6.88945">
        <ele>117.87141418457</ele>
        <time>2011-09-03T09:50:09Z</time>
      </trkpt>
      <trkpt lat="43.48194" lon="6.88937">
        <ele>118.46043395996</ele>
        <time>2011-09-03T09:50:11Z</time>
      </trkpt>
      <trkpt lat="43.48175" lon="6.88913">
        <ele>113.78659057617</ele>
        <time>2011-09-03T09:50:16Z</time>
      </trkpt>
      <trkpt lat="43.48154" lon="6.88895">
        <ele>107.47568511963</ele>
        <time>2011-09-03T09:50:21Z</time>
      </trkpt>
      <trkpt lat="43.48145" lon="6.88888">
        <ele>105.09059143066</ele>
        <time>2011-09-03T09:50:23Z</time>
      </trkpt>
      <trkpt lat="43.48128" lon="6.88872">
        <ele>99.904113769531</ele>
        <time>2011-09-03T09:50:27Z</time>
      </trkpt>
      <trkpt lat="43.48119" lon="6.88858">
        <ele>95.00341796875</ele>
        <time>2011-09-03T09:50:30Z</time>
      </trkpt>
      <trkpt lat="43.48107" lon="6.88842">
        <ele>91.340965270996</ele>
        <time>2011-09-03T09:50:33Z</time>
      </trkpt>
      <trkpt lat="43.48098" lon="6.88827">
        <ele>87.887199401855</ele>
        <time>2011-09-03T09:50:36Z</time>
      </trkpt>
      <trkpt lat="43.48087" lon="6.88814">
        <ele>83.827758789062</ele>
        <time>2011-09-03T09:50:39Z</time>
      </trkpt>
      <trkpt lat="43.48076" lon="6.8881">
        <ele>82.006057739258</ele>
        <time>2011-09-03T09:50:41Z</time>
      </trkpt>
      <trkpt lat="43.48047" lon="6.88802">
        <ele>80</ele>
        <time>2011-09-03T09:50:47Z</time>
      </trkpt>
      <trkpt lat="43.48037" lon="6.88802">
        <ele>80</ele>
        <time>2011-09-03T09:50:49Z</time>
      </trkpt>
      <trkpt lat="43.48012" lon="6.88789">
        <ele>80</ele>
        <time>2011-09-03T09:50:54Z</time>
      </trkpt>
      <trkpt lat="43.48008" lon="6.88769">
        <ele>80</ele>
        <time>2011-09-03T09:50:57Z</time>
      </trkpt>
      <trkpt lat="43.48006" lon="6.88749">
        <ele>80</ele>
        <time>2011-09-03T09:51:00Z</time>
      </trkpt>
      <trkpt lat="43.48009" lon="6.88748">
        <ele>80</ele>
        <time>2011-09-03T09:51:03Z</time>
      </trkpt>
      <trkpt lat="43.48009" lon="6.88748">
        <ele>80</ele>
        <time>2011-09-03T09:51:08Z</time>
      </trkpt>
      <trkpt lat="43.4801" lon="6.88751">
        <ele>80</ele>
        <time>2011-09-03T09:51:18Z</time>
      </trkpt>
      <trkpt lat="43.48013" lon="6.88753">
        <ele>80</ele>
        <time>2011-09-03T09:51:32Z</time>
      </trkpt>
      <trkpt lat="43.48015" lon="6.88754">
        <ele>80</ele>
        <time>2011-09-03T09:51:43Z</time>
      </trkpt>
      <trkpt lat="43.48015" lon="6.88753">
        <ele>80</ele>
        <time>2011-09-03T09:51:50Z</time>
      </trkpt>
      <trkpt lat="43.48014" lon="6.88753">
        <ele>80</ele>
        <time>2011-09-03T09:51:56Z</time>
      </trkpt>
      <trkpt lat="43.48011" lon="6.88752">
        <ele>80</ele>
        <time>2011-09-03T09:52:04Z</time>
      </trkpt>
      <trkpt lat="43.48011" lon="6.88751">
        <ele>80</ele>
        <time>2011-09-03T09:52:10Z</time>
      </trkpt>
      <trkpt lat="43.4801" lon="6.88751">
        <ele>80</ele>
        <time>2011-09-03T09:52:13Z</time>
      </trkpt>
      <trkpt lat="43.4801" lon="6.88751">
        <ele>80</ele>
        <time>2011-09-03T09:52:14Z</time>
      </trkpt>
      <trkpt lat="43.4801" lon="6.88751">
        <ele>80</ele>
        <time>2011-09-03T09:52:21Z</time>
      </trkpt>
      <trkpt lat="43.48011" lon="6.88751">
        <ele>80</ele>
        <time>2011-09-03T09:52:23Z</time>
      </trkpt>
      <trkpt lat="43.48008" lon="6.88751">
        <ele>80</ele>
        <time>2011-09-03T09:52:46Z</time>
      </trkpt>
      <trkpt lat="43.48008" lon="6.88751">
        <ele>80</ele>
        <time>2011-09-03T09:52:47Z</time>
      </trkpt>
      <trkpt lat="43.48009" lon="6.88751">
        <ele>80</ele>
        <time>2011-09-03T09:52:53Z</time>
      </trkpt>
      <trkpt lat="43.48008" lon="6.8875">
        <ele>80</ele>
        <time>2011-09-03T09:52:59Z</time>
      </trkpt>
      <trkpt lat="43.48007" lon="6.88749">
        <ele>80</ele>
        <time>2011-09-03T09:53:08Z</time>
      </trkpt>
      <trkpt lat="43.48008" lon="6.88749">
        <ele>80</ele>
        <time>2011-09-03T09:53:15Z</time>
      </trkpt>
      <trkpt lat="43.48008" lon="6.88749">
        <ele>80</ele>
        <time>2011-09-03T09:53:20Z</time>
      </trkpt>
      <trkpt lat="43.48008" lon="6.88749">
        <ele>80</ele>
        <time>2011-09-03T09:53:22Z</time>
      </trkpt>
      <trkpt lat="43.48008" lon="6.88749">
        <ele>80</ele>
        <time>2011-09-03T09:53:24Z</time>
      </trkpt>
      <trkpt lat="43.48008" lon="6.88749">
        <ele>80</ele>
        <time>2011-09-03T09:53:25Z</time>
      </trkpt>
      <trkpt lat="43.48008" lon="6.88749">
        <ele>80</ele>
        <time>2011-09-03T09:53:31Z</time>
      </trkpt>
      <trkpt lat="43.48009" lon="6.8875">
        <ele>80</ele>
        <time>2011-09-03T09:53:37Z</time>
      </trkpt>
      <trkpt lat="43.4801" lon="6.88752">
        <ele>80</ele>
        <time>2011-09-03T09:53:49Z</time>
      </trkpt>
      <trkpt lat="43.4801" lon="6.88751">
        <ele>80</ele>
        <time>2011-09-03T09:54:18Z</time>
      </trkpt>
      <trkpt lat="43.48009" lon="6.88751">
        <ele>80</ele>
        <time>2011-09-03T09:54:25Z</time>
      </trkpt>
      <trkpt lat="43.48009" lon="6.88751">
        <ele>80</ele>
        <time>2011-09-03T09:54:29Z</time>
      </trkpt>
      <trkpt lat="43.48009" lon="6.88751">
        <ele>80</ele>
        <time>2011-09-03T09:54:35Z</time>
      </trkpt>
      <trkpt lat="43.48011" lon="6.88752">
        <ele>80</ele>
        <time>2011-09-03T09:54:53Z</time>
      </trkpt>
      <trkpt lat="43.48011" lon="6.88752">
        <ele>80</ele>
        <time>2011-09-03T09:54:54Z</time>
      </trkpt>
      <trkpt lat="43.48012" lon="6.88753">
        <ele>80</ele>
        <time>2011-09-03T09:54:57Z</time>
      </trkpt>
      <trkpt lat="43.48012" lon="6.88753">
        <ele>80</ele>
        <time>2011-09-03T09:55:00Z</time>
      </trkpt>
      <trkpt lat="43.48012" lon="6.88752">
        <ele>80</ele>
        <time>2011-09-03T09:55:04Z</time>
      </trkpt>
      <trkpt lat="43.4801" lon="6.88752">
        <ele>80</ele>
        <time>2011-09-03T09:55:06Z</time>
      </trkpt>
      <trkpt lat="43.48006" lon="6.88752">
        <ele>80</ele>
        <time>2011-09-03T09:55:13Z</time>
      </trkpt>
      <trkpt lat="43.48003" lon="6.88749">
        <ele>80</ele>
        <time>2011-09-03T09:55:18Z</time>
      </trkpt>
      <trkpt lat="43.48005" lon="6.88747">
        <ele>80</ele>
        <time>2011-09-03T09:55:25Z</time>
      </trkpt>
      <trkpt lat="43.48006" lon="6.88747">
        <ele>80</ele>
        <time>2011-09-03T09:55:30Z</time>
      </trkpt>
      <trkpt lat="43.48005" lon="6.88747">
        <ele>80</ele>
        <time>2011-09-03T09:55:35Z</time>
      </trkpt>
      <trkpt lat="43.48006" lon="6.88748">
        <ele>80</ele>
        <time>2011-09-03T09:55:46Z</time>
      </trkpt>
      <trkpt lat="43.48006" lon="6.88748">
        <ele>80</ele>
        <time>2011-09-03T09:55:53Z</time>
      </trkpt>
      <trkpt lat="43.48007" lon="6.88748">
        <ele>80</ele>
        <time>2011-09-03T09:56:06Z</time>
      </trkpt>
      <trkpt lat="43.48008" lon="6.8875">
        <ele>80</ele>
        <time>2011-09-03T09:56:14Z</time>
      </trkpt>
      <trkpt lat="43.48012" lon="6.8875">
        <ele>80</ele>
        <time>2011-09-03T09:56:18Z</time>
      </trkpt>
      <trkpt lat="43.48026" lon="6.88751">
        <ele>80</ele>
        <time>2011-09-03T09:56:26Z</time>
      </trkpt>
      <trkpt lat="43.48035" lon="6.88752">
        <ele>80</ele>
        <time>2011-09-03T09:56:32Z</time>
      </trkpt>
      <trkpt lat="43.48053" lon="6.88754">
        <ele>80</ele>
        <time>2011-09-03T09:56:40Z</time>
      </trkpt>
      <trkpt lat="43.48074" lon="6.8876">
        <ele>80</ele>
        <time>2011-09-03T09:56:48Z</time>
      </trkpt>
      <trkpt lat="43.48098" lon="6.88771">
        <ele>80</ele>
        <time>2011-09-03T09:56:57Z</time>
      </trkpt>
      <trkpt lat="43.48121" lon="6.8878">
        <ele>80</ele>
        <time>2011-09-03T09:57:05Z</time>
      </trkpt>
      <trkpt lat="43.48131" lon="6.88784">
        <ele>80</ele>
        <time>2011-09-03T09:57:09Z</time>
      </trkpt>
      <trkpt lat="43.48145" lon="6.8879">
        <ele>80</ele>
        <time>2011-09-03T09:57:14Z</time>
      </trkpt>
      <trkpt lat="43.48161" lon="6.88789">
        <ele>80</ele>
        <time>2011-09-03T09:57:19Z</time>
      </trkpt>
      <trkpt lat="43.4818" lon="6.88792">
        <ele>81.187469482422</ele>
        <time>2011-09-03T09:57:25Z</time>
      </trkpt>
      <trkpt lat="43.48202" lon="6.88806">
        <ele>86.183204650879</ele>
        <time>2011-09-03T09:57:32Z</time>
      </trkpt>
      <trkpt lat="43.48219" lon="6.88818">
        <ele>90.048210144043</ele>
        <time>2011-09-03T09:57:37Z</time>
      </trkpt>
      <trkpt lat="43.48233" lon="6.88829">
        <ele>91.574111938477</ele>
        <time>2011-09-03T09:57:42Z</time>
      </trkpt>
      <trkpt lat="43.48247" lon="6.88837">
        <ele>92.130561828613</ele>
        <time>2011-09-03T09:57:49Z</time>
      </trkpt>
      <trkpt lat="43.48259" lon="6.88844">
        <ele>92.698890686035</ele>
        <time>2011-09-03T09:57:56Z</time>
      </trkpt>
      <trkpt lat="43.48267" lon="6.8885">
        <ele>93.213874816895</ele>
        <time>2011-09-03T09:58:02Z</time>
      </trkpt>
      <trkpt lat="43.4827" lon="6.88858">
        <ele>93.624145507812</ele>
        <time>2011-09-03T09:58:07Z</time>
      </trkpt>
      <trkpt lat="43.48277" lon="6.88868">
        <ele>94.206695556641</ele>
        <time>2011-09-03T09:58:14Z</time>
      </trkpt>
      <trkpt lat="43.48283" lon="6.88876">
        <ele>94.791641235352</ele>
        <time>2011-09-03T09:58:20Z</time>
      </trkpt>
      <trkpt lat="43.48291" lon="6.88885">
        <ele>95.385269165039</ele>
        <time>2011-09-03T09:58:28Z</time>
      </trkpt>
      <trkpt lat="43.48298" lon="6.88894">
        <ele>95.912391662598</ele>
        <time>2011-09-03T09:58:35Z</time>
      </trkpt>
      <trkpt lat="43.48307" lon="6.88904">
        <ele>96.637893676758</ele>
        <time>2011-09-03T09:58:43Z</time>
      </trkpt>
      <trkpt lat="43.48316" lon="6.88914">
        <ele>97.308937072754</ele>
        <time>2011-09-03T09:58:51Z</time>
      </trkpt>
      <trkpt lat="43.48325" lon="6.88925">
        <ele>97.698791503906</ele>
        <time>2011-09-03T09:59:00Z</time>
      </trkpt>
      <trkpt lat="43.48331" lon="6.88931">
        <ele>97.90478515625</ele>
        <time>2011-09-03T09:59:05Z</time>
      </trkpt>
      <trkpt lat="43.48335" lon="6.88942">
        <ele>98.111694335938</ele>
        <time>2011-09-03T09:59:12Z</time>
      </trkpt>
      <trkpt lat="43.48336" lon="6.88946">
        <ele>98.248039245605</ele>
        <time>2011-09-03T09:59:14Z</time>
      </trkpt>
      <trkpt lat="43.48334" lon="6.88961">
        <ele>98.612525939941</ele>
        <time>2011-09-03T09:59:21Z</time>
      </trkpt>
      <trkpt lat="43.48334" lon="6.88976">
        <ele>99.0146484375</ele>
        <time>2011-09-03T09:59:28Z</time>
      </trkpt>
      <trkpt lat="43.48336" lon="6.88997">
        <ele>99.083312988281</ele>
        <time>2011-09-03T09:59:35Z</time>
      </trkpt>
      <trkpt lat="43.48338" lon="6.8902">
        <ele>99.165710449219</ele>
        <time>2011-09-03T09:59:40Z</time>
      </trkpt>
      <trkpt lat="43.48335" lon="6.89038">
        <ele>99.069580078125</ele>
        <time>2011-09-03T09:59:45Z</time>
      </trkpt>
      <trkpt lat="43.48333" lon="6.89054">
        <ele>99</ele>
        <time>2011-09-03T09:59:49Z</time>
      </trkpt>
      <trkpt lat="43.48333" lon="6.89057">
        <ele>99.001075744629</ele>
        <time>2011-09-03T09:59:50Z</time>
      </trkpt>
      <trkpt lat="43.48334" lon="6.89068">
        <ele>99.0146484375</ele>
        <time>2011-09-03T09:59:56Z</time>
      </trkpt>
      <trkpt lat="43.48336" lon="6.89074">
        <ele>99.097045898438</ele>
        <time>2011-09-03T10:00:00Z</time>
      </trkpt>
      <trkpt lat="43.48343" lon="6.89082">
        <ele>99.357971191406</ele>
        <time>2011-09-03T10:00:05Z</time>
      </trkpt>
      <trkpt lat="43.48346" lon="6.89095">
        <ele>99.440368652344</ele>
        <time>2011-09-03T10:00:10Z</time>
      </trkpt>
      <trkpt lat="43.48341" lon="6.89106">
        <ele>99.289306640625</ele>
        <time>2011-09-03T10:00:16Z</time>
      </trkpt>
      <trkpt lat="43.48339" lon="6.89123">
        <ele>99.206909179688</ele>
        <time>2011-09-03T10:00:23Z</time>
      </trkpt>
      <trkpt lat="43.48344" lon="6.89141">
        <ele>99.429756164551</ele>
        <time>2011-09-03T10:00:30Z</time>
      </trkpt>
      <trkpt lat="43.4835" lon="6.89147">
        <ele>99.725814819336</ele>
        <time>2011-09-03T10:00:35Z</time>
      </trkpt>
      <trkpt lat="43.48352" lon="6.8915">
        <ele>99.796051025391</ele>
        <time>2011-09-03T10:00:39Z</time>
      </trkpt>
      <trkpt lat="43.48354" lon="6.89154">
        <ele>99.883506774902</ele>
        <time>2011-09-03T10:00:44Z</time>
      </trkpt>
      <trkpt lat="43.48355" lon="6.89156">
        <ele>99.909362792969</ele>
        <time>2011-09-03T10:00:45Z</time>
      </trkpt>
      <trkpt lat="43.4836" lon="6.89176">
        <ele>100.05252075195</ele>
        <time>2011-09-03T10:00:53Z</time>
      </trkpt>
      <trkpt lat="43.48365" lon="6.89187">
        <ele>100</ele>
        <time>2011-09-03T10:00:59Z</time>
      </trkpt>
      <trkpt lat="43.48372" lon="6.89199">
        <ele>100</ele>
        <time>2011-09-03T10:01:06Z</time>
      </trkpt>
      <trkpt lat="43.48387" lon="6.89217">
        <ele>100</ele>
        <time>2011-09-03T10:01:16Z</time>
      </trkpt>
      <trkpt lat="43.48398" lon="6.89231">
        <ele>100</ele>
        <time>2011-09-03T10:01:23Z</time>
      </trkpt>
      <trkpt lat="43.48409" lon="6.89246">
        <ele>100</ele>
        <time>2011-09-03T10:01:31Z</time>
      </trkpt>
      <trkpt lat="43.48418" lon="6.89263">
        <ele>100</ele>
        <time>2011-09-03T10:01:39Z</time>
      </trkpt>
      <trkpt lat="43.48428" lon="6.89278">
        <ele>100</ele>
        <time>2011-09-03T10:01:46Z</time>
      </trkpt>
      <trkpt lat="43.48437" lon="6.8929">
        <ele>100</ele>
        <time>2011-09-03T10:01:53Z</time>
      </trkpt>
      <trkpt lat="43.48443" lon="6.89301">
        <ele>100</ele>
        <time>2011-09-03T10:01:58Z</time>
      </trkpt>
      <trkpt lat="43.48449" lon="6.89311">
        <ele>100</ele>
        <time>2011-09-03T10:02:03Z</time>
      </trkpt>
      <trkpt lat="43.48455" lon="6.89322">
        <ele>100</ele>
        <time>2011-09-03T10:02:08Z</time>
      </trkpt>
      <trkpt lat="43.48464" lon="6.89341">
        <ele>100</ele>
        <time>2011-09-03T10:02:15Z</time>
      </trkpt>
      <trkpt lat="43.48471" lon="6.89357">
        <ele>100</ele>
        <time>2011-09-03T10:02:21Z</time>
      </trkpt>
      <trkpt lat="43.48479" lon="6.89366">
        <ele>100</ele>
        <time>2011-09-03T10:02:26Z</time>
      </trkpt>
      <trkpt lat="43.48489" lon="6.8938">
        <ele>100</ele>
        <time>2011-09-03T10:02:32Z</time>
      </trkpt>
      <trkpt lat="43.48496" lon="6.89398">
        <ele>100</ele>
        <time>2011-09-03T10:02:39Z</time>
      </trkpt>
      <trkpt lat="43.48504" lon="6.89412">
        <ele>100</ele>
        <time>2011-09-03T10:02:46Z</time>
      </trkpt>
      <trkpt lat="43.48511" lon="6.89422">
        <ele>100</ele>
        <time>2011-09-03T10:02:51Z</time>
      </trkpt>
      <trkpt lat="43.48514" lon="6.89426">
        <ele>100</ele>
        <time>2011-09-03T10:02:53Z</time>
      </trkpt>
      <trkpt lat="43.48522" lon="6.89439">
        <ele>100</ele>
        <time>2011-09-03T10:02:59Z</time>
      </trkpt>
      <trkpt lat="43.48524" lon="6.89441">
        <ele>100</ele>
        <time>2011-09-03T10:03:00Z</time>
      </trkpt>
      <trkpt lat="43.48535" lon="6.89455">
        <ele>100</ele>
        <time>2011-09-03T10:03:07Z</time>
      </trkpt>
      <trkpt lat="43.48545" lon="6.89468">
        <ele>100</ele>
        <time>2011-09-03T10:03:14Z</time>
      </trkpt>
      <trkpt lat="43.48554" lon="6.89481">
        <ele>100</ele>
        <time>2011-09-03T10:03:20Z</time>
      </trkpt>
      <trkpt lat="43.48562" lon="6.89494">
        <ele>100</ele>
        <time>2011-09-03T10:03:26Z</time>
      </trkpt>
      <trkpt lat="43.48569" lon="6.8951">
        <ele>100</ele>
        <time>2011-09-03T10:03:30Z</time>
      </trkpt>
      <trkpt lat="43.48578" lon="6.89528">
        <ele>100</ele>
        <time>2011-09-03T10:03:35Z</time>
      </trkpt>
      <trkpt lat="43.48584" lon="6.89546">
        <ele>100</ele>
        <time>2011-09-03T10:03:40Z</time>
      </trkpt>
      <trkpt lat="43.4859" lon="6.89562">
        <ele>100</ele>
        <time>2011-09-03T10:03:44Z</time>
      </trkpt>
      <trkpt lat="43.48597" lon="6.89578">
        <ele>100</ele>
        <time>2011-09-03T10:03:49Z</time>
      </trkpt>
      <trkpt lat="43.48603" lon="6.89601">
        <ele>100</ele>
        <time>2011-09-03T10:03:54Z</time>
      </trkpt>
      <trkpt lat="43.48607" lon="6.89618">
        <ele>100</ele>
        <time>2011-09-03T10:03:58Z</time>
      </trkpt>
      <trkpt lat="43.48613" lon="6.89645">
        <ele>100</ele>
        <time>2011-09-03T10:04:04Z</time>
      </trkpt>
      <trkpt lat="43.48621" lon="6.89663">
        <ele>100</ele>
        <time>2011-09-03T10:04:09Z</time>
      </trkpt>
      <trkpt lat="43.48624" lon="6.89666">
        <ele>100</ele>
        <time>2011-09-03T10:04:10Z</time>
      </trkpt>
      <trkpt lat="43.48626" lon="6.89681">
        <ele>100</ele>
        <time>2011-09-03T10:04:14Z</time>
      </trkpt>
      <trkpt lat="43.48624" lon="6.89707">
        <ele>100</ele>
        <time>2011-09-03T10:04:20Z</time>
      </trkpt>
      <trkpt lat="43.48626" lon="6.89728">
        <ele>100</ele>
        <time>2011-09-03T10:04:25Z</time>
      </trkpt>
      <trkpt lat="43.48629" lon="6.8974">
        <ele>100</ele>
        <time>2011-09-03T10:04:29Z</time>
      </trkpt>
      <trkpt lat="43.48629" lon="6.89749">
        <ele>100</ele>
        <time>2011-09-03T10:04:34Z</time>
      </trkpt>
      <trkpt lat="43.48629" lon="6.8975">
        <ele>100</ele>
        <time>2011-09-03T10:04:39Z</time>
      </trkpt>
      <trkpt lat="43.48629" lon="6.89753">
        <ele>100</ele>
        <time>2011-09-03T10:04:47Z</time>
      </trkpt>
      <trkpt lat="43.48629" lon="6.89757">
        <ele>100</ele>
        <time>2011-09-03T10:04:53Z</time>
      </trkpt>
      <trkpt lat="43.4863" lon="6.8976">
        <ele>100</ele>
        <time>2011-09-03T10:04:58Z</time>
      </trkpt>
      <trkpt lat="43.48633" lon="6.89765">
        <ele>100</ele>
        <time>2011-09-03T10:05:04Z</time>
      </trkpt>
      <trkpt lat="43.48635" lon="6.89771">
        <ele>100</ele>
        <time>2011-09-03T10:05:12Z</time>
      </trkpt>
      <trkpt lat="43.48635" lon="6.89774">
        <ele>100</ele>
        <time>2011-09-03T10:05:19Z</time>
      </trkpt>
      <trkpt lat="43.48637" lon="6.89779">
        <ele>100</ele>
        <time>2011-09-03T10:05:28Z</time>
      </trkpt>
      <trkpt lat="43.48638" lon="6.89785">
        <ele>100</ele>
        <time>2011-09-03T10:05:36Z</time>
      </trkpt>
      <trkpt lat="43.48638" lon="6.89791">
        <ele>100</ele>
        <time>2011-09-03T10:05:41Z</time>
      </trkpt>
      <trkpt lat="43.48639" lon="6.89798">
        <ele>100</ele>
        <time>2011-09-03T10:05:48Z</time>
      </trkpt>
      <trkpt lat="43.48641" lon="6.89803">
        <ele>100</ele>
        <time>2011-09-03T10:05:55Z</time>
      </trkpt>
      <trkpt lat="43.48642" lon="6.89808">
        <ele>100</ele>
        <time>2011-09-03T10:06:03Z</time>
      </trkpt>
      <trkpt lat="43.48647" lon="6.89818">
        <ele>100</ele>
        <time>2011-09-03T10:06:12Z</time>
      </trkpt>
      <trkpt lat="43.48648" lon="6.89826">
        <ele>100</ele>
        <time>2011-09-03T10:06:19Z</time>
      </trkpt>
      <trkpt lat="43.4865" lon="6.89828">
        <ele>100</ele>
        <time>2011-09-03T10:06:23Z</time>
      </trkpt>
      <trkpt lat="43.48653" lon="6.89833">
        <ele>100</ele>
        <time>2011-09-03T10:06:30Z</time>
      </trkpt>
      <trkpt lat="43.48652" lon="6.89833">
        <ele>100</ele>
        <time>2011-09-03T10:06:40Z</time>
      </trkpt>
      <trkpt lat="43.48652" lon="6.89833">
        <ele>100</ele>
        <time>2011-09-03T10:06:47Z</time>
      </trkpt>
      <trkpt lat="43.48653" lon="6.89833">
        <ele>100</ele>
        <time>2011-09-03T10:06:54Z</time>
      </trkpt>
      <trkpt lat="43.48655" lon="6.89835">
        <ele>100</ele>
        <time>2011-09-03T10:06:58Z</time>
      </trkpt>
      <trkpt lat="43.48663" lon="6.89849">
        <ele>100</ele>
        <time>2011-09-03T10:07:06Z</time>
      </trkpt>
      <trkpt lat="43.48662" lon="6.89851">
        <ele>100</ele>
        <time>2011-09-03T10:07:10Z</time>
      </trkpt>
      <trkpt lat="43.48662" lon="6.89868">
        <ele>100</ele>
        <time>2011-09-03T10:07:19Z</time>
      </trkpt>
      <trkpt lat="43.48667" lon="6.8988">
        <ele>100.02310180664</ele>
        <time>2011-09-03T10:07:25Z</time>
      </trkpt>
      <trkpt lat="43.4867" lon="6.89891">
        <ele>100.42029571533</ele>
        <time>2011-09-03T10:07:30Z</time>
      </trkpt>
      <trkpt lat="43.48671" lon="6.89912">
        <ele>102.08001708984</ele>
        <time>2011-09-03T10:07:37Z</time>
      </trkpt>
      <trkpt lat="43.48668" lon="6.89934">
        <ele>103.48200988769</ele>
        <time>2011-09-03T10:07:43Z</time>
      </trkpt>
      <trkpt lat="43.48664" lon="6.89952">
        <ele>104.69502258301</ele>
        <time>2011-09-03T10:07:48Z</time>
      </trkpt>
      <trkpt lat="43.48661" lon="6.89963">
        <ele>105.82112121582</ele>
        <time>2011-09-03T10:07:52Z</time>
      </trkpt>
      <trkpt lat="43.48663" lon="6.89978">
        <ele>107.47250366211</ele>
        <time>2011-09-03T10:07:57Z</time>
      </trkpt>
      <trkpt lat="43.48663" lon="6.89982">
        <ele>107.91367340088</ele>
        <time>2011-09-03T10:07:58Z</time>
      </trkpt>
      <trkpt lat="43.48655" lon="6.89996">
        <ele>109.1633682251</ele>
        <time>2011-09-03T10:08:04Z</time>
      </trkpt>
      <trkpt lat="43.48654" lon="6.90011">
        <ele>110.12528991699</ele>
        <time>2011-09-03T10:08:09Z</time>
      </trkpt>
      <trkpt lat="43.48655" lon="6.90028">
        <ele>111.18204498291</ele>
        <time>2011-09-03T10:08:15Z</time>
      </trkpt>
      <trkpt lat="43.48655" lon="6.90031">
        <ele>111.47304534912</ele>
        <time>2011-09-03T10:08:16Z</time>
      </trkpt>
      <trkpt lat="43.48653" lon="6.90049">
        <ele>113.32698822022</ele>
        <time>2011-09-03T10:08:23Z</time>
      </trkpt>
      <trkpt lat="43.48652" lon="6.90065">
        <ele>114.88739013672</ele>
        <time>2011-09-03T10:08:29Z</time>
      </trkpt>
      <trkpt lat="43.48652" lon="6.90079">
        <ele>116.46152496338</ele>
        <time>2011-09-03T10:08:35Z</time>
      </trkpt>
      <trkpt lat="43.48663" lon="6.90096">
        <ele>118.63720703125</ele>
        <time>2011-09-03T10:08:42Z</time>
      </trkpt>
      <trkpt lat="43.48675" lon="6.90114">
        <ele>121.86433410644</ele>
        <time>2011-09-03T10:08:49Z</time>
      </trkpt>
      <trkpt lat="43.48689" lon="6.9013">
        <ele>126.21936035156</ele>
        <time>2011-09-03T10:08:56Z</time>
      </trkpt>
      <trkpt lat="43.48697" lon="6.9014">
        <ele>128.53637695312</ele>
        <time>2011-09-03T10:09:00Z</time>
      </trkpt>
      <trkpt lat="43.487" lon="6.90164">
        <ele>131.5281829834</ele>
        <time>2011-09-03T10:09:07Z</time>
      </trkpt>
      <trkpt lat="43.48707" lon="6.90178">
        <ele>133.45545959473</ele>
        <time>2011-09-03T10:09:12Z</time>
      </trkpt>
      <trkpt lat="43.48716" lon="6.90192">
        <ele>135.27354431152</ele>
        <time>2011-09-03T10:09:18Z</time>
      </trkpt>
      <trkpt lat="43.48723" lon="6.90201">
        <ele>136.3468170166</ele>
        <time>2011-09-03T10:09:23Z</time>
      </trkpt>
      <trkpt lat="43.4873" lon="6.90211">
        <ele>137.30270385742</ele>
        <time>2011-09-03T10:09:28Z</time>
      </trkpt>
      <trkpt lat="43.48742" lon="6.90231">
        <ele>138.52941894531</ele>
        <time>2011-09-03T10:09:36Z</time>
      </trkpt>
      <trkpt lat="43.48752" lon="6.90249">
        <ele>139.07965087891</ele>
        <time>2011-09-03T10:09:43Z</time>
      </trkpt>
      <trkpt lat="43.48759" lon="6.90261">
        <ele>139.34057617188</ele>
        <time>2011-09-03T10:09:49Z</time>
      </trkpt>
      <trkpt lat="43.4877" lon="6.90273">
        <ele>139.71136474609</ele>
        <time>2011-09-03T10:09:56Z</time>
      </trkpt>
      <trkpt lat="43.48774" lon="6.9028">
        <ele>139.8850402832</ele>
        <time>2011-09-03T10:10:00Z</time>
      </trkpt>
      <trkpt lat="43.48785" lon="6.90292">
        <ele>140</ele>
        <time>2011-09-03T10:10:08Z</time>
      </trkpt>
      <trkpt lat="43.48795" lon="6.90302">
        <ele>140</ele>
        <time>2011-09-03T10:10:15Z</time>
      </trkpt>
      <trkpt lat="43.48802" lon="6.90312">
        <ele>141.56121826172</ele>
        <time>2011-09-03T10:10:21Z</time>
      </trkpt>
      <trkpt lat="43.48808" lon="6.9032">
        <ele>143.26686096191</ele>
        <time>2011-09-03T10:10:26Z</time>
      </trkpt>
      <trkpt lat="43.48813" lon="6.90332">
        <ele>146.73788452148</ele>
        <time>2011-09-03T10:10:32Z</time>
      </trkpt>
      <trkpt lat="43.48821" lon="6.90344">
        <ele>154.67268371582</ele>
        <time>2011-09-03T10:10:39Z</time>
      </trkpt>
      <trkpt lat="43.48829" lon="6.90356">
        <ele>161.82084655762</ele>
        <time>2011-09-03T10:10:46Z</time>
      </trkpt>
      <trkpt lat="43.48835" lon="6.90367">
        <ele>166.23626708984</ele>
        <time>2011-09-03T10:10:52Z</time>
      </trkpt>
      <trkpt lat="43.48842" lon="6.90378">
        <ele>170.15701293945</ele>
        <time>2011-09-03T10:10:59Z</time>
      </trkpt>
      <trkpt lat="43.4885" lon="6.90389">
        <ele>173.77195739746</ele>
        <time>2011-09-03T10:11:06Z</time>
      </trkpt>
      <trkpt lat="43.48857" lon="6.90398">
        <ele>175.37965393066</ele>
        <time>2011-09-03T10:11:12Z</time>
      </trkpt>
      <trkpt lat="43.48866" lon="6.90409">
        <ele>175.78015136719</ele>
        <time>2011-09-03T10:11:19Z</time>
      </trkpt>
      <trkpt lat="43.48871" lon="6.90412">
        <ele>174.58538818359</ele>
        <time>2011-09-03T10:11:22Z</time>
      </trkpt>
      <trkpt lat="43.48886" lon="6.90418">
        <ele>169.63513183594</ele>
        <time>2011-09-03T10:11:29Z</time>
      </trkpt>
      <trkpt lat="43.48895" lon="6.90421">
        <ele>168.28030395508</ele>
        <time>2011-09-03T10:11:34Z</time>
      </trkpt>
      <trkpt lat="43.48907" lon="6.90423">
        <ele>165.58178710938</ele>
        <time>2011-09-03T10:11:41Z</time>
      </trkpt>
      <trkpt lat="43.48912" lon="6.90423">
        <ele>164.13983154297</ele>
        <time>2011-09-03T10:11:46Z</time>
      </trkpt>
      <trkpt lat="43.48915" lon="6.90426">
        <ele>164.55868530273</ele>
        <time>2011-09-03T10:11:54Z</time>
      </trkpt>
      <trkpt lat="43.4892" lon="6.90425">
        <ele>163.70529174805</ele>
        <time>2011-09-03T10:12:00Z</time>
      </trkpt>
      <trkpt lat="43.48925" lon="6.90424">
        <ele>163.68588256836</ele>
        <time>2011-09-03T10:12:08Z</time>
      </trkpt>
      <trkpt lat="43.48928" lon="6.90425">
        <ele>163.85655212402</ele>
        <time>2011-09-03T10:12:12Z</time>
      </trkpt>
      <trkpt lat="43.48938" lon="6.90427">
        <ele>165.00270080566</ele>
        <time>2011-09-03T10:12:22Z</time>
      </trkpt>
      <trkpt lat="43.48945" lon="6.90427">
        <ele>165.39614868164</ele>
        <time>2011-09-03T10:12:30Z</time>
      </trkpt>
      <trkpt lat="43.48951" lon="6.90427">
        <ele>165.98397827148</ele>
        <time>2011-09-03T10:12:38Z</time>
      </trkpt>
      <trkpt lat="43.48955" lon="6.90426">
        <ele>166.23574829102</ele>
        <time>2011-09-03T10:12:44Z</time>
      </trkpt>
      <trkpt lat="43.48963" lon="6.90426">
        <ele>166.96058654785</ele>
        <time>2011-09-03T10:12:51Z</time>
      </trkpt>
      <trkpt lat="43.48973" lon="6.90428">
        <ele>168.46014404297</ele>
        <time>2011-09-03T10:12:57Z</time>
      </trkpt>
      <trkpt lat="43.48983" lon="6.90431">
        <ele>171.37579345703</ele>
        <time>2011-09-03T10:13:04Z</time>
      </trkpt>
      <trkpt lat="43.4899" lon="6.90438">
        <ele>173.74253845215</ele>
        <time>2011-09-03T10:13:10Z</time>
      </trkpt>
      <trkpt lat="43.48996" lon="6.90444">
        <ele>175.35137939453</ele>
        <time>2011-09-03T10:13:15Z</time>
      </trkpt>
      <trkpt lat="43.49002" lon="6.90451">
        <ele>176.62045288086</ele>
        <time>2011-09-03T10:13:21Z</time>
      </trkpt>
      <trkpt lat="43.49008" lon="6.90457">
        <ele>177.34870910644</ele>
        <time>2011-09-03T10:13:27Z</time>
      </trkpt>
      <trkpt lat="43.49016" lon="6.90462">
        <ele>178.02865600586</ele>
        <time>2011-09-03T10:13:33Z</time>
      </trkpt>
      <trkpt lat="43.4902" lon="6.90463">
        <ele>178.28730773926</ele>
        <time>2011-09-03T10:13:39Z</time>
      </trkpt>
      <trkpt lat="43.49026" lon="6.90463">
        <ele>178.59771728516</ele>
        <time>2011-09-03T10:13:46Z</time>
      </trkpt>
      <trkpt lat="43.49028" lon="6.90466">
        <ele>178.7939453125</ele>
        <time>2011-09-03T10:13:51Z</time>
      </trkpt>
      <trkpt lat="43.49027" lon="6.90466">
        <ele>178.75105285644</ele>
        <time>2011-09-03T10:14:02Z</time>
      </trkpt>
      <trkpt lat="43.49027" lon="6.90471">
        <ele>178.91058349609</ele>
        <time>2011-09-03T10:14:09Z</time>
      </trkpt>
      <trkpt lat="43.49028" lon="6.90475">
        <ele>179.12463378906</ele>
        <time>2011-09-03T10:14:15Z</time>
      </trkpt>
      <trkpt lat="43.4903" lon="6.90476">
        <ele>179.22511291504</ele>
        <time>2011-09-03T10:14:26Z</time>
      </trkpt>
      <trkpt lat="43.49031" lon="6.90477">
        <ele>179.25526428223</ele>
        <time>2011-09-03T10:14:35Z</time>
      </trkpt>
      <trkpt lat="43.4903" lon="6.90477">
        <ele>179.24540710449</ele>
        <time>2011-09-03T10:14:40Z</time>
      </trkpt>
      <trkpt lat="43.4903" lon="6.90475">
        <ele>179.17115783691</ele>
        <time>2011-09-03T10:14:49Z</time>
      </trkpt>
      <trkpt lat="43.49028" lon="6.90476">
        <ele>179.14807128906</ele>
        <time>2011-09-03T10:14:58Z</time>
      </trkpt>
      <trkpt lat="43.4903" lon="6.90476">
        <ele>179.19366455078</ele>
        <time>2011-09-03T10:15:08Z</time>
      </trkpt>
      <trkpt lat="43.4903" lon="6.90476">
        <ele>179.19282531738</ele>
        <time>2011-09-03T10:15:17Z</time>
      </trkpt>
      <trkpt lat="43.4903" lon="6.90475">
        <ele>179.15321350098</ele>
        <time>2011-09-03T10:15:52Z</time>
      </trkpt>
      <trkpt lat="43.49031" lon="6.90477">
        <ele>179.25219726562</ele>
        <time>2011-09-03T10:16:07Z</time>
      </trkpt>
      <trkpt lat="43.49031" lon="6.90477">
        <ele>179.25834655762</ele>
        <time>2011-09-03T10:16:14Z</time>
      </trkpt>
      <trkpt lat="43.49033" lon="6.90479">
        <ele>179.38758850098</ele>
        <time>2011-09-03T10:16:24Z</time>
      </trkpt>
      <trkpt lat="43.49035" lon="6.9048">
        <ele>179.48013305664</ele>
        <time>2011-09-03T10:16:44Z</time>
      </trkpt>
      <trkpt lat="43.49032" lon="6.90474">
        <ele>179.21328735352</ele>
        <time>2011-09-03T10:17:30Z</time>
      </trkpt>
      <trkpt lat="43.49032" lon="6.90475">
        <ele>179.23027038574</ele>
        <time>2011-09-03T10:17:33Z</time>
      </trkpt>
      <trkpt lat="43.49032" lon="6.90475">
        <ele>179.23027038574</ele>
        <time>2011-09-03T10:17:41Z</time>
      </trkpt>
      <trkpt lat="43.49033" lon="6.90475">
        <ele>179.24142456055</ele>
        <time>2011-09-03T10:17:45Z</time>
      </trkpt>
      <trkpt lat="43.49033" lon="6.90475">
        <ele>179.24284362793</ele>
        <time>2011-09-03T10:17:46Z</time>
      </trkpt>
      <trkpt lat="43.49032" lon="6.90475">
        <ele>179.22882080078</ele>
        <time>2011-09-03T10:17:52Z</time>
      </trkpt>
      <trkpt lat="43.4903" lon="6.90474">
        <ele>179.13929748535</ele>
        <time>2011-09-03T10:18:03Z</time>
      </trkpt>
      <trkpt lat="43.4903" lon="6.90473">
        <ele>179.10523986816</ele>
        <time>2011-09-03T10:18:16Z</time>
      </trkpt>
      <trkpt lat="43.49029" lon="6.90474">
        <ele>179.10028076172</ele>
        <time>2011-09-03T10:18:21Z</time>
      </trkpt>
      <trkpt lat="43.49027" lon="6.90475">
        <ele>179.05949401856</ele>
        <time>2011-09-03T10:18:39Z</time>
      </trkpt>
      <trkpt lat="43.49027" lon="6.90475">
        <ele>179.06126403809</ele>
        <time>2011-09-03T10:18:41Z</time>
      </trkpt>
      <trkpt lat="43.49026" lon="6.90475">
        <ele>179.05058288574</ele>
        <time>2011-09-03T10:18:42Z</time>
      </trkpt>
      <trkpt lat="43.49026" lon="6.90475">
        <ele>179.05596923828</ele>
        <time>2011-09-03T10:18:45Z</time>
      </trkpt>
      <trkpt lat="43.49026" lon="6.90479">
        <ele>179.19247436523</ele>
        <time>2011-09-03T10:19:05Z</time>
      </trkpt>
      <trkpt lat="43.49029" lon="6.90484">
        <ele>179.45098876953</ele>
        <time>2011-09-03T10:19:09Z</time>
      </trkpt>
      <trkpt lat="43.49031" lon="6.90486">
        <ele>179.55804443359</ele>
        <time>2011-09-03T10:19:11Z</time>
      </trkpt>
      <trkpt lat="43.49039" lon="6.90492">
        <ele>179.83062744141</ele>
        <time>2011-09-03T10:19:16Z</time>
      </trkpt>
      <trkpt lat="43.4904" lon="6.90494">
        <ele>179.87155151367</ele>
        <time>2011-09-03T10:19:17Z</time>
      </trkpt>
      <trkpt lat="43.49051" lon="6.90498">
        <ele>179.98551940918</ele>
        <time>2011-09-03T10:19:23Z</time>
      </trkpt>
      <trkpt lat="43.49055" lon="6.90499">
        <ele>179.99987792969</ele>
        <time>2011-09-03T10:19:26Z</time>
      </trkpt>
      <trkpt lat="43.4906" lon="6.90501">
        <ele>180.23904418945</ele>
        <time>2011-09-03T10:19:29Z</time>
      </trkpt>
      <trkpt lat="43.49062" lon="6.90503">
        <ele>180.60678100586</ele>
        <time>2011-09-03T10:19:31Z</time>
      </trkpt>
      <trkpt lat="43.49065" lon="6.90505">
        <ele>180.86393737793</ele>
        <time>2011-09-03T10:19:34Z</time>
      </trkpt>
      <trkpt lat="43.49067" lon="6.90506">
        <ele>180.95429992676</ele>
        <time>2011-09-03T10:19:36Z</time>
      </trkpt>
      <trkpt lat="43.49072" lon="6.90508">
        <ele>180.97039794922</ele>
        <time>2011-09-03T10:19:40Z</time>
      </trkpt>
      <trkpt lat="43.49079" lon="6.90514">
        <ele>180.6512298584</ele>
        <time>2011-09-03T10:19:46Z</time>
      </trkpt>
      <trkpt lat="43.49084" lon="6.90518">
        <ele>180</ele>
        <time>2011-09-03T10:19:52Z</time>
      </trkpt>
      <trkpt lat="43.49094" lon="6.90524">
        <ele>180</ele>
        <time>2011-09-03T10:20:00Z</time>
      </trkpt>
      <trkpt lat="43.49103" lon="6.9053">
        <ele>180.98495483398</ele>
        <time>2011-09-03T10:20:07Z</time>
      </trkpt>
      <trkpt lat="43.49109" lon="6.90535">
        <ele>182.87135314941</ele>
        <time>2011-09-03T10:20:14Z</time>
      </trkpt>
      <trkpt lat="43.49117" lon="6.9054">
        <ele>184.25544738769</ele>
        <time>2011-09-03T10:20:21Z</time>
      </trkpt>
      <trkpt lat="43.49125" lon="6.90541">
        <ele>184.63310241699</ele>
        <time>2011-09-03T10:20:27Z</time>
      </trkpt>
      <trkpt lat="43.49133" lon="6.90543">
        <ele>185.35408020019</ele>
        <time>2011-09-03T10:20:34Z</time>
      </trkpt>
      <trkpt lat="43.49141" lon="6.90546">
        <ele>187.00936889648</ele>
        <time>2011-09-03T10:20:41Z</time>
      </trkpt>
      <trkpt lat="43.49145" lon="6.90546">
        <ele>188.10543823242</ele>
        <time>2011-09-03T10:20:44Z</time>
      </trkpt>
      <trkpt lat="43.49146" lon="6.90554">
        <ele>190.8582611084</ele>
        <time>2011-09-03T10:20:50Z</time>
      </trkpt>
      <trkpt lat="43.49137" lon="6.90555">
        <ele>189.86877441406</ele>
        <time>2011-09-03T10:20:56Z</time>
      </trkpt>
      <trkpt lat="43.49136" lon="6.90555">
        <ele>189.85160827637</ele>
        <time>2011-09-03T10:20:57Z</time>
      </trkpt>
      <trkpt lat="43.49126" lon="6.90557">
        <ele>190.39549255371</ele>
        <time>2011-09-03T10:21:04Z</time>
      </trkpt>
      <trkpt lat="43.49116" lon="6.90561">
        <ele>191.70367431641</ele>
        <time>2011-09-03T10:21:12Z</time>
      </trkpt>
      <trkpt lat="43.49107" lon="6.90563">
        <ele>193.38996887207</ele>
        <time>2011-09-03T10:21:18Z</time>
      </trkpt>
      <trkpt lat="43.49107" lon="6.9057">
        <ele>195.57275390625</ele>
        <time>2011-09-03T10:21:23Z</time>
      </trkpt>
      <trkpt lat="43.4912" lon="6.9057">
        <ele>194.40985107422</ele>
        <time>2011-09-03T10:21:31Z</time>
      </trkpt>
      <trkpt lat="43.49131" lon="6.90569">
        <ele>193.54368591309</ele>
        <time>2011-09-03T10:21:38Z</time>
      </trkpt>
      <trkpt lat="43.49144" lon="6.90573">
        <ele>194.36740112305</ele>
        <time>2011-09-03T10:21:47Z</time>
      </trkpt>
      <trkpt lat="43.49148" lon="6.90575">
        <ele>195.16088867188</ele>
        <time>2011-09-03T10:21:51Z</time>
      </trkpt>
      <trkpt lat="43.4915" lon="6.90584">
        <ele>196.90306091309</ele>
        <time>2011-09-03T10:21:56Z</time>
      </trkpt>
      <trkpt lat="43.49144" lon="6.90588">
        <ele>197.75701904297</ele>
        <time>2011-09-03T10:22:01Z</time>
      </trkpt>
      <trkpt lat="43.49134" lon="6.90589">
        <ele>198.54434204102</ele>
        <time>2011-09-03T10:22:09Z</time>
      </trkpt>
      <trkpt lat="43.49128" lon="6.90594">
        <ele>200.87196350098</ele>
        <time>2011-09-03T10:22:15Z</time>
      </trkpt>
      <trkpt lat="43.49124" lon="6.90604">
        <ele>204.13014221191</ele>
        <time>2011-09-03T10:22:21Z</time>
      </trkpt>
      <trkpt lat="43.4913" lon="6.9061">
        <ele>205.43840026856</ele>
        <time>2011-09-03T10:22:28Z</time>
      </trkpt>
      <trkpt lat="43.49132" lon="6.9061">
        <ele>205.21017456055</ele>
        <time>2011-09-03T10:22:29Z</time>
      </trkpt>
      <trkpt lat="43.49142" lon="6.90609">
        <ele>204.29425048828</ele>
        <time>2011-09-03T10:22:37Z</time>
      </trkpt>
      <trkpt lat="43.4915" lon="6.90615">
        <ele>206.02464294434</ele>
        <time>2011-09-03T10:22:44Z</time>
      </trkpt>
      <trkpt lat="43.49158" lon="6.9062">
        <ele>207.19021606445</ele>
        <time>2011-09-03T10:22:50Z</time>
      </trkpt>
      <trkpt lat="43.49167" lon="6.90625">
        <ele>208.59910583496</ele>
        <time>2011-09-03T10:22:57Z</time>
      </trkpt>
      <trkpt lat="43.49176" lon="6.90626">
        <ele>208.36737060547</ele>
        <time>2011-09-03T10:23:03Z</time>
      </trkpt>
      <trkpt lat="43.49184" lon="6.9062">
        <ele>206.71083068848</ele>
        <time>2011-09-03T10:23:09Z</time>
      </trkpt>
      <trkpt lat="43.49192" lon="6.90608">
        <ele>203.51330566406</ele>
        <time>2011-09-03T10:23:16Z</time>
      </trkpt>
      <trkpt lat="43.49202" lon="6.90602">
        <ele>202.6594543457</ele>
        <time>2011-09-03T10:23:23Z</time>
      </trkpt>
      <trkpt lat="43.4921" lon="6.90599">
        <ele>202.42944335938</ele>
        <time>2011-09-03T10:23:29Z</time>
      </trkpt>
      <trkpt lat="43.49219" lon="6.90604">
        <ele>203.5212097168</ele>
        <time>2011-09-03T10:23:36Z</time>
      </trkpt>
      <trkpt lat="43.49227" lon="6.90603">
        <ele>203.85858154297</ele>
        <time>2011-09-03T10:23:42Z</time>
      </trkpt>
      <trkpt lat="43.49231" lon="6.90603">
        <ele>204.08601379394</ele>
        <time>2011-09-03T10:23:45Z</time>
      </trkpt>
      <trkpt lat="43.49236" lon="6.90603">
        <ele>204.15812683106</ele>
        <time>2011-09-03T10:23:49Z</time>
      </trkpt>
      <trkpt lat="43.49244" lon="6.906">
        <ele>203.98001098633</ele>
        <time>2011-09-03T10:23:55Z</time>
      </trkpt>
      <trkpt lat="43.49247" lon="6.90599">
        <ele>203.76200866699</ele>
        <time>2011-09-03T10:23:57Z</time>
      </trkpt>
      <trkpt lat="43.49254" lon="6.90596">
        <ele>203.54328918457</ele>
        <time>2011-09-03T10:24:03Z</time>
      </trkpt>
      <trkpt lat="43.49259" lon="6.90592">
        <ele>202.82963562012</ele>
        <time>2011-09-03T10:24:07Z</time>
      </trkpt>
      <trkpt lat="43.49271" lon="6.90584">
        <ele>201.69786071777</ele>
        <time>2011-09-03T10:24:15Z</time>
      </trkpt>
      <trkpt lat="43.49282" lon="6.90577">
        <ele>201.86054992676</ele>
        <time>2011-09-03T10:24:22Z</time>
      </trkpt>
      <trkpt lat="43.49284" lon="6.90577">
        <ele>202.07270812988</ele>
        <time>2011-09-03T10:24:24Z</time>
      </trkpt>
      <trkpt lat="43.4929" lon="6.90578">
        <ele>202.77336120606</ele>
        <time>2011-09-03T10:24:30Z</time>
      </trkpt>
      <trkpt lat="43.49292" lon="6.90579">
        <ele>203.07792663574</ele>
        <time>2011-09-03T10:24:32Z</time>
      </trkpt>
      <trkpt lat="43.49299" lon="6.90584">
        <ele>204.34910583496</ele>
        <time>2011-09-03T10:24:39Z</time>
      </trkpt>
      <trkpt lat="43.49305" lon="6.90586">
        <ele>205.96215820312</ele>
        <time>2011-09-03T10:24:45Z</time>
      </trkpt>
      <trkpt lat="43.49314" lon="6.90591">
        <ele>209.32719421387</ele>
        <time>2011-09-03T10:24:54Z</time>
      </trkpt>
      <trkpt lat="43.49321" lon="6.90595">
        <ele>211.81791687012</ele>
        <time>2011-09-03T10:25:00Z</time>
      </trkpt>
      <trkpt lat="43.49329" lon="6.90598">
        <ele>214.46257019043</ele>
        <time>2011-09-03T10:25:06Z</time>
      </trkpt>
      <trkpt lat="43.49331" lon="6.90599">
        <ele>215.03831481934</ele>
        <time>2011-09-03T10:25:07Z</time>
      </trkpt>
      <trkpt lat="43.49337" lon="6.90598">
        <ele>216.3484954834</ele>
        <time>2011-09-03T10:25:11Z</time>
      </trkpt>
      <trkpt lat="43.49346" lon="6.90594">
        <ele>218.37409973144</ele>
        <time>2011-09-03T10:25:17Z</time>
      </trkpt>
      <trkpt lat="43.49352" lon="6.90587">
        <ele>217.94494628906</ele>
        <time>2011-09-03T10:25:22Z</time>
      </trkpt>
      <trkpt lat="43.49355" lon="6.90575">
        <ele>216.04049682617</ele>
        <time>2011-09-03T10:25:28Z</time>
      </trkpt>
      <trkpt lat="43.49355" lon="6.90563">
        <ele>213.73707580566</ele>
        <time>2011-09-03T10:25:34Z</time>
      </trkpt>
      <trkpt lat="43.49356" lon="6.90549">
        <ele>211.45112609863</ele>
        <time>2011-09-03T10:25:41Z</time>
      </trkpt>
      <trkpt lat="43.49357" lon="6.90541">
        <ele>209.91519165039</ele>
        <time>2011-09-03T10:25:46Z</time>
      </trkpt>
      <trkpt lat="43.49361" lon="6.90525">
        <ele>208.22473144531</ele>
        <time>2011-09-03T10:25:55Z</time>
      </trkpt>
      <trkpt lat="43.49365" lon="6.90509">
        <ele>210.15365600586</ele>
        <time>2011-09-03T10:26:03Z</time>
      </trkpt>
      <trkpt lat="43.49371" lon="6.90497">
        <ele>212.8811340332</ele>
        <time>2011-09-03T10:26:10Z</time>
      </trkpt>
      <trkpt lat="43.49377" lon="6.90488">
        <ele>216.17353820801</ele>
        <time>2011-09-03T10:26:16Z</time>
      </trkpt>
      <trkpt lat="43.49384" lon="6.90478">
        <ele>218.85244750977</ele>
        <time>2011-09-03T10:26:23Z</time>
      </trkpt>
      <trkpt lat="43.4939" lon="6.90472">
        <ele>220.68067932129</ele>
        <time>2011-09-03T10:26:29Z</time>
      </trkpt>
      <trkpt lat="43.49394" lon="6.90466">
        <ele>225.36288452148</ele>
        <time>2011-09-03T10:26:35Z</time>
      </trkpt>
      <trkpt lat="43.494" lon="6.9046">
        <ele>230.33741760254</ele>
        <time>2011-09-03T10:26:41Z</time>
      </trkpt>
      <trkpt lat="43.49407" lon="6.90455">
        <ele>234.6697845459</ele>
        <time>2011-09-03T10:26:47Z</time>
      </trkpt>
      <trkpt lat="43.49413" lon="6.90449">
        <ele>238.39138793945</ele>
        <time>2011-09-03T10:26:55Z</time>
      </trkpt>
      <trkpt lat="43.49421" lon="6.90443">
        <ele>242.29466247559</ele>
        <time>2011-09-03T10:27:01Z</time>
      </trkpt>
      <trkpt lat="43.49423" lon="6.90441">
        <ele>243.30320739746</ele>
        <time>2011-09-03T10:27:03Z</time>
      </trkpt>
      <trkpt lat="43.49435" lon="6.90433">
        <ele>249.83903503418</ele>
        <time>2011-09-03T10:27:12Z</time>
      </trkpt>
      <trkpt lat="43.49444" lon="6.90425">
        <ele>254.18417358398</ele>
        <time>2011-09-03T10:27:19Z</time>
      </trkpt>
      <trkpt lat="43.49453" lon="6.90414">
        <ele>252.77197265625</ele>
        <time>2011-09-03T10:27:27Z</time>
      </trkpt>
      <trkpt lat="43.49463" lon="6.90404">
        <ele>251.39868164062</ele>
        <time>2011-09-03T10:27:35Z</time>
      </trkpt>
      <trkpt lat="43.4947" lon="6.90402">
        <ele>250.35498046875</ele>
        <time>2011-09-03T10:27:40Z</time>
      </trkpt>
      <trkpt lat="43.49477" lon="6.904">
        <ele>249.65563964844</ele>
        <time>2011-09-03T10:27:45Z</time>
      </trkpt>
      <trkpt lat="43.49483" lon="6.90394">
        <ele>249.24365234375</ele>
        <time>2011-09-03T10:27:50Z</time>
      </trkpt>
      <trkpt lat="43.49491" lon="6.90382">
        <ele>248.63940429688</ele>
        <time>2011-09-03T10:27:58Z</time>
      </trkpt>
      <trkpt lat="43.49495" lon="6.90379">
        <ele>248.36474609375</ele>
        <time>2011-09-03T10:28:01Z</time>
      </trkpt>
      <trkpt lat="43.49498" lon="6.90386">
        <ele>248.14501953125</ele>
        <time>2011-09-03T10:28:06Z</time>
      </trkpt>
      <trkpt lat="43.49495" lon="6.90388">
        <ele>248.33728027344</ele>
        <time>2011-09-03T10:28:10Z</time>
      </trkpt>
      <trkpt lat="43.49494" lon="6.9039">
        <ele>248.44714355469</ele>
        <time>2011-09-03T10:28:15Z</time>
      </trkpt>
      <trkpt lat="43.49494" lon="6.9039">
        <ele>248.41967773438</ele>
        <time>2011-09-03T10:28:20Z</time>
      </trkpt>
      <trkpt lat="43.49495" lon="6.90388">
        <ele>248.33728027344</ele>
        <time>2011-09-03T10:28:27Z</time>
      </trkpt>
      <trkpt lat="43.49496" lon="6.90389">
        <ele>248.2548828125</ele>
        <time>2011-09-03T10:28:32Z</time>
      </trkpt>
      <trkpt lat="43.49496" lon="6.90389">
        <ele>248.2548828125</ele>
        <time>2011-09-03T10:28:36Z</time>
      </trkpt>
      <trkpt lat="43.49496" lon="6.90389">
        <ele>248.28234863281</ele>
        <time>2011-09-03T10:28:44Z</time>
      </trkpt>
      <trkpt lat="43.49496" lon="6.90391">
        <ele>248.2548828125</ele>
        <time>2011-09-03T10:28:52Z</time>
      </trkpt>
      <trkpt lat="43.49496" lon="6.90392">
        <ele>248.2548828125</ele>
        <time>2011-09-03T10:28:57Z</time>
      </trkpt>
      <trkpt lat="43.49497" lon="6.90393">
        <ele>248.19995117188</ele>
        <time>2011-09-03T10:29:07Z</time>
      </trkpt>
      <trkpt lat="43.49497" lon="6.90393">
        <ele>248.19995117188</ele>
        <time>2011-09-03T10:29:10Z</time>
      </trkpt>
      <trkpt lat="43.49498" lon="6.90393">
        <ele>248.14501953125</ele>
        <time>2011-09-03T10:29:22Z</time>
      </trkpt>
      <trkpt lat="43.49496" lon="6.90392">
        <ele>248.28234863281</ele>
        <time>2011-09-03T10:29:31Z</time>
      </trkpt>
      <trkpt lat="43.49496" lon="6.90392">
        <ele>248.30981445312</ele>
        <time>2011-09-03T10:29:38Z</time>
      </trkpt>
      <trkpt lat="43.49496" lon="6.90391">
        <ele>248.30981445312</ele>
        <time>2011-09-03T10:29:51Z</time>
      </trkpt>
      <trkpt lat="43.49495" lon="6.90391">
        <ele>248.33728027344</ele>
        <time>2011-09-03T10:30:15Z</time>
      </trkpt>
      <trkpt lat="43.49495" lon="6.90391">
        <ele>248.33728027344</ele>
        <time>2011-09-03T10:30:23Z</time>
      </trkpt>
      <trkpt lat="43.49496" lon="6.90391">
        <ele>248.28234863281</ele>
        <time>2011-09-03T10:30:31Z</time>
      </trkpt>
      <trkpt lat="43.49495" lon="6.9039">
        <ele>248.33728027344</ele>
        <time>2011-09-03T10:30:39Z</time>
      </trkpt>
      <trkpt lat="43.49499" lon="6.9039">
        <ele>248.09008789062</ele>
        <time>2011-09-03T10:30:55Z</time>
      </trkpt>
      <trkpt lat="43.495" lon="6.90391">
        <ele>247.97033691406</ele>
        <time>2011-09-03T10:31:00Z</time>
      </trkpt>
      <trkpt lat="43.49501" lon="6.90391">
        <ele>247.92913818359</ele>
        <time>2011-09-03T10:31:02Z</time>
      </trkpt>
      <trkpt lat="43.49501" lon="6.90391">
        <ele>247.92913818359</ele>
        <time>2011-09-03T10:31:03Z</time>
      </trkpt>
      <trkpt lat="43.49498" lon="6.90389">
        <ele>248.11755371094</ele>
        <time>2011-09-03T10:31:38Z</time>
      </trkpt>
      <trkpt lat="43.49498" lon="6.90389">
        <ele>248.14501953125</ele>
        <time>2011-09-03T10:31:46Z</time>
      </trkpt>
      <trkpt lat="43.49498" lon="6.90389">
        <ele>248.17248535156</ele>
        <time>2011-09-03T10:31:59Z</time>
      </trkpt>
      <trkpt lat="43.49498" lon="6.90389">
        <ele>248.17248535156</ele>
        <time>2011-09-03T10:32:13Z</time>
      </trkpt>
      <trkpt lat="43.49496" lon="6.90389">
        <ele>248.2548828125</ele>
        <time>2011-09-03T10:32:34Z</time>
      </trkpt>
      <trkpt lat="43.49497" lon="6.9039">
        <ele>248.22741699219</ele>
        <time>2011-09-03T10:32:38Z</time>
      </trkpt>
      <trkpt lat="43.49497" lon="6.90391">
        <ele>248.19995117188</ele>
        <time>2011-09-03T10:32:53Z</time>
      </trkpt>
      <trkpt lat="43.49498" lon="6.90391">
        <ele>248.17248535156</ele>
        <time>2011-09-03T10:33:10Z</time>
      </trkpt>
      <trkpt lat="43.49498" lon="6.90391">
        <ele>248.17248535156</ele>
        <time>2011-09-03T10:33:21Z</time>
      </trkpt>
      <trkpt lat="43.49496" lon="6.90391">
        <ele>248.2548828125</ele>
        <time>2011-09-03T10:33:24Z</time>
      </trkpt>
      <trkpt lat="43.49496" lon="6.9039">
        <ele>248.28234863281</ele>
        <time>2011-09-03T10:33:28Z</time>
      </trkpt>
      <trkpt lat="43.49496" lon="6.9039">
        <ele>248.28234863281</ele>
        <time>2011-09-03T10:33:31Z</time>
      </trkpt>
      <trkpt lat="43.49498" lon="6.90387">
        <ele>248.17248535156</ele>
        <time>2011-09-03T10:33:43Z</time>
      </trkpt>
      <trkpt lat="43.49495" lon="6.90385">
        <ele>248.39221191406</ele>
        <time>2011-09-03T10:34:00Z</time>
      </trkpt>
      <trkpt lat="43.49496" lon="6.90387">
        <ele>248.30981445312</ele>
        <time>2011-09-03T10:34:20Z</time>
      </trkpt>
      <trkpt lat="43.49496" lon="6.90387">
        <ele>248.30981445312</ele>
        <time>2011-09-03T10:34:23Z</time>
      </trkpt>
      <trkpt lat="43.49494" lon="6.90389">
        <ele>248.44714355469</ele>
        <time>2011-09-03T10:34:27Z</time>
      </trkpt>
      <trkpt lat="43.49487" lon="6.90412">
        <ele>248.9140625</ele>
        <time>2011-09-03T10:34:35Z</time>
      </trkpt>
      <trkpt lat="43.49477" lon="6.9044">
        <ele>250.38385009766</ele>
        <time>2011-09-03T10:34:44Z</time>
      </trkpt>
      <trkpt lat="43.49462" lon="6.90462">
        <ele>253.13772583008</ele>
        <time>2011-09-03T10:34:52Z</time>
      </trkpt>
      <trkpt lat="43.49445" lon="6.90478">
        <ele>255.92553710938</ele>
        <time>2011-09-03T10:34:59Z</time>
      </trkpt>
      <trkpt lat="43.49433" lon="6.90491">
        <ele>249.2666015625</ele>
        <time>2011-09-03T10:35:04Z</time>
      </trkpt>
      <trkpt lat="43.49417" lon="6.90517">
        <ele>240.03956604004</ele>
        <time>2011-09-03T10:35:12Z</time>
      </trkpt>
      <trkpt lat="43.49415" lon="6.90542">
        <ele>239.05430603027</ele>
        <time>2011-09-03T10:35:18Z</time>
      </trkpt>
      <trkpt lat="43.49419" lon="6.90568">
        <ele>241.52600097656</ele>
        <time>2011-09-03T10:35:25Z</time>
      </trkpt>
      <trkpt lat="43.49421" lon="6.90601">
        <ele>247.24192810059</ele>
        <time>2011-09-03T10:35:33Z</time>
      </trkpt>
      <trkpt lat="43.49416" lon="6.90629">
        <ele>253.65754699707</ele>
        <time>2011-09-03T10:35:40Z</time>
      </trkpt>
      <trkpt lat="43.49405" lon="6.90658">
        <ele>258.40194702148</ele>
        <time>2011-09-03T10:35:48Z</time>
      </trkpt>
      <trkpt lat="43.49386" lon="6.90687">
        <ele>263.24273681641</ele>
        <time>2011-09-03T10:35:57Z</time>
      </trkpt>
      <trkpt lat="43.49372" lon="6.90696">
        <ele>258.53915405273</ele>
        <time>2011-09-03T10:36:02Z</time>
      </trkpt>
      <trkpt lat="43.49348" lon="6.90705">
        <ele>251.48600769043</ele>
        <time>2011-09-03T10:36:10Z</time>
      </trkpt>
      <trkpt lat="43.4932" lon="6.90714">
        <ele>248.10427856445</ele>
        <time>2011-09-03T10:36:19Z</time>
      </trkpt>
      <trkpt lat="43.49288" lon="6.90735">
        <ele>245.98930358887</ele>
        <time>2011-09-03T10:36:30Z</time>
      </trkpt>
      <trkpt lat="43.49266" lon="6.90753">
        <ele>245.54254150391</ele>
        <time>2011-09-03T10:36:38Z</time>
      </trkpt>
      <trkpt lat="43.49249" lon="6.90774">
        <ele>248.67364501953</ele>
        <time>2011-09-03T10:36:45Z</time>
      </trkpt>
      <trkpt lat="43.49237" lon="6.90815">
        <ele>255.07986450195</ele>
        <time>2011-09-03T10:36:55Z</time>
      </trkpt>
      <trkpt lat="43.49222" lon="6.90845">
        <ele>259.54861450195</ele>
        <time>2011-09-03T10:37:03Z</time>
      </trkpt>
      <trkpt lat="43.49199" lon="6.90876">
        <ele>262.61395263672</ele>
        <time>2011-09-03T10:37:13Z</time>
      </trkpt>
      <trkpt lat="43.49173" lon="6.90909">
        <ele>267.91848754883</ele>
        <time>2011-09-03T10:37:24Z</time>
      </trkpt>
      <trkpt lat="43.49149" lon="6.90942">
        <ele>276.4416809082</ele>
        <time>2011-09-03T10:37:35Z</time>
      </trkpt>
      <trkpt lat="43.49125" lon="6.90964">
        <ele>282.62725830078</ele>
        <time>2011-09-03T10:37:44Z</time>
      </trkpt>
      <trkpt lat="43.49101" lon="6.90972">
        <ele>285.46383666992</ele>
        <time>2011-09-03T10:37:52Z</time>
      </trkpt>
      <trkpt lat="43.49087" lon="6.90964">
        <ele>284.10961914062</ele>
        <time>2011-09-03T10:37:57Z</time>
      </trkpt>
      <trkpt lat="43.49073" lon="6.90944">
        <ele>282.11630249023</ele>
        <time>2011-09-03T10:38:03Z</time>
      </trkpt>
      <trkpt lat="43.4906" lon="6.90913">
        <ele>275.71343994141</ele>
        <time>2011-09-03T10:38:11Z</time>
      </trkpt>
      <trkpt lat="43.49048" lon="6.90872">
        <ele>269.49905395508</ele>
        <time>2011-09-03T10:38:21Z</time>
      </trkpt>
      <trkpt lat="43.49038" lon="6.90855">
        <ele>268.37542724609</ele>
        <time>2011-09-03T10:38:26Z</time>
      </trkpt>
      <trkpt lat="43.4901" lon="6.9083">
        <ele>266.10168457031</ele>
        <time>2011-09-03T10:38:35Z</time>
      </trkpt>
      <trkpt lat="43.48986" lon="6.90819">
        <ele>266.10165405273</ele>
        <time>2011-09-03T10:38:42Z</time>
      </trkpt>
      <trkpt lat="43.48963" lon="6.90829">
        <ele>271.08108520508</ele>
        <time>2011-09-03T10:38:48Z</time>
      </trkpt>
      <trkpt lat="43.48932" lon="6.90849">
        <ele>278.98226928711</ele>
        <time>2011-09-03T10:38:57Z</time>
      </trkpt>
      <trkpt lat="43.48912" lon="6.90851">
        <ele>282.87454223633</ele>
        <time>2011-09-03T10:39:03Z</time>
      </trkpt>
      <trkpt lat="43.48891" lon="6.9084">
        <ele>284.78021240234</ele>
        <time>2011-09-03T10:39:10Z</time>
      </trkpt>
      <trkpt lat="43.48874" lon="6.9082">
        <ele>282.01837158203</ele>
        <time>2011-09-03T10:39:17Z</time>
      </trkpt>
      <trkpt lat="43.48854" lon="6.90792">
        <ele>278.52618408203</ele>
        <time>2011-09-03T10:39:26Z</time>
      </trkpt>
      <trkpt lat="43.48829" lon="6.90764">
        <ele>275.33728027344</ele>
        <time>2011-09-03T10:39:36Z</time>
      </trkpt>
      <trkpt lat="43.48805" lon="6.90749">
        <ele>271.70181274414</ele>
        <time>2011-09-03T10:39:44Z</time>
      </trkpt>
      <trkpt lat="43.48778" lon="6.90732">
        <ele>258.16799926758</ele>
        <time>2011-09-03T10:39:54Z</time>
      </trkpt>
      <trkpt lat="43.48766" lon="6.90736">
        <ele>249.4852142334</ele>
        <time>2011-09-03T10:39:59Z</time>
      </trkpt>
      <trkpt lat="43.48758" lon="6.90754">
        <ele>245.98754882812</ele>
        <time>2011-09-03T10:40:05Z</time>
      </trkpt>
      <trkpt lat="43.48758" lon="6.90782">
        <ele>246.64704895019</ele>
        <time>2011-09-03T10:40:12Z</time>
      </trkpt>
      <trkpt lat="43.48761" lon="6.90813">
        <ele>258.40145874023</ele>
        <time>2011-09-03T10:40:20Z</time>
      </trkpt>
      <trkpt lat="43.48763" lon="6.90857">
        <ele>273.64462280273</ele>
        <time>2011-09-03T10:40:31Z</time>
      </trkpt>
      <trkpt lat="43.48763" lon="6.90896">
        <ele>280.0290222168</ele>
        <time>2011-09-03T10:40:41Z</time>
      </trkpt>
      <trkpt lat="43.48759" lon="6.90926">
        <ele>284.20193481445</ele>
        <time>2011-09-03T10:40:49Z</time>
      </trkpt>
      <trkpt lat="43.48749" lon="6.90955">
        <ele>288.42993164062</ele>
        <time>2011-09-03T10:40:57Z</time>
      </trkpt>
      <trkpt lat="43.48735" lon="6.90986">
        <ele>296.41720581055</ele>
        <time>2011-09-03T10:41:06Z</time>
      </trkpt>
      <trkpt lat="43.48727" lon="6.91011">
        <ele>306.69464111328</ele>
        <time>2011-09-03T10:41:13Z</time>
      </trkpt>
      <trkpt lat="43.48716" lon="6.91022">
        <ele>311.50894165039</ele>
        <time>2011-09-03T10:41:18Z</time>
      </trkpt>
      <trkpt lat="43.48703" lon="6.91019">
        <ele>308.88330078125</ele>
        <time>2011-09-03T10:41:23Z</time>
      </trkpt>
      <trkpt lat="43.48679" lon="6.9101">
        <ele>304.19567871094</ele>
        <time>2011-09-03T10:41:31Z</time>
      </trkpt>
      <trkpt lat="43.48658" lon="6.91003">
        <ele>300.9797668457</ele>
        <time>2011-09-03T10:41:39Z</time>
      </trkpt>
      <trkpt lat="43.48637" lon="6.91">
        <ele>299.10711669922</ele>
        <time>2011-09-03T10:41:47Z</time>
      </trkpt>
      <trkpt lat="43.48618" lon="6.91007">
        <ele>294.88137817383</ele>
        <time>2011-09-03T10:41:55Z</time>
      </trkpt>
      <trkpt lat="43.48605" lon="6.91023">
        <ele>296.64337158203</ele>
        <time>2011-09-03T10:42:02Z</time>
      </trkpt>
      <trkpt lat="43.48588" lon="6.9105">
        <ele>295.13442993164</ele>
        <time>2011-09-03T10:42:12Z</time>
      </trkpt>
      <trkpt lat="43.48574" lon="6.91076">
        <ele>298.13006591797</ele>
        <time>2011-09-03T10:42:21Z</time>
      </trkpt>
      <trkpt lat="43.48563" lon="6.91096">
        <ele>301.1755065918</ele>
        <time>2011-09-03T10:42:29Z</time>
      </trkpt>
      <trkpt lat="43.4855" lon="6.91117">
        <ele>303.10568237305</ele>
        <time>2011-09-03T10:42:37Z</time>
      </trkpt>
      <trkpt lat="43.48529" lon="6.91145">
        <ele>305.67251586914</ele>
        <time>2011-09-03T10:42:48Z</time>
      </trkpt>
      <trkpt lat="43.48509" lon="6.9117">
        <ele>307.14010620117</ele>
        <time>2011-09-03T10:42:58Z</time>
      </trkpt>
      <trkpt lat="43.48498" lon="6.91184">
        <ele>306.76568603516</ele>
        <time>2011-09-03T10:43:04Z</time>
      </trkpt>
      <trkpt lat="43.48484" lon="6.912">
        <ele>308.59814453125</ele>
        <time>2011-09-03T10:43:11Z</time>
      </trkpt>
      <trkpt lat="43.48471" lon="6.91212">
        <ele>311.24737548828</ele>
        <time>2011-09-03T10:43:17Z</time>
      </trkpt>
      <trkpt lat="43.48457" lon="6.91225">
        <ele>314.77001953125</ele>
        <time>2011-09-03T10:43:24Z</time>
      </trkpt>
      <trkpt lat="43.48438" lon="6.9124">
        <ele>318.2131652832</ele>
        <time>2011-09-03T10:43:32Z</time>
      </trkpt>
      <trkpt lat="43.48421" lon="6.91251">
        <ele>322.04736328125</ele>
        <time>2011-09-03T10:43:40Z</time>
      </trkpt>
      <trkpt lat="43.484" lon="6.91262">
        <ele>322.85076904297</ele>
        <time>2011-09-03T10:43:49Z</time>
      </trkpt>
      <trkpt lat="43.48379" lon="6.91267">
        <ele>323.24557495117</ele>
        <time>2011-09-03T10:43:57Z</time>
      </trkpt>
      <trkpt lat="43.48359" lon="6.91263">
        <ele>322.96063232422</ele>
        <time>2011-09-03T10:44:04Z</time>
      </trkpt>
      <trkpt lat="43.48342" lon="6.91256">
        <ele>322.43188476562</ele>
        <time>2011-09-03T10:44:11Z</time>
      </trkpt>
      <trkpt lat="43.48332" lon="6.91245">
        <ele>321.67315673828</ele>
        <time>2011-09-03T10:44:18Z</time>
      </trkpt>
      <trkpt lat="43.48323" lon="6.91236">
        <ele>320.96246337891</ele>
        <time>2011-09-03T10:44:23Z</time>
      </trkpt>
      <trkpt lat="43.48312" lon="6.91217">
        <ele>320</ele>
        <time>2011-09-03T10:44:31Z</time>
      </trkpt>
      <trkpt lat="43.48299" lon="6.91192">
        <ele>320</ele>
        <time>2011-09-03T10:44:41Z</time>
      </trkpt>
      <trkpt lat="43.48287" lon="6.91171">
        <ele>320</ele>
        <time>2011-09-03T10:44:49Z</time>
      </trkpt>
      <trkpt lat="43.48275" lon="6.91152">
        <ele>320</ele>
        <time>2011-09-03T10:44:57Z</time>
      </trkpt>
      <trkpt lat="43.48261" lon="6.91131">
        <ele>320</ele>
        <time>2011-09-03T10:45:06Z</time>
      </trkpt>
      <trkpt lat="43.48248" lon="6.91112">
        <ele>320</ele>
        <time>2011-09-03T10:45:14Z</time>
      </trkpt>
      <trkpt lat="43.48231" lon="6.91088">
        <ele>320</ele>
        <time>2011-09-03T10:45:24Z</time>
      </trkpt>
      <trkpt lat="43.48214" lon="6.91074">
        <ele>320</ele>
        <time>2011-09-03T10:45:32Z</time>
      </trkpt>
      <trkpt lat="43.48197" lon="6.91075">
        <ele>320</ele>
        <time>2011-09-03T10:45:39Z</time>
      </trkpt>
      <trkpt lat="43.48172" lon="6.91086">
        <ele>320</ele>
        <time>2011-09-03T10:45:50Z</time>
      </trkpt>
      <trkpt lat="43.4815" lon="6.91101">
        <ele>320</ele>
        <time>2011-09-03T10:46:00Z</time>
      </trkpt>
      <trkpt lat="43.48123" lon="6.91121">
        <ele>320</ele>
        <time>2011-09-03T10:46:12Z</time>
      </trkpt>
      <trkpt lat="43.48103" lon="6.91134">
        <ele>320</ele>
        <time>2011-09-03T10:46:21Z</time>
      </trkpt>
      <trkpt lat="43.48078" lon="6.9115">
        <ele>319.67297363281</ele>
        <time>2011-09-03T10:46:32Z</time>
      </trkpt>
      <trkpt lat="43.48075" lon="6.91155">
        <ele>319.31042480469</ele>
        <time>2011-09-03T10:46:34Z</time>
      </trkpt>
      <trkpt lat="43.48059" lon="6.91172">
        <ele>314.90649414062</ele>
        <time>2011-09-03T10:46:43Z</time>
      </trkpt>
      <trkpt lat="43.48046" lon="6.9118">
        <ele>311.19985961914</ele>
        <time>2011-09-03T10:46:49Z</time>
      </trkpt>
      <trkpt lat="43.48033" lon="6.91185">
        <ele>308.64581298828</ele>
        <time>2011-09-03T10:46:56Z</time>
      </trkpt>
      <trkpt lat="43.48033" lon="6.91184">
        <ele>308.79928588867</ele>
        <time>2011-09-03T10:47:02Z</time>
      </trkpt>
      <trkpt lat="43.48034" lon="6.91184">
        <ele>308.88116455078</ele>
        <time>2011-09-03T10:47:08Z</time>
      </trkpt>
      <trkpt lat="43.4803" lon="6.91184">
        <ele>308.48123168945</ele>
        <time>2011-09-03T10:47:12Z</time>
      </trkpt>
      <trkpt lat="43.48028" lon="6.91186">
        <ele>307.80584716797</ele>
        <time>2011-09-03T10:47:18Z</time>
      </trkpt>
      <trkpt lat="43.48032" lon="6.91185">
        <ele>308.4001159668</ele>
        <time>2011-09-03T10:47:24Z</time>
      </trkpt>
      <trkpt lat="43.48034" lon="6.91184">
        <ele>308.73803710938</ele>
        <time>2011-09-03T10:47:28Z</time>
      </trkpt>
      <trkpt lat="43.48031" lon="6.91184">
        <ele>308.6100769043</ele>
        <time>2011-09-03T10:47:33Z</time>
      </trkpt>
      <trkpt lat="43.48024" lon="6.91189">
        <ele>307.21655273438</ele>
        <time>2011-09-03T10:47:38Z</time>
      </trkpt>
      <trkpt lat="43.48019" lon="6.91193">
        <ele>306.3307800293</ele>
        <time>2011-09-03T10:47:40Z</time>
      </trkpt>
      <trkpt lat="43.48008" lon="6.91199">
        <ele>304.25506591797</ele>
        <time>2011-09-03T10:47:45Z</time>
      </trkpt>
      <trkpt lat="43.48005" lon="6.91199">
        <ele>304.21838378906</ele>
        <time>2011-09-03T10:47:46Z</time>
      </trkpt>
      <trkpt lat="43.47986" lon="6.91196">
        <ele>305.32260131836</ele>
        <time>2011-09-03T10:47:51Z</time>
      </trkpt>
      <trkpt lat="43.47971" lon="6.91193">
        <ele>306.31231689453</ele>
        <time>2011-09-03T10:47:54Z</time>
      </trkpt>
      <trkpt lat="43.4796" lon="6.91192">
        <ele>307.79547119141</ele>
        <time>2011-09-03T10:47:56Z</time>
      </trkpt>
      <trkpt lat="43.47945" lon="6.91192">
        <ele>309.49493408203</ele>
        <time>2011-09-03T10:47:59Z</time>
      </trkpt>
      <trkpt lat="43.47925" lon="6.91202">
        <ele>307.73440551758</ele>
        <time>2011-09-03T10:48:03Z</time>
      </trkpt>
      <trkpt lat="43.47915" lon="6.91216">
        <ele>304.93853759766</ele>
        <time>2011-09-03T10:48:06Z</time>
      </trkpt>
      <trkpt lat="43.47897" lon="6.91242">
        <ele>300.23776245117</ele>
        <time>2011-09-03T10:48:11Z</time>
      </trkpt>
      <trkpt lat="43.47886" lon="6.91261">
        <ele>297.2600402832</ele>
        <time>2011-09-03T10:48:15Z</time>
      </trkpt>
      <trkpt lat="43.47876" lon="6.91284">
        <ele>292.86672973633</ele>
        <time>2011-09-03T10:48:19Z</time>
      </trkpt>
      <trkpt lat="43.47865" lon="6.91305">
        <ele>285.58422851562</ele>
        <time>2011-09-03T10:48:24Z</time>
      </trkpt>
      <trkpt lat="43.4786" lon="6.91315">
        <ele>282.70761108398</ele>
        <time>2011-09-03T10:48:26Z</time>
      </trkpt>
      <trkpt lat="43.47842" lon="6.91339">
        <ele>279.0832824707</ele>
        <time>2011-09-03T10:48:33Z</time>
      </trkpt>
      <trkpt lat="43.47832" lon="6.91357">
        <ele>278.13192749023</ele>
        <time>2011-09-03T10:48:37Z</time>
      </trkpt>
      <trkpt lat="43.47828" lon="6.91362">
        <ele>277.48715209961</ele>
        <time>2011-09-03T10:48:38Z</time>
      </trkpt>
      <trkpt lat="43.47812" lon="6.91394">
        <ele>267.99420166016</ele>
        <time>2011-09-03T10:48:44Z</time>
      </trkpt>
      <trkpt lat="43.47803" lon="6.91414">
        <ele>262.3896484375</ele>
        <time>2011-09-03T10:48:48Z</time>
      </trkpt>
      <trkpt lat="43.47798" lon="6.9143">
        <ele>261.39926147461</ele>
        <time>2011-09-03T10:48:51Z</time>
      </trkpt>
      <trkpt lat="43.47794" lon="6.91464">
        <ele>253.88619995117</ele>
        <time>2011-09-03T10:48:56Z</time>
      </trkpt>
      <trkpt lat="43.47793" lon="6.91477">
        <ele>250.05511474609</ele>
        <time>2011-09-03T10:48:58Z</time>
      </trkpt>
      <trkpt lat="43.47791" lon="6.91488">
        <ele>247.70678710938</ele>
        <time>2011-09-03T10:49:00Z</time>
      </trkpt>
      <trkpt lat="43.4779" lon="6.91508">
        <ele>243.17221069336</ele>
        <time>2011-09-03T10:49:03Z</time>
      </trkpt>
      <trkpt lat="43.47784" lon="6.91541">
        <ele>237.80685424805</ele>
        <time>2011-09-03T10:49:08Z</time>
      </trkpt>
      <trkpt lat="43.47779" lon="6.91565">
        <ele>232.94139099121</ele>
        <time>2011-09-03T10:49:12Z</time>
      </trkpt>
      <trkpt lat="43.47769" lon="6.91592">
        <ele>226.64363098144</ele>
        <time>2011-09-03T10:49:17Z</time>
      </trkpt>
      <trkpt lat="43.47765" lon="6.91603">
        <ele>223.41802978516</ele>
        <time>2011-09-03T10:49:19Z</time>
      </trkpt>
      <trkpt lat="43.47752" lon="6.91617">
        <ele>221.16082763672</ele>
        <time>2011-09-03T10:49:23Z</time>
      </trkpt>
      <trkpt lat="43.47748" lon="6.91618">
        <ele>221.64666748047</ele>
        <time>2011-09-03T10:49:24Z</time>
      </trkpt>
      <trkpt lat="43.4773" lon="6.91613">
        <ele>227.48857116699</ele>
        <time>2011-09-03T10:49:30Z</time>
      </trkpt>
      <trkpt lat="43.47727" lon="6.91611">
        <ele>229.04850769043</ele>
        <time>2011-09-03T10:49:31Z</time>
      </trkpt>
      <trkpt lat="43.47705" lon="6.91594">
        <ele>232.22689819336</ele>
        <time>2011-09-03T10:49:37Z</time>
      </trkpt>
      <trkpt lat="43.4769" lon="6.91589">
        <ele>231.05249023438</ele>
        <time>2011-09-03T10:49:41Z</time>
      </trkpt>
      <trkpt lat="43.4767" lon="6.91583">
        <ele>229.62963867188</ele>
        <time>2011-09-03T10:49:45Z</time>
      </trkpt>
      <trkpt lat="43.47658" lon="6.91579">
        <ele>227.93144226074</ele>
        <time>2011-09-03T10:49:48Z</time>
      </trkpt>
      <trkpt lat="43.47641" lon="6.91577">
        <ele>224.89303588867</ele>
        <time>2011-09-03T10:49:53Z</time>
      </trkpt>
      <trkpt lat="43.47637" lon="6.91576">
        <ele>224.37283325195</ele>
        <time>2011-09-03T10:49:54Z</time>
      </trkpt>
      <trkpt lat="43.47612" lon="6.91575">
        <ele>222.07669067383</ele>
        <time>2011-09-03T10:50:00Z</time>
      </trkpt>
      <trkpt lat="43.476" lon="6.91576">
        <ele>222.06893920898</ele>
        <time>2011-09-03T10:50:04Z</time>
      </trkpt>
      <trkpt lat="43.47597" lon="6.91576">
        <ele>221.8768157959</ele>
        <time>2011-09-03T10:50:08Z</time>
      </trkpt>
      <trkpt lat="43.47595" lon="6.91581">
        <ele>220.5040435791</ele>
        <time>2011-09-03T10:50:13Z</time>
      </trkpt>
      <trkpt lat="43.47595" lon="6.91584">
        <ele>219.77149963379</ele>
        <time>2011-09-03T10:50:14Z</time>
      </trkpt>
      <trkpt lat="43.47598" lon="6.91606">
        <ele>211.15689086914</ele>
        <time>2011-09-03T10:50:21Z</time>
      </trkpt>
      <trkpt lat="43.47594" lon="6.91619">
        <ele>206.18670654297</ele>
        <time>2011-09-03T10:50:26Z</time>
      </trkpt>
      <trkpt lat="43.47593" lon="6.91632">
        <ele>201.39324951172</ele>
        <time>2011-09-03T10:50:30Z</time>
      </trkpt>
      <trkpt lat="43.47592" lon="6.91653">
        <ele>195.94235229492</ele>
        <time>2011-09-03T10:50:35Z</time>
      </trkpt>
      <trkpt lat="43.47589" lon="6.91673">
        <ele>190.85282897949</ele>
        <time>2011-09-03T10:50:40Z</time>
      </trkpt>
      <trkpt lat="43.47586" lon="6.91684">
        <ele>187.35093688965</ele>
        <time>2011-09-03T10:50:45Z</time>
      </trkpt>
      <trkpt lat="43.47579" lon="6.91698">
        <ele>182.7479095459</ele>
        <time>2011-09-03T10:50:49Z</time>
      </trkpt>
      <trkpt lat="43.47574" lon="6.91719">
        <ele>173.35760498047</ele>
        <time>2011-09-03T10:50:53Z</time>
      </trkpt>
      <trkpt lat="43.47567" lon="6.91739">
        <ele>166.92436218262</ele>
        <time>2011-09-03T10:50:57Z</time>
      </trkpt>
      <trkpt lat="43.47557" lon="6.91763">
        <ele>159.98220825195</ele>
        <time>2011-09-03T10:51:02Z</time>
      </trkpt>
      <trkpt lat="43.47555" lon="6.91769">
        <ele>158.4055480957</ele>
        <time>2011-09-03T10:51:03Z</time>
      </trkpt>
      <trkpt lat="43.4755" lon="6.91777">
        <ele>155.85122680664</ele>
        <time>2011-09-03T10:51:05Z</time>
      </trkpt>
      <trkpt lat="43.47537" lon="6.91797">
        <ele>150.86360168457</ele>
        <time>2011-09-03T10:51:10Z</time>
      </trkpt>
      <trkpt lat="43.47521" lon="6.91823">
        <ele>145.61837768555</ele>
        <time>2011-09-03T10:51:16Z</time>
      </trkpt>
      <trkpt lat="43.47508" lon="6.91846">
        <ele>141.041015625</ele>
        <time>2011-09-03T10:51:20Z</time>
      </trkpt>
      <trkpt lat="43.47488" lon="6.91862">
        <ele>138.70648193359</ele>
        <time>2011-09-03T10:51:26Z</time>
      </trkpt>
      <trkpt lat="43.47465" lon="6.91857">
        <ele>141.03494262695</ele>
        <time>2011-09-03T10:51:33Z</time>
      </trkpt>
      <trkpt lat="43.47452" lon="6.91848">
        <ele>143.30603027344</ele>
        <time>2011-09-03T10:51:37Z</time>
      </trkpt>
      <trkpt lat="43.47437" lon="6.91831">
        <ele>146.39999389648</ele>
        <time>2011-09-03T10:51:42Z</time>
      </trkpt>
      <trkpt lat="43.47425" lon="6.91812">
        <ele>147.94665527344</ele>
        <time>2011-09-03T10:51:46Z</time>
      </trkpt>
      <trkpt lat="43.47422" lon="6.91808">
        <ele>148.3088684082</ele>
        <time>2011-09-03T10:51:47Z</time>
      </trkpt>
      <trkpt lat="43.47417" lon="6.91799">
        <ele>149.64126586914</ele>
        <time>2011-09-03T10:51:49Z</time>
      </trkpt>
      <trkpt lat="43.47407" lon="6.91785">
        <ele>152.10551452637</ele>
        <time>2011-09-03T10:51:53Z</time>
      </trkpt>
      <trkpt lat="43.47397" lon="6.91772">
        <ele>154.66078186035</ele>
        <time>2011-09-03T10:51:57Z</time>
      </trkpt>
      <trkpt lat="43.47397" lon="6.9177">
        <ele>155.17144775391</ele>
        <time>2011-09-03T10:52:01Z</time>
      </trkpt>
      <trkpt lat="43.47398" lon="6.91769">
        <ele>155.60931396484</ele>
        <time>2011-09-03T10:52:08Z</time>
      </trkpt>
      <trkpt lat="43.47399" lon="6.91769">
        <ele>155.61174011231</ele>
        <time>2011-09-03T10:52:21Z</time>
      </trkpt>
      <trkpt lat="43.47398" lon="6.91768">
        <ele>155.74674987793</ele>
        <time>2011-09-03T10:52:25Z</time>
      </trkpt>
      <trkpt lat="43.47391" lon="6.91767">
        <ele>155.34214782715</ele>
        <time>2011-09-03T10:52:30Z</time>
      </trkpt>
      <trkpt lat="43.47387" lon="6.9178">
        <ele>151.05487060547</ele>
        <time>2011-09-03T10:52:34Z</time>
      </trkpt>
      <trkpt lat="43.47386" lon="6.91782">
        <ele>150.20515441894</ele>
        <time>2011-09-03T10:52:35Z</time>
      </trkpt>
      <trkpt lat="43.47383" lon="6.91785">
        <ele>148.87133789062</ele>
        <time>2011-09-03T10:52:41Z</time>
      </trkpt>
      <trkpt lat="43.47382" lon="6.91785">
        <ele>148.85073852539</ele>
        <time>2011-09-03T10:52:46Z</time>
      </trkpt>
      <trkpt lat="43.47379" lon="6.91791">
        <ele>146.67236328125</ele>
        <time>2011-09-03T10:52:53Z</time>
      </trkpt>
      <trkpt lat="43.47373" lon="6.91805">
        <ele>141.29592895508</ele>
        <time>2011-09-03T10:52:57Z</time>
      </trkpt>
      <trkpt lat="43.47361" lon="6.91821">
        <ele>136.64558410644</ele>
        <time>2011-09-03T10:53:01Z</time>
      </trkpt>
      <trkpt lat="43.47337" lon="6.91838">
        <ele>120.828125</ele>
        <time>2011-09-03T10:53:07Z</time>
      </trkpt>
      <trkpt lat="43.47311" lon="6.91842">
        <ele>109.81642913818</ele>
        <time>2011-09-03T10:53:12Z</time>
      </trkpt>
      <trkpt lat="43.47298" lon="6.91837">
        <ele>107.05819702148</ele>
        <time>2011-09-03T10:53:15Z</time>
      </trkpt>
      <trkpt lat="43.47289" lon="6.91824">
        <ele>107.32397460938</ele>
        <time>2011-09-03T10:53:18Z</time>
      </trkpt>
      <trkpt lat="43.47285" lon="6.91819">
        <ele>107.30680847168</ele>
        <time>2011-09-03T10:53:19Z</time>
      </trkpt>
      <trkpt lat="43.47272" lon="6.91782">
        <ele>111.64105224609</ele>
        <time>2011-09-03T10:53:25Z</time>
      </trkpt>
      <trkpt lat="43.47259" lon="6.91757">
        <ele>111.4260559082</ele>
        <time>2011-09-03T10:53:30Z</time>
      </trkpt>
      <trkpt lat="43.47252" lon="6.91748">
        <ele>109.8663482666</ele>
        <time>2011-09-03T10:53:33Z</time>
      </trkpt>
      <trkpt lat="43.47242" lon="6.9174">
        <ele>107.43227386475</ele>
        <time>2011-09-03T10:53:37Z</time>
      </trkpt>
      <trkpt lat="43.47236" lon="6.91738">
        <ele>105.95762634277</ele>
        <time>2011-09-03T10:53:39Z</time>
      </trkpt>
      <trkpt lat="43.47226" lon="6.91732">
        <ele>103.60859680176</ele>
        <time>2011-09-03T10:53:43Z</time>
      </trkpt>
      <trkpt lat="43.47226" lon="6.91739">
        <ele>102.89234924316</ele>
        <time>2011-09-03T10:53:47Z</time>
      </trkpt>
      <trkpt lat="43.47229" lon="6.91742">
        <ele>103.4319229126</ele>
        <time>2011-09-03T10:53:50Z</time>
      </trkpt>
      <trkpt lat="43.4723" lon="6.91741">
        <ele>103.60263824463</ele>
        <time>2011-09-03T10:53:55Z</time>
      </trkpt>
      <trkpt lat="43.47229" lon="6.91741">
        <ele>103.50900268555</ele>
        <time>2011-09-03T10:54:03Z</time>
      </trkpt>
      <trkpt lat="43.47229" lon="6.91741">
        <ele>103.48330688477</ele>
        <time>2011-09-03T10:54:12Z</time>
      </trkpt>
      <trkpt lat="43.47229" lon="6.91742">
        <ele>103.44477081299</ele>
        <time>2011-09-03T10:54:24Z</time>
      </trkpt>
      <trkpt lat="43.47229" lon="6.91742">
        <ele>103.28661346435</ele>
        <time>2011-09-03T10:54:30Z</time>
      </trkpt>
      <trkpt lat="43.47229" lon="6.91742">
        <ele>103.26727294922</ele>
        <time>2011-09-03T10:54:34Z</time>
      </trkpt>
      <trkpt lat="43.47229" lon="6.91742">
        <ele>103.26081848144</ele>
        <time>2011-09-03T10:54:44Z</time>
      </trkpt>
      <trkpt lat="43.47229" lon="6.91742">
        <ele>103.12170410156</ele>
        <time>2011-09-03T10:54:51Z</time>
      </trkpt>
      <trkpt lat="43.47229" lon="6.91742">
        <ele>103.13464355469</ele>
        <time>2011-09-03T10:55:12Z</time>
      </trkpt>
      <trkpt lat="43.47229" lon="6.91742">
        <ele>103.12170410156</ele>
        <time>2011-09-03T10:55:22Z</time>
      </trkpt>
      <trkpt lat="43.47228" lon="6.91743">
        <ele>102.89801025391</ele>
        <time>2011-09-03T10:55:45Z</time>
      </trkpt>
      <trkpt lat="43.47229" lon="6.91743">
        <ele>103.00522613525</ele>
        <time>2011-09-03T10:55:52Z</time>
      </trkpt>
      <trkpt lat="43.47228" lon="6.91743">
        <ele>102.91100311279</ele>
        <time>2011-09-03T10:55:59Z</time>
      </trkpt>
      <trkpt lat="43.47233" lon="6.91747">
        <ele>103.768409729</ele>
        <time>2011-09-03T10:56:04Z</time>
      </trkpt>
      <trkpt lat="43.4724" lon="6.91757">
        <ele>104.72989654541</ele>
        <time>2011-09-03T10:56:07Z</time>
      </trkpt>
      <trkpt lat="43.47247" lon="6.91778">
        <ele>102.93389892578</ele>
        <time>2011-09-03T10:56:11Z</time>
      </trkpt>
      <trkpt lat="43.4725" lon="6.9182">
        <ele>96.833465576172</ele>
        <time>2011-09-03T10:56:16Z</time>
      </trkpt>
      <trkpt lat="43.47246" lon="6.91848">
        <ele>91.510795593262</ele>
        <time>2011-09-03T10:56:19Z</time>
      </trkpt>
      <trkpt lat="43.47243" lon="6.91871">
        <ele>86.637420654297</ele>
        <time>2011-09-03T10:56:22Z</time>
      </trkpt>
      <trkpt lat="43.47245" lon="6.91894">
        <ele>82.360778808594</ele>
        <time>2011-09-03T10:56:25Z</time>
      </trkpt>
      <trkpt lat="43.47249" lon="6.91908">
        <ele>81.05615234375</ele>
        <time>2011-09-03T10:56:28Z</time>
      </trkpt>
      <trkpt lat="43.4725" lon="6.91911">
        <ele>80.747161865234</ele>
        <time>2011-09-03T10:56:29Z</time>
      </trkpt>
      <trkpt lat="43.47256" lon="6.91926">
        <ele>79.899566650391</ele>
        <time>2011-09-03T10:56:32Z</time>
      </trkpt>
      <trkpt lat="43.47265" lon="6.91939">
        <ele>79.077972412109</ele>
        <time>2011-09-03T10:56:36Z</time>
      </trkpt>
      <trkpt lat="43.47269" lon="6.91945">
        <ele>78.767158508301</ele>
        <time>2011-09-03T10:56:38Z</time>
      </trkpt>
      <trkpt lat="43.47288" lon="6.91957">
        <ele>80.618858337402</ele>
        <time>2011-09-03T10:56:44Z</time>
      </trkpt>
      <trkpt lat="43.47291" lon="6.91959">
        <ele>81.043228149414</ele>
        <time>2011-09-03T10:56:45Z</time>
      </trkpt>
      <trkpt lat="43.473" lon="6.91972">
        <ele>80.938575744629</ele>
        <time>2011-09-03T10:56:49Z</time>
      </trkpt>
      <trkpt lat="43.47301" lon="6.91981">
        <ele>79.655517578125</ele>
        <time>2011-09-03T10:56:51Z</time>
      </trkpt>
      <trkpt lat="43.47297" lon="6.91994">
        <ele>76.781547546387</ele>
        <time>2011-09-03T10:56:57Z</time>
      </trkpt>
      <trkpt lat="43.47293" lon="6.92004">
        <ele>74.536094665527</ele>
        <time>2011-09-03T10:57:01Z</time>
      </trkpt>
      <trkpt lat="43.4729" lon="6.92013">
        <ele>72.681625366211</ele>
        <time>2011-09-03T10:57:05Z</time>
      </trkpt>
      <trkpt lat="43.47289" lon="6.92015">
        <ele>72.080718994141</ele>
        <time>2011-09-03T10:57:07Z</time>
      </trkpt>
      <trkpt lat="43.47286" lon="6.92031">
        <ele>69.197914123535</ele>
        <time>2011-09-03T10:57:12Z</time>
      </trkpt>
      <trkpt lat="43.47281" lon="6.92051">
        <ele>66.078826904297</ele>
        <time>2011-09-03T10:57:17Z</time>
      </trkpt>
      <trkpt lat="43.47277" lon="6.9207">
        <ele>62.296989440918</ele>
        <time>2011-09-03T10:57:21Z</time>
      </trkpt>
      <trkpt lat="43.47277" lon="6.92081">
        <ele>60.247051239014</ele>
        <time>2011-09-03T10:57:24Z</time>
      </trkpt>
      <trkpt lat="43.47277" lon="6.92091">
        <ele>58.599319458008</ele>
        <time>2011-09-03T10:57:26Z</time>
      </trkpt>
      <trkpt lat="43.47275" lon="6.92103">
        <ele>55.959907531738</ele>
        <time>2011-09-03T10:57:30Z</time>
      </trkpt>
      <trkpt lat="43.47274" lon="6.92112">
        <ele>54.172119140625</ele>
        <time>2011-09-03T10:57:34Z</time>
      </trkpt>
      <trkpt lat="43.47276" lon="6.92123">
        <ele>52.901824951172</ele>
        <time>2011-09-03T10:57:38Z</time>
      </trkpt>
      <trkpt lat="43.4728" lon="6.92145">
        <ele>50.31812286377</ele>
        <time>2011-09-03T10:57:42Z</time>
      </trkpt>
      <trkpt lat="43.4729" lon="6.92167">
        <ele>47.629257202148</ele>
        <time>2011-09-03T10:57:46Z</time>
      </trkpt>
      <trkpt lat="43.47301" lon="6.92178">
        <ele>46.85334777832</ele>
        <time>2011-09-03T10:57:49Z</time>
      </trkpt>
      <trkpt lat="43.47305" lon="6.92182">
        <ele>46.602722167969</ele>
        <time>2011-09-03T10:57:53Z</time>
      </trkpt>
      <trkpt lat="43.47305" lon="6.92182">
        <ele>46.606155395508</ele>
        <time>2011-09-03T10:58:02Z</time>
      </trkpt>
      <trkpt lat="43.47305" lon="6.92182">
        <ele>46.664520263672</ele>
        <time>2011-09-03T10:58:10Z</time>
      </trkpt>
      <trkpt lat="43.47307" lon="6.92183">
        <ele>46.774421691895</ele>
        <time>2011-09-03T10:58:14Z</time>
      </trkpt>
      <trkpt lat="43.47312" lon="6.92182">
        <ele>48.018489837646</ele>
        <time>2011-09-03T10:58:20Z</time>
      </trkpt>
      <trkpt lat="43.47313" lon="6.92183">
        <ele>47.914009094238</ele>
        <time>2011-09-03T10:58:22Z</time>
      </trkpt>
      <trkpt lat="43.47313" lon="6.92183">
        <ele>48.086959838867</ele>
        <time>2011-09-03T10:58:26Z</time>
      </trkpt>
      <trkpt lat="43.47322" lon="6.92184">
        <ele>49.694152832031</ele>
        <time>2011-09-03T10:58:31Z</time>
      </trkpt>
      <trkpt lat="43.4734" lon="6.92191">
        <ele>51.834106445312</ele>
        <time>2011-09-03T10:58:37Z</time>
      </trkpt>
      <trkpt lat="43.4735" lon="6.92194">
        <ele>52.958488464355</ele>
        <time>2011-09-03T10:58:40Z</time>
      </trkpt>
      <trkpt lat="43.47364" lon="6.92187">
        <ele>56.540145874023</ele>
        <time>2011-09-03T10:58:44Z</time>
      </trkpt>
      <trkpt lat="43.47375" lon="6.92186">
        <ele>57.619895935059</ele>
        <time>2011-09-03T10:58:47Z</time>
      </trkpt>
      <trkpt lat="43.47385" lon="6.92188">
        <ele>57.911720275879</ele>
        <time>2011-09-03T10:58:49Z</time>
      </trkpt>
      <trkpt lat="43.47404" lon="6.92207">
        <ele>57.301803588867</ele>
        <time>2011-09-03T10:58:53Z</time>
      </trkpt>
      <trkpt lat="43.47405" lon="6.92236">
        <ele>53.714385986328</ele>
        <time>2011-09-03T10:58:56Z</time>
      </trkpt>
      <trkpt lat="43.47406" lon="6.92247">
        <ele>52.265563964844</ele>
        <time>2011-09-03T10:58:57Z</time>
      </trkpt>
      <trkpt lat="43.47422" lon="6.92288">
        <ele>46.979583740234</ele>
        <time>2011-09-03T10:59:02Z</time>
      </trkpt>
      <trkpt lat="43.47427" lon="6.92303">
        <ele>45.588218688965</ele>
        <time>2011-09-03T10:59:06Z</time>
      </trkpt>
      <trkpt lat="43.47429" lon="6.92312">
        <ele>44.430084228516</ele>
        <time>2011-09-03T10:59:09Z</time>
      </trkpt>
      <trkpt lat="43.47431" lon="6.92316">
        <ele>43.849784851074</ele>
        <time>2011-09-03T10:59:10Z</time>
      </trkpt>
      <trkpt lat="43.47445" lon="6.92352">
        <ele>37.181983947754</ele>
        <time>2011-09-03T10:59:18Z</time>
      </trkpt>
      <trkpt lat="43.47451" lon="6.92369">
        <ele>33.445938110352</ele>
        <time>2011-09-03T10:59:22Z</time>
      </trkpt>
      <trkpt lat="43.4746" lon="6.92392">
        <ele>29.235298156738</ele>
        <time>2011-09-03T10:59:27Z</time>
      </trkpt>
      <trkpt lat="43.47473" lon="6.92419">
        <ele>24.778861999512</ele>
        <time>2011-09-03T10:59:33Z</time>
      </trkpt>
      <trkpt lat="43.47486" lon="6.92443">
        <ele>23.065616607666</ele>
        <time>2011-09-03T10:59:39Z</time>
      </trkpt>
      <trkpt lat="43.47495" lon="6.92463">
        <ele>22.186027526856</ele>
        <time>2011-09-03T10:59:44Z</time>
      </trkpt>
      <trkpt lat="43.47495" lon="6.92469">
        <ele>21.688097000122</ele>
        <time>2011-09-03T10:59:48Z</time>
      </trkpt>
      <trkpt lat="43.47496" lon="6.92468">
        <ele>21.860023498535</ele>
        <time>2011-09-03T10:59:52Z</time>
      </trkpt>
    </trkseg>
  </trk>
</gpx>